[[{"header":{"parameterUnit":"m.s-1","parameterCategory":1,"la1":30.6,"la2":29.2853,"lo1":-89.7004,"lo2":-87.6739,"dy":0.0162,"dx":0.0183,"nx":112,"ny":82,"refTime":"2026-02-24T12:00:00:Z","depth":0,"parameterNumber":2,"parameterNumberName":"U-component_of_WINDS"},"data":[0.0,0.0,0.0,0.0,0.0,0.0,0.0,0.0,0.0,0.0,0.0,0.0,0.0,0.0,0.0,0.0,0.0,0.0,0.0,0.0,0.0,0.0,0.0,0.0,0.0,0.0,0.0,0.0,0.0,0.0,0.0,0.0,0.0,0.0,0.0,0.0,0.0,0.0,0.0,0.0,0.0,0.0,0.0,0.0,0.0,0.0,0.0,0.0,0.0,0.0,0.0,0.0,0.0,0.0,0.0,0.0,0.0,0.0,0.0,0.0,0.0,0.0,0.0,0.0,0.0,0.0,0.0,0.0,0.0,0.0,0.0,0.0,0.0,0.0,0.0,0.0,0.0,0.0,0.0,0.0,0.0,0.0,0.0,0.0,0.0,0.0,0.0,0.0,0.0,0.0,-3.8976,-4.2905,-4.7653,-5.0638,-5.0796,-4.9829,-4.6893,-4.1444,0.0,0.0,0.0,0.0,0.0,0.0,0.0,0.0,0.0,0.0,0.0,0.0,0.0,0.0,0.0,0.0,0.0,0.0,0.0,0.0,0.0,0.0,0.0,0.0,0.0,0.0,0.0,0.0,0.0,0.0,0.0,0.0,0.0,0.0,0.0,0.0,0.0,0.0,0.0,0.0,0.0,0.0,0.0,0.0,0.0,0.0,0.0,0.0,0.0,0.0,0.0,0.0,0.0,0.0,0.0,0.0,0.0,0.0,0.0,0.0,0.0,0.0,0.0,0.0,0.0,0.0,0.0,0.0,0.0,0.0,0.0,0.0,0.0,0.0,0.0,0.0,0.0,0.0,0.0,0.0,0.0,0.0,0.0,0.0,0.0,0.0,0.0,0.0,0.0,0.0,0.0,0.0,0.0,0.0,0.0,0.0,0.0,0.0,0.0,0.0,0.0,0.0,0.0,0.0,-3.881,-4.6138,-4.8253,-4.9595,-5.0703,-4.8745,-4.5645,-4.137,0.0,0.0,0.0,0.0,0.0,0.0,0.0,0.0,0.0,0.0,0.0,0.0,0.0,0.0,0.0,0.0,0.0,0.0,0.0,0.0,0.0,0.0,0.0,0.0,0.0,0.0,0.0,0.0,0.0,0.0,0.0,0.0,0.0,0.0,0.0,0.0,0.0,0.0,0.0,0.0,0.0,0.0,0.0,0.0,0.0,0.0,0.0,0.0,0.0,0.0,0.0,0.0,0.0,0.0,0.0,0.0,0.0,0.0,0.0,0.0,0.0,0.0,0.0,0.0,0.0,0.0,0.0,0.0,0.0,0.0,0.0,0.0,0.0,0.0,0.0,0.0,0.0,0.0,0.0,0.0,0.0,0.0,0.0,0.0,0.0,0.0,0.0,0.0,0.0,0.0,0.0,0.0,0.0,0.0,0.0,0.0,0.0,0.0,0.0,0.0,0.0,0.0,0.0,-3.7195,-4.0097,-4.5944,-4.7911,-4.8894,-4.91,-4.7617,-4.4924,-4.0816,-3.7511,0.0,0.0,0.0,0.0,0.0,0.0,0.0,0.0,0.0,0.0,0.0,0.0,0.0,0.0,0.0,0.0,0.0,0.0,0.0,0.0,0.0,0.0,0.0,0.0,0.0,0.0,0.0,0.0,0.0,0.0,0.0,0.0,0.0,0.0,0.0,0.0,0.0,0.0,0.0,0.0,0.0,0.0,0.0,0.0,0.0,0.0,0.0,0.0,0.0,0.0,0.0,0.0,0.0,0.0,0.0,0.0,0.0,0.0,0.0,0.0,0.0,0.0,0.0,0.0,0.0,0.0,0.0,0.0,0.0,0.0,0.0,0.0,0.0,0.0,0.0,0.0,0.0,0.0,0.0,0.0,0.0,0.0,0.0,0.0,0.0,0.0,0.0,0.0,0.0,0.0,0.0,0.0,0.0,0.0,0.0,0.0,0.0,0.0,0.0,0.0,0.0,0.0,-3.9665,-4.1825,-4.5224,-4.7058,-4.7841,-4.7452,-4.6022,-4.354,-3.9787,-3.5589,0.0,0.0,0.0,0.0,0.0,0.0,0.0,0.0,0.0,0.0,0.0,0.0,0.0,0.0,0.0,0.0,0.0,0.0,0.0,0.0,0.0,0.0,0.0,0.0,0.0,0.0,0.0,0.0,0.0,0.0,0.0,0.0,0.0,0.0,0.0,0.0,0.0,0.0,0.0,0.0,0.0,0.0,0.0,0.0,0.0,0.0,0.0,0.0,0.0,0.0,0.0,0.0,0.0,0.0,0.0,0.0,0.0,0.0,0.0,0.0,0.0,0.0,0.0,0.0,0.0,0.0,0.0,0.0,0.0,0.0,0.0,0.0,0.0,0.0,0.0,0.0,0.0,0.0,0.0,0.0,0.0,0.0,0.0,0.0,0.0,0.0,0.0,0.0,0.0,0.0,0.0,0.0,0.0,0.0,0.0,0.0,0.0,0.0,0.0,0.0,0.0,0.0,-4.0038,-4.364,-4.5398,-4.5675,-4.5972,-4.6543,-4.3608,-4.067,-3.8113,-3.3247,0.0,0.0,0.0,0.0,0.0,0.0,0.0,0.0,0.0,0.0,0.0,0.0,0.0,0.0,0.0,0.0,0.0,0.0,0.0,0.0,0.0,0.0,0.0,0.0,0.0,0.0,0.0,0.0,0.0,0.0,0.0,0.0,0.0,0.0,0.0,0.0,0.0,0.0,0.0,0.0,0.0,0.0,0.0,0.0,0.0,0.0,0.0,0.0,0.0,0.0,0.0,0.0,0.0,0.0,0.0,0.0,0.0,0.0,0.0,0.0,0.0,0.0,0.0,0.0,0.0,0.0,0.0,0.0,0.0,0.0,0.0,0.0,0.0,0.0,0.0,0.0,0.0,0.0,0.0,0.0,0.0,0.0,0.0,0.0,0.0,0.0,0.0,0.0,0.0,0.0,0.0,0.0,0.0,0.0,0.0,0.0,0.0,0.0,0.0,0.0,0.0,0.0,-3.8565,-4.1527,0.0,-4.457,-4.4733,-4.4578,-4.2934,-4.0567,-3.7443,0.0,0.0,0.0,0.0,0.0,0.0,0.0,0.0,0.0,0.0,0.0,0.0,0.0,0.0,0.0,0.0,0.0,0.0,0.0,0.0,0.0,0.0,0.0,0.0,0.0,0.0,0.0,0.0,0.0,0.0,0.0,0.0,0.0,0.0,0.0,0.0,0.0,0.0,0.0,0.0,0.0,0.0,0.0,0.0,0.0,0.0,0.0,0.0,0.0,0.0,0.0,0.0,0.0,0.0,0.0,0.0,0.0,0.0,0.0,0.0,0.0,0.0,0.0,0.0,0.0,0.0,0.0,0.0,0.0,0.0,0.0,0.0,0.0,0.0,0.0,0.0,0.0,0.0,0.0,0.0,0.0,0.0,0.0,0.0,0.0,0.0,0.0,0.0,0.0,0.0,0.0,0.0,0.0,0.0,0.0,0.0,0.0,0.0,0.0,0.0,0.0,0.0,-3.4844,-3.7882,-4.0561,0.0,-4.3672,-4.3888,-4.3447,-4.1925,-3.9594,-3.6334,0.0,0.0,0.0,0.0,0.0,0.0,0.0,0.0,0.0,0.0,0.0,0.0,0.0,0.0,0.0,0.0,0.0,0.0,0.0,0.0,0.0,0.0,0.0,0.0,0.0,0.0,0.0,0.0,0.0,0.0,0.0,0.0,0.0,0.0,0.0,0.0,0.0,0.0,0.0,0.0,0.0,0.0,0.0,0.0,0.0,0.0,0.0,0.0,0.0,0.0,0.0,0.0,0.0,0.0,0.0,0.0,0.0,0.0,0.0,0.0,0.0,0.0,0.0,0.0,0.0,0.0,0.0,0.0,0.0,0.0,0.0,0.0,0.0,0.0,0.0,0.0,0.0,0.0,0.0,0.0,0.0,0.0,0.0,0.0,0.0,0.0,0.0,0.0,0.0,0.0,0.0,0.0,0.0,0.0,0.0,0.0,0.0,0.0,0.0,0.0,0.0,0.0,-3.4283,-3.8443,-4.1491,-4.2219,-4.2963,-4.3392,-4.3375,-4.0331,-3.7283,0.0,0.0,0.0,0.0,0.0,0.0,0.0,0.0,0.0,0.0,0.0,0.0,0.0,0.0,0.0,0.0,0.0,0.0,0.0,0.0,0.0,0.0,0.0,0.0,0.0,0.0,0.0,0.0,0.0,0.0,0.0,0.0,0.0,0.0,0.0,0.0,0.0,0.0,0.0,0.0,0.0,0.0,0.0,0.0,0.0,0.0,0.0,0.0,0.0,0.0,0.0,0.0,0.0,0.0,0.0,0.0,0.0,0.0,0.0,0.0,0.0,0.0,0.0,0.0,0.0,0.0,0.0,0.0,0.0,0.0,0.0,0.0,0.0,0.0,0.0,0.0,0.0,0.0,0.0,0.0,0.0,0.0,0.0,0.0,0.0,0.0,0.0,0.0,0.0,0.0,0.0,0.0,0.0,0.0,0.0,0.0,0.0,0.0,0.0,0.0,0.0,0.0,0.0,-3.4371,-3.8906,-4.2049,-4.2269,-4.2963,-4.3172,-4.2675,-4.0756,-3.7826,-3.3644,0.0,0.0,0.0,0.0,0.0,0.0,0.0,0.0,0.0,0.0,0.0,0.0,0.0,0.0,0.0,0.0,0.0,0.0,0.0,0.0,0.0,0.0,0.0,0.0,0.0,0.0,0.0,0.0,0.0,0.0,0.0,0.0,0.0,0.0,0.0,0.0,0.0,0.0,0.0,0.0,0.0,0.0,0.0,0.0,0.0,0.0,0.0,0.0,0.0,0.0,0.0,0.0,0.0,0.0,0.0,0.0,0.0,0.0,0.0,0.0,0.0,0.0,0.0,0.0,0.0,0.0,0.0,0.0,0.0,0.0,0.0,0.0,0.0,0.0,0.0,0.0,0.0,0.0,0.0,0.0,0.0,0.0,0.0,0.0,0.0,0.0,0.0,0.0,0.0,0.0,0.0,0.0,0.0,0.0,0.0,0.0,0.0,0.0,0.0,0.0,0.0,0.0,-3.4353,-3.834,-4.1305,-4.2202,-4.2692,-4.2912,-4.276,-4.1128,-3.8146,-3.3586,0.0,0.0,0.0,0.0,0.0,0.0,0.0,0.0,0.0,0.0,0.0,0.0,0.0,0.0,0.0,0.0,0.0,0.0,0.0,0.0,0.0,0.0,0.0,0.0,0.0,0.0,0.0,0.0,0.0,0.0,0.0,0.0,0.0,0.0,0.0,0.0,0.0,0.0,0.0,0.0,0.0,0.0,0.0,0.0,0.0,0.0,0.0,0.0,0.0,0.0,0.0,0.0,0.0,0.0,0.0,0.0,0.0,0.0,0.0,0.0,0.0,0.0,0.0,0.0,0.0,0.0,0.0,0.0,0.0,0.0,0.0,0.0,0.0,0.0,0.0,0.0,0.0,0.0,0.0,0.0,0.0,0.0,0.0,0.0,0.0,0.0,0.0,0.0,0.0,0.0,0.0,0.0,0.0,0.0,0.0,0.0,0.0,0.0,0.0,0.0,0.0,0.0,-3.4247,-3.7207,-3.9884,-4.1965,-4.2252,-4.254,-4.3139,-4.1221,-3.8241,-3.412,0.0,0.0,0.0,0.0,0.0,0.0,0.0,0.0,0.0,0.0,0.0,0.0,0.0,0.0,0.0,0.0,0.0,0.0,0.0,0.0,0.0,0.0,0.0,0.0,0.0,0.0,0.0,0.0,0.0,0.0,0.0,0.0,0.0,0.0,0.0,0.0,0.0,0.0,0.0,0.0,0.0,0.0,0.0,0.0,0.0,0.0,0.0,0.0,0.0,0.0,0.0,0.0,0.0,0.0,0.0,0.0,0.0,0.0,0.0,0.0,-3.6203,-3.4908,0.0,0.0,0.0,0.0,0.0,0.0,0.0,0.0,0.0,0.0,0.0,0.0,0.0,0.0,0.0,0.0,0.0,0.0,0.0,0.0,0.0,0.0,0.0,0.0,0.0,0.0,0.0,0.0,0.0,0.0,0.0,0.0,0.0,0.0,0.0,0.0,0.0,0.0,0.0,0.0,-3.3852,-3.7485,-4.0265,-4.1322,-4.1948,-4.2117,-4.1711,-4.0172,-3.7597,-3.3748,-3.1456,0.0,0.0,0.0,0.0,0.0,0.0,0.0,0.0,0.0,0.0,0.0,0.0,0.0,0.0,0.0,0.0,0.0,0.0,0.0,0.0,0.0,0.0,0.0,0.0,0.0,0.0,0.0,0.0,0.0,0.0,0.0,0.0,0.0,0.0,0.0,0.0,0.0,0.0,0.0,0.0,0.0,0.0,0.0,0.0,0.0,0.0,0.0,0.0,0.0,0.0,0.0,0.0,0.0,0.0,0.0,0.0,0.0,0.0,0.0,-3.9258,-3.7991,0.0,0.0,0.0,0.0,0.0,0.0,0.0,0.0,0.0,0.0,0.0,0.0,0.0,0.0,0.0,0.0,0.0,0.0,0.0,0.0,0.0,0.0,0.0,0.0,0.0,0.0,0.0,0.0,0.0,0.0,0.0,0.0,0.0,0.0,0.0,0.0,0.0,0.0,0.0,0.0,-3.3662,-3.6939,-3.9614,-4.1052,-4.1542,-4.1627,-4.1238,-4.0172,-3.8091,-3.467,-3.2505,0.0,0.0,0.0,0.0,0.0,0.0,0.0,0.0,0.0,0.0,0.0,0.0,0.0,0.0,0.0,0.0,0.0,0.0,0.0,0.0,0.0,0.0,0.0,0.0,0.0,0.0,0.0,0.0,0.0,0.0,0.0,0.0,0.0,0.0,0.0,0.0,0.0,0.0,0.0,0.0,0.0,0.0,0.0,0.0,0.0,0.0,0.0,0.0,0.0,0.0,0.0,0.0,0.0,-4.5603,-4.5682,-4.4819,-4.614,-4.603,-4.4654,-4.2671,-4.1699,-4.1389,-3.9937,0.0,0.0,0.0,0.0,0.0,0.0,0.0,0.0,0.0,0.0,0.0,0.0,0.0,0.0,0.0,0.0,0.0,0.0,0.0,0.0,0.0,0.0,0.0,0.0,-3.3796,-3.3301,-3.0751,0.0,0.0,0.0,0.0,0.0,0.0,0.0,0.0,0.0,0.0,0.0,-3.3682,-3.6321,-3.87,-4.0798,-4.1018,-4.1018,-4.1018,-4.0223,-3.8592,-3.5955,-3.3711,-3.1019,0.0,0.0,0.0,0.0,0.0,0.0,0.0,0.0,0.0,0.0,0.0,0.0,0.0,0.0,0.0,0.0,0.0,0.0,0.0,0.0,0.0,0.0,0.0,0.0,0.0,0.0,0.0,0.0,0.0,0.0,0.0,0.0,-3.9629,-4.0723,0.0,0.0,0.0,0.0,0.0,0.0,0.0,0.0,0.0,0.0,0.0,0.0,0.0,-4.5451,-4.6212,-4.8089,-4.8859,-4.8602,-4.9886,-5.0268,-4.9848,-5.0068,-5.005,-4.9829,-4.9499,0.0,-4.3112,-4.2194,0.0,0.0,0.0,0.0,0.0,0.0,0.0,0.0,0.0,0.0,0.0,0.0,0.0,0.0,0.0,0.0,0.0,0.0,0.0,0.0,0.0,0.0,-3.7521,-3.653,-3.6333,-3.6243,0.0,-3.2346,-2.9056,-2.8122,-2.7205,0.0,0.0,0.0,0.0,0.0,0.0,0.0,-3.399,-3.6463,-3.8497,-4.0096,-4.0248,-4.0248,-4.0248,-3.8971,-3.7753,-3.6711,-3.4506,-3.2192,-2.9809,-2.8214,0.0,0.0,0.0,0.0,0.0,0.0,0.0,0.0,0.0,0.0,0.0,0.0,0.0,0.0,0.0,0.0,0.0,0.0,0.0,0.0,0.0,0.0,0.0,0.0,0.0,0.0,0.0,0.0,0.0,-3.9199,-4.1621,-4.25,-4.2617,-4.1913,0.0,0.0,0.0,0.0,0.0,0.0,0.0,0.0,0.0,-4.7105,-4.8018,-4.8875,-4.9692,-5.0876,-5.1266,-5.087,-5.1656,-5.1602,-5.082,-5.1261,-5.1224,-5.0802,-5.0802,-4.9572,-4.7462,-4.5718,-4.3791,-4.1825,0.0,0.0,0.0,0.0,-3.9132,-3.8673,-4.0432,-4.0469,-3.9698,-3.9166,0.0,0.0,0.0,0.0,0.0,0.0,0.0,0.0,0.0,0.0,-3.8207,-3.8062,-3.8352,-3.8539,-3.8132,-3.601,-3.3468,0.0,-3.0137,-2.9058,-2.6718,0.0,0.0,0.0,0.0,-3.1247,-3.358,-3.5859,-3.7686,-3.8751,-3.8853,-3.8853,-3.8853,-3.8278,-3.7584,-3.6846,-3.5436,-3.3825,-3.2036,-3.0106,-2.8131,0.0,0.0,0.0,0.0,0.0,0.0,0.0,0.0,0.0,0.0,0.0,0.0,0.0,0.0,0.0,0.0,0.0,0.0,0.0,0.0,0.0,0.0,0.0,0.0,0.0,0.0,0.0,0.0,-4.1504,-4.3633,-4.4297,-4.4961,-4.447,0.0,0.0,0.0,0.0,0.0,0.0,-4.7156,-4.7446,-4.8606,-5.0933,-5.1866,-5.2587,-5.3203,-5.3654,-5.3574,-5.2953,-5.315,-5.2604,-5.1444,-5.2032,-5.1977,-5.1408,-5.1408,-5.1298,-5.0912,-4.8415,-4.6232,-4.4323,-4.3314,-4.2433,-4.1809,-4.2616,-4.2543,-4.2306,-4.4323,-4.4488,-4.3645,-4.2718,-4.0963,-3.8629,-3.5315,0.0,0.0,0.0,0.0,-3.5749,-3.6688,-3.7546,-3.8362,-3.9106,-3.9706,-3.996,-3.9394,-3.87,-3.7246,0.0,-3.2987,-3.1594,-2.8494,0.0,0.0,0.0,0.0,-3.207,-3.3761,-3.5605,-3.7083,-3.7821,-3.7905,-3.7905,-3.7905,-3.7736,-3.7381,-3.6829,-3.6045,-3.494,-3.3474,-3.1647,-2.9871,-2.8128,0.0,0.0,0.0,0.0,0.0,0.0,0.0,0.0,0.0,0.0,0.0,0.0,0.0,0.0,0.0,0.0,0.0,0.0,0.0,0.0,0.0,0.0,0.0,0.0,0.0,0.0,0.0,0.0,0.0,-4.6152,-4.8359,0.0,0.0,0.0,0.0,-4.546,-4.7025,-4.9018,-5.1472,-5.2375,-5.3606,-5.5318,-5.6233,-5.6695,-5.6753,-5.7143,-5.673,-5.5516,-5.5152,-5.4311,-5.3075,-5.3112,-5.3112,-5.3096,-5.3096,-5.2656,-5.1738,-4.926,-4.7718,-4.6764,-4.5186,-4.4085,-4.3479,-4.4287,-4.4544,-4.4636,-4.5535,-4.5314,-4.4784,-4.5655,-4.3177,-3.9584,-3.8116,-3.6135,0.0,0.0,-3.6039,-3.7039,-3.8495,-3.8911,-3.9123,-3.9876,-4.0079,-4.0096,-4.0045,-3.9486,-3.8464,0.0,-3.4827,-3.3271,-3.3072,0.0,-3.0446,-3.1788,-3.2144,-3.3017,-3.5211,-3.6248,-3.7083,-3.7821,-3.7905,-3.7905,-3.7905,-3.7246,-3.6846,-3.6795,-3.6045,-3.494,-3.3474,-3.2611,-3.1159,-2.8976,-2.598,0.0,0.0,0.0,0.0,0.0,0.0,0.0,0.0,0.0,0.0,0.0,0.0,0.0,0.0,0.0,0.0,0.0,0.0,0.0,0.0,0.0,0.0,0.0,0.0,0.0,0.0,0.0,0.0,-4.9453,-5.1406,0.0,-4.909,-5.012,-5.0589,-4.9753,-5.1298,-5.3148,-5.5079,-5.5472,-5.6184,-5.7338,-5.7665,-5.7838,-5.7838,-5.7685,-5.7213,-5.6465,-5.549,-5.4661,-5.3959,-5.3445,-5.3185,-5.3185,-5.3185,-5.3041,-5.2656,-5.1261,-4.9903,-4.8636,-4.8067,-4.7333,-4.6617,-4.6911,-4.7021,-4.7058,-4.7352,-4.726,-4.6871,-4.5925,-4.362,-4.0964,-3.971,-3.8413,-3.7449,-3.7719,-3.8328,-3.9046,-3.9571,-3.9723,-3.9774,-4.0045,-4.0096,-4.0096,-4.0096,-3.9893,-3.9554,-3.9029,-3.7499,-3.569,-3.3744,-3.352,-3.3165,-3.1799,-3.2801,-3.3998,-3.4793,-3.5571,-3.6146,-3.6377,-3.6411,-3.6411,-3.6411,-3.574,-3.5323,-3.5323,-3.4607,-3.3964,-3.3423,-3.2679,-3.1481,-2.9736,-2.7689,-2.5558,0.0,0.0,0.0,0.0,0.0,0.0,0.0,0.0,0.0,0.0,0.0,0.0,0.0,0.0,0.0,0.0,0.0,0.0,0.0,0.0,0.0,0.0,0.0,0.0,0.0,0.0,-5.0586,-5.1719,-5.3845,-5.4461,-5.2567,-5.3594,-5.4176,-5.3656,-5.4684,-5.6088,-5.7753,-5.7838,-5.8242,-5.9127,-5.9146,-5.9146,-5.9146,-5.8679,-5.8068,-5.7333,-5.6051,-5.5069,-5.4363,-5.3573,-5.3185,-5.3185,-5.3185,-5.3185,-5.317,-5.2619,-5.161,-5.0363,-4.9812,-4.9058,-4.8306,-4.8306,-4.8306,-4.8306,-4.8306,-4.8172,-4.769,-4.5873,-4.3973,-4.2134,-4.087,-3.9977,-3.9385,-3.9385,-3.9723,-4.0096,-4.0096,-4.0096,-4.0096,-4.0096,-4.0096,-4.0096,-4.0096,-4.0096,-4.0096,-4.0096,-3.9106,-3.7567,-3.5318,-3.552,-3.525,-3.3017,-3.3931,-3.4878,-3.4878,-3.5295,-3.56,-3.56,-3.56,-3.56,-3.56,-3.4928,-3.4489,-3.4489,-3.3558,-3.2916,-3.2679,-3.1935,-3.097,-2.9753,-2.8196,-2.5964,-2.3021,0.0,0.0,0.0,0.0,0.0,0.0,0.0,0.0,0.0,0.0,0.0,0.0,0.0,0.0,0.0,0.0,0.0,0.0,0.0,0.0,0.0,0.0,0.0,-4.6504,-5.0137,-5.2812,-5.2891,-5.5721,-5.6998,-5.5224,-5.5673,-5.6355,-5.7044,-5.7107,-5.7827,-5.9454,-5.955,-5.9935,-6.0762,-6.08,-6.08,-6.08,-6.0324,-5.9452,-5.818,-5.6893,-5.5626,-5.4363,-5.3573,-5.3185,-5.3185,-5.3185,-5.3185,-5.3185,-5.3185,-5.2729,-5.183,-5.0271,-4.9095,-4.8343,-4.8324,-4.8306,-4.8306,-4.8306,-4.7899,-4.7137,-4.5761,-4.4378,-4.3012,-4.1656,-4.0722,-4.0121,-4.013,-4.0138,-4.0121,-4.0096,-4.0096,-4.0096,-4.0096,-4.0096,-4.0096,-4.0096,-4.0096,-4.0096,-4.0096,-3.9512,-3.8802,-3.8075,-3.7313,-3.6575,-3.5752,-3.5616,0.0,-3.56,-3.56,-3.56,-3.56,-3.56,-3.56,-3.56,-3.4912,-3.4455,-3.4421,-3.3055,-3.1921,-3.119,-3.048,-2.9753,-2.901,-2.7486,-2.527,-2.2364,0.0,0.0,0.0,0.0,0.0,0.0,0.0,0.0,0.0,0.0,0.0,0.0,0.0,0.0,0.0,0.0,0.0,0.0,0.0,0.0,0.0,-4.8027,-5.0937,-5.0937,-5.3047,-5.5293,-5.7187,-5.8729,-5.9365,-5.8675,-5.9341,-5.9541,-5.8864,-5.9396,-5.9954,-6.0416,-6.0435,-6.055,-6.0781,-6.08,-6.08,-6.08,-5.9996,-5.9129,-5.818,-5.6546,-5.5306,-5.4363,-5.3573,-5.3185,-5.3185,-5.3185,-5.3185,-5.3185,-5.3185,-5.2729,-5.1885,-5.0857,-4.9958,-4.9169,-4.8526,-4.8306,-4.8306,-4.8306,-4.7534,-4.6458,-4.5583,-4.4033,-4.2424,-4.2099,-4.1366,-4.0704,-4.0858,-4.0794,-4.0601,-4.0204,-4.0096,-4.0096,-4.0096,-4.0096,-4.0096,-4.0096,-4.0096,-4.0096,-4.0096,-3.9943,-3.9571,-3.8819,-3.8091,-3.733,-3.6569,-3.5977,0.0,-3.56,-3.56,-3.56,-3.56,-3.56,-3.56,-3.56,-3.4438,-3.3474,-3.2936,-3.1512,-3.0615,-3.0412,-3.0226,-2.9753,-2.901,-2.7486,-2.5761,0.0,0.0,0.0,0.0,0.0,0.0,0.0,0.0,0.0,0.0,0.0,0.0,0.0,0.0,0.0,0.0,0.0,0.0,0.0,0.0,0.0,0.0,-5.1113,-5.418,-5.5273,-5.6308,-5.7617,-5.9473,-6.0387,-6.0781,-6.0578,-6.0935,-6.0854,-6.0104,-6.0512,-6.08,-6.08,-6.08,-6.08,-6.08,-6.08,-6.08,-6.08,-6.0055,-5.9195,-5.818,-5.6645,-5.5373,-5.4363,-5.3573,-5.3185,-5.3185,-5.3185,-5.3185,-5.3185,-5.3185,-5.2931,0.0,0.0,0.0,0.0,0.0,-4.8306,-4.8306,-4.8306,-4.7563,-4.644,-4.5227,-4.3772,-4.2382,-4.1597,-4.0992,-4.0583,-4.0722,-4.0652,-4.0497,-4.0179,-4.0096,-4.0096,-4.0096,-4.0096,-4.0096,-4.0096,-4.0096,-4.0096,-4.0096,-4.0096,0.0,-3.9123,-3.8396,-3.7652,-3.6914,-3.6129,-3.56,-3.56,-3.56,-3.56,-3.56,-3.56,-3.56,-3.56,-3.4247,0.0,0.0,0.0,-2.9973,-2.9651,-2.9634,0.0,0.0,0.0,0.0,0.0,0.0,0.0,0.0,-2.3444,-2.3714,0.0,0.0,0.0,0.0,0.0,0.0,0.0,0.0,0.0,0.0,0.0,0.0,0.0,0.0,0.0,0.0,-5.3965,-5.6582,-5.9004,-5.9414,-5.9746,-6.0469,-6.1112,-6.1448,-6.1301,-6.1128,-6.0935,-6.0804,-6.08,-6.08,-6.08,0.0,0.0,0.0,0.0,-6.08,-6.08,-6.0338,-5.9429,-5.8048,-5.6874,-5.5591,-5.4234,-5.3537,-5.3185,-5.3185,-5.3185,-5.3185,-5.3185,-5.3185,-5.3075,-5.2782,-5.1371,-5.0251,-4.9372,-4.86,-4.8306,-4.8306,-4.8306,0.0,0.0,-4.4882,-4.3669,-4.2577,-4.084,-4.0247,-4.0196,-4.0239,-4.0214,-4.0196,-4.0121,-4.0096,-4.0096,-4.0096,-4.0096,-4.0096,-4.0096,-4.0096,-4.0096,-4.0096,-4.0096,-3.9876,-3.9123,-3.8396,-3.7652,-3.6914,-3.6129,-3.56,-3.56,-3.56,-3.56,-3.56,0.0,0.0,-3.56,-3.4315,-3.3491,-3.3406,-3.141,-2.9922,-2.9281,-2.9247,-2.9213,-2.9128,-2.9128,-2.9077,-2.8993,-2.8993,-2.867,-2.801,-2.5947,-2.6015,0.0,0.0,0.0,0.0,0.0,0.0,0.0,0.0,0.0,0.0,0.0,0.0,0.0,0.0,0.0,-5.3125,-5.6289,-5.8848,-6.0019,-6.0762,-6.1269,-6.1426,-6.1483,-6.1448,-6.1301,-6.1128,-6.0935,-6.0804,-6.08,-6.08,-6.08,-6.08,-6.08,-6.08,-6.08,-6.08,-6.08,-6.0338,-5.9125,-5.7213,0.0,0.0,-5.3424,-5.328,-5.3185,-5.3185,-5.3185,-5.3185,-5.3185,-5.3185,-5.2454,-5.1242,-5.093,-4.9884,-4.8526,-4.8361,-4.8306,-4.8306,-4.8306,-4.7486,-4.6287,-4.5271,-4.3748,-4.2271,-4.1823,-4.1267,0.0,-4.0934,-4.0853,-4.0655,-4.0204,-4.0096,-4.0096,-4.0096,-4.0096,-4.0096,-4.0096,-4.0096,-4.0096,-4.0096,-4.0096,-3.9876,-3.9123,-3.8396,-3.7652,-3.6914,-3.6129,-3.56,-3.56,-3.56,-3.56,-3.56,-3.56,-3.56,-3.56,-3.4793,-3.4032,-3.344,-3.1884,-3.092,-3.0768,-3.0768,-3.0497,-2.9905,-2.9888,-2.9583,-2.8993,-2.8993,-2.923,-2.9616,-2.862,-2.801,0.0,0.0,0.0,0.0,0.0,0.0,0.0,0.0,0.0,0.0,0.0,-4.6837,-4.9035,0.0,-5.3926,-5.5664,-5.8125,-5.9941,-6.0332,-6.1152,-6.1699,-6.1699,-6.158,-6.1448,-6.1301,-6.1128,-6.0935,-6.0804,-6.08,-6.08,-6.08,-6.08,-6.08,-6.08,-6.08,-6.08,-6.08,-6.0124,-5.8873,-5.6984,-5.6317,-5.5006,-5.3185,-5.3185,-5.3185,-5.3185,-5.3185,-5.3185,-5.3167,-5.2766,-5.1885,-5.0765,-5.0362,-4.9426,-4.8306,-4.8306,-4.8306,-4.8306,-4.8306,-4.7602,-4.6526,-4.5452,-4.3964,-4.2461,-4.1725,-4.1013,-4.051,-4.0612,-4.0576,-4.0424,-4.0154,-4.0096,-4.0096,-4.0096,-4.0096,-4.0096,-4.0096,-4.0096,-4.0096,-4.0096,-4.0096,-3.9876,-3.9123,-3.8396,-3.7652,-3.6914,-3.6129,-3.56,-3.56,-3.56,-3.56,-3.56,-3.56,-3.56,-3.56,-3.4928,-3.4184,-3.3457,-3.2713,-3.2307,-3.2307,-3.1935,-3.1562,-3.1207,-3.0835,-3.0463,-3.011,-3.011,-3.0277,-3.0632,-3.026,-2.9888,0.0,0.0,0.0,0.0,0.0,0.0,0.0,0.0,-4.5079,-4.691,-4.8716,-5.0692,-5.3027,-5.4746,-5.6367,-5.8105,-5.9512,-6.0469,-6.0625,-6.1269,-6.1699,-6.1699,-6.1553,-6.1424,-6.132,-6.1089,-6.0925,-6.0804,-6.08,-6.08,-6.08,-6.08,-6.08,-6.08,-6.08,-6.08,-6.08,-5.9857,-5.8582,-5.6984,-5.6038,-5.4745,-5.3185,-5.3185,-5.3185,-5.3185,-5.3185,-5.3115,-5.2913,-5.2105,-5.1279,-5.049,-4.9664,-4.8912,-4.8306,-4.8306,-4.8306,-4.8306,-4.8306,-4.7865,-4.7093,-4.5723,-4.4345,-4.2953,-4.1508,-4.0625,-4.0096,-4.0096,-4.0096,-4.0096,-4.0096,-4.0096,-4.0096,-4.0096,-4.0096,-4.0096,-4.0096,-4.0096,-4.0096,-4.0096,-4.0096,-3.9876,-3.9123,-3.8514,-3.7804,-3.6931,-3.6129,-3.56,-3.56,-3.56,-3.56,-3.56,-3.56,-3.56,-3.56,-3.5064,-3.4455,-3.3863,-3.3694,-3.3609,-3.3609,-3.2899,-3.2513,-3.2513,-3.1802,-3.141,-3.141,-3.1258,-3.1258,-3.141,-3.141,-3.1345,-4.0182,-3.9198,0.0,-4.2078,-4.2654,-4.3709,0.0,0.0,-4.9605,-5.1483,-5.3309,-5.4883,-5.5976,-5.6953,-5.8164,-5.9844,-6.0273,-6.0664,-6.1445,-6.164,-6.1699,-6.1699,-6.1488,-6.1326,-6.1309,-6.1001,-6.0827,-6.0812,-6.08,-6.08,-6.08,-6.08,-6.08,-6.08,-6.08,-6.08,-6.08,-5.9587,-5.831,-5.7003,-5.5748,-5.4481,-5.3185,-5.3185,-5.3185,-5.3185,-5.3185,-5.2803,-5.2068,-5.1261,-5.0453,-4.9665,-4.8783,-4.8398,-4.8306,-4.8306,-4.8306,-4.8306,-4.8306,-4.8251,-4.7901,-4.6323,-4.5009,-4.3771,-4.2171,-4.0938,-4.0096,-4.0096,-4.0096,-4.0096,-4.0096,-4.0096,-4.0096,-4.0096,-4.0096,-4.0096,-4.0096,-4.0096,-4.0096,-4.0096,-4.0096,-3.9876,-3.9123,-3.892,-3.8396,-3.7015,-3.6129,-3.56,-3.56,-3.56,-3.56,-3.56,-3.56,-3.56,-3.56,-3.5515,-3.543,-3.5363,-3.4742,-3.437,-3.437,-3.3677,-3.3288,-3.3288,-3.2544,-3.2175,-3.2175,-3.1532,-3.1549,-3.2175,-3.2175,-3.1836,-4.3751,0.0,0.0,0.0,-4.6717,-4.8235,-5.0059,-5.1338,-5.2489,-5.3782,-5.5538,-5.6914,-5.7285,-5.8457,-5.9569,0.0,-6.1129,-6.1725,-6.1508,-6.1969,-6.192,-6.0831,-6.1052,-6.1303,-6.1303,-6.1068,-6.0873,-6.0812,-6.08,-6.08,-6.08,-6.08,-6.08,-6.08,-6.08,-6.08,-6.08,-5.9031,-5.7752,-5.6984,-5.5189,-5.3938,-5.3185,-5.3185,-5.3185,-5.3185,-5.3185,-5.2747,-5.194,-5.1132,-5.0325,-4.9519,-4.8636,-4.8306,-4.8306,-4.8306,-4.8306,-4.8306,-4.8306,-4.8306,-4.7973,-4.6058,-4.488,-4.3828,-4.1858,-4.0744,-4.0096,-4.0096,-4.0096,-4.0096,-4.0096,-4.0096,-4.0096,-4.0096,-4.0096,-4.0096,-4.0096,-4.0096,-4.0096,-4.0096,-4.0096,-4.0011,-3.9706,-3.9276,-3.865,-3.7601,-3.6789,-3.6129,-3.565,-3.56,-3.56,-3.56,-3.56,-3.56,-3.56,-3.56,-3.56,-3.56,-3.5295,-3.5148,-3.5148,-3.4438,-3.4032,-3.4032,-3.3322,-3.2933,-3.2933,-3.2628,-3.2645,-3.2933,-3.2933,-3.2763,-4.637,0.0,0.0,-4.8526,-5.0319,-5.2167,-5.2181,-5.3403,-5.4708,-5.5384,-5.6597,-5.7617,-5.7851,-5.9042,-6.0027,-6.0182,-6.1615,-6.2386,-6.1437,-6.1938,-6.1786,-6.0183,-6.0342,-6.0655,-6.0877,-6.0924,-6.0895,-6.0804,-6.08,-6.08,-6.08,-6.08,-6.08,-6.08,-6.08,-6.0685,-6.0435,-5.844,-5.7172,-5.6628,-5.4614,-5.3484,-5.3185,-5.3185,-5.3185,-5.3206,-5.2968,-5.2417,-5.161,-5.0802,-4.9976,-4.9169,-4.8545,-4.8306,-4.8306,-4.8306,-4.8306,-4.8306,-4.8306,-4.8306,-4.7954,-4.5805,-4.4692,-4.3784,-4.1563,-4.0546,-4.0096,-4.0096,-4.0096,-4.0096,-4.0096,-4.0096,-4.0096,-4.0096,-4.0096,-4.0096,-4.0096,-4.0096,-4.0096,-4.0096,-4.0096,-4.0096,-4.0096,-3.9673,-3.9039,-3.8311,-3.7567,-3.6738,-3.5718,-3.56,-3.56,-3.56,-3.56,-3.56,-3.56,-3.56,-3.56,-3.56,-3.56,-3.56,-3.56,-3.5098,-3.4793,-3.4793,-3.4083,-3.3711,-3.3711,-3.3508,-3.3508,-3.3711,-3.3711,-3.3812,0.0,0.0,-5.0133,-5.0891,-5.2941,-5.4829,-5.4959,-5.5672,-5.637,-5.6522,-5.6601,-5.6894,-5.7734,-5.8479,-5.9218,-6.0057,-6.149,-6.2237,-6.14,-6.1328,-6.1003,-6.0114,-5.9282,-5.9063,0.0,-6.0429,-6.0793,-6.08,-6.08,-6.08,-6.08,-6.08,-6.08,-6.08,-6.08,-6.0396,-5.955,-5.7858,-5.6587,-5.5708,-5.4032,-5.3206,-5.3185,-5.3185,-5.3185,-5.317,-5.238,-5.1573,-5.0765,-4.9978,-4.9114,-4.8343,-4.8324,-4.8306,-4.8306,-4.8306,-4.8306,-4.8306,-4.8306,-4.8306,-4.7954,-4.5805,-4.4692,-4.3784,-4.1563,-4.0546,-4.0096,-4.0096,-4.0096,-4.0096,-4.0096,-4.0096,-4.0096,-4.0096,-4.0096,-4.0096,-4.0096,-4.0096,-4.0096,-4.0096,-4.0096,-4.0096,-4.0096,-4.0079,-3.9825,-3.9073,-3.8345,-3.733,-3.5802,-3.56,-3.56,-3.56,-3.56,-3.56,-3.56,-3.56,-3.56,-3.56,-3.56,-3.56,-3.56,-3.5583,-3.5566,-3.5566,-3.4844,-3.4455,-3.4455,-3.3744,-3.3778,-3.4455,-3.4455,-3.4861,0.0,0.0,-5.3003,-5.4429,-5.5847,-5.7054,-5.7688,-5.7592,-5.7418,-5.7441,-5.6928,-5.6563,-5.6855,-5.7486,-5.8209,-5.8959,-6.0937,-6.223,-6.1882,-6.2865,-6.2637,-5.9978,-6.0519,0.0,0.0,0.0,0.0,-6.0766,-6.08,-6.08,-6.08,-6.08,-6.08,-6.08,-6.0495,-5.9936,-5.9108,-5.7402,-5.6125,-5.5283,-5.3872,-5.3185,-5.3185,-5.3185,-5.3185,-5.317,-5.2344,-5.1536,-5.0747,-4.9941,-4.9077,-4.8306,-4.8306,-4.8306,-4.8306,-4.8306,-4.8306,-4.8306,-4.8306,-4.8306,-4.7877,-4.5321,-4.4373,-4.3716,-4.1161,-4.0254,-4.0096,-4.0096,-4.0096,-4.0096,-4.0096,-4.0096,-4.0096,-4.0096,-4.0096,-4.0096,-4.0096,-4.0096,-4.0096,-4.0096,-4.0096,-4.0096,-4.0096,-4.0096,-3.9859,-3.9106,-3.7956,-3.6789,-3.5735,-3.56,-3.56,-3.56,-3.56,-3.56,-3.56,-3.56,-3.56,-3.56,-3.56,-3.56,-3.56,-3.56,-3.56,-3.56,-3.5368,-3.5233,-3.5233,-3.4974,-3.4974,-3.5233,-3.5233,-3.5346,-5.1288,-5.3457,-5.5351,-5.709,-5.8164,-5.8867,-5.914,-5.8535,-5.789,-5.7846,-5.6561,-5.546,-5.5412,-5.5497,-5.6,-5.735,-5.9667,-6.1492,-6.2028,-6.3108,-6.2862,-6.0265,-6.0505,-6.0314,0.0,0.0,0.0,-6.0746,-6.08,-6.08,-6.08,-6.08,-6.08,-6.08,-6.0338,-5.9564,-5.8453,-5.7013,-5.5656,-5.4402,-5.3576,-5.3185,-5.3185,-5.3185,-5.3185,-5.313,-5.205,-5.1279,-5.071,-4.9591,-4.8802,-4.8306,-4.8306,-4.8306,-4.8306,-4.8306,-4.8306,-4.8306,-4.8306,-4.8306,-4.7858,-4.509,-4.4201,-4.3694,-4.0927,-4.0096,-4.0096,-4.0096,-4.0096,-4.0096,-4.0096,-4.0096,-4.0096,-4.0096,-4.0096,-4.0096,-4.0096,-4.0096,-4.0096,-4.0096,-4.0096,-4.0096,-4.0096,-4.0096,-3.9757,-3.8751,-3.7787,-3.6907,-3.6129,-3.5769,-3.56,-3.56,-3.56,-3.56,-3.56,-3.56,-3.56,-3.56,-3.56,-3.56,-3.56,-3.56,-3.56,-3.56,-3.56,-3.56,-3.56,-3.56,-3.56,-3.56,-3.56,-3.56,-5.4238,-5.6035,-5.7148,-5.8886,-5.9843,-6.0175,-5.9413,-5.8574,-5.7886,-5.767,-5.5533,-5.3663,0.0,0.0,-5.2903,-5.5423,-5.793,-6.0165,-6.1928,-6.2235,-6.1947,0.0,0.0,0.0,0.0,0.0,0.0,-6.0742,0.0,-6.08,-6.08,-6.0788,-6.0757,-6.0757,-6.0259,-5.9183,-5.7544,-5.6603,-5.5163,-5.3185,-5.3185,-5.3185,-5.3185,-5.3185,-5.3167,-5.3059,-5.1481,-5.0784,-5.0618,-4.8967,-4.8306,-4.8306,-4.8306,-4.8306,-4.8306,-4.8306,-4.8306,-4.8306,-4.8306,-4.8306,-4.7858,-4.509,-4.4201,-4.3694,-4.0927,-4.0096,-4.0096,-4.0096,-4.0096,-4.0096,-4.0096,-4.0096,-4.0096,-4.0096,-4.0096,-4.0096,-4.0096,-4.0096,-4.0096,-4.0096,-4.0096,-4.0096,-4.0096,-4.0096,-3.9622,-3.8176,-3.7922,-3.7618,-3.6846,-3.6079,-3.56,-3.56,-3.56,-3.56,-3.56,-3.56,-3.56,-3.56,-3.56,-3.56,-3.56,-3.56,-3.56,-3.56,-3.56,-3.56,-3.56,-3.56,-3.56,-3.56,-3.56,-3.56,-5.5625,-5.7276,-5.8736,-6.0475,-6.049,-6.0042,-5.9837,-5.9115,-5.8133,-5.6844,-5.441,-5.2336,0.0,0.0,0.0,-5.4535,-5.7998,0.0,-6.2762,-6.4109,0.0,-6.2839,0.0,-6.2339,-6.0627,-6.105,0.0,0.0,-6.08,-6.08,-6.08,-6.0469,-6.0278,-6.0278,-5.8906,-5.7659,-5.6626,-5.4867,-5.3721,-5.3185,-5.3185,-5.3185,-5.3185,-5.3185,-5.2876,-5.2252,-5.1242,-5.0453,-4.9831,-4.8746,-4.8306,-4.8306,-4.8306,-4.8306,-4.8306,-4.8306,-4.8306,-4.8306,-4.8306,-4.8306,-4.7858,-4.509,-4.4201,-4.3694,-4.0927,-4.0096,-4.0096,-4.0096,-4.0096,-4.0096,-4.0096,-4.0096,-4.0096,-4.0096,-4.0096,-4.0096,-4.0096,-4.0096,-4.0096,-4.0096,-4.0096,-4.0096,-4.0096,-4.0096,-3.9791,-3.8853,-3.8261,-3.7432,-3.6096,-3.5718,-3.56,-3.56,-3.56,-3.56,-3.56,-3.56,-3.56,-3.56,-3.56,-3.56,-3.56,-3.56,-3.56,-3.56,-3.56,-3.56,-3.56,-3.56,-3.56,-3.56,-3.56,-3.56,-5.7038,-5.8482,-5.9715,-6.1069,-6.0706,-5.981,-5.9068,-5.7939,-5.6542,-5.4793,-5.2298,0.0,0.0,0.0,0.0,0.0,0.0,0.0,-6.2962,-6.4474,-6.4974,0.0,-6.3955,0.0,-6.1531,-6.1812,-6.1735,0.0,-6.08,-6.08,-6.08,-6.0351,-6.0103,-6.0103,-5.8423,-5.6845,-5.5473,-5.3962,-5.3185,-5.3185,-5.3185,-5.3185,-5.3185,-5.3185,-5.2766,-5.1958,-5.1151,-5.0343,-4.9537,-4.8655,-4.8306,-4.8306,-4.8306,-4.8306,-4.8306,-4.8306,-4.8306,-4.8306,-4.8306,-4.8132,-4.7484,-4.5003,-4.4016,-4.3343,-4.0853,-4.0096,-4.0096,-4.0096,-4.0096,-4.0096,-4.0096,-4.0096,-4.0096,-4.0096,-4.0096,-4.0096,-4.0096,-4.0096,-4.0096,-4.0096,-4.0096,-4.0096,-4.0096,-4.0096,-3.9859,-3.9106,-3.8379,-3.7483,-3.6282,-3.5802,-3.56,-3.56,-3.56,-3.56,-3.56,-3.56,-3.56,-3.56,-3.56,-3.56,-3.56,-3.56,-3.56,-3.56,-3.56,-3.56,-3.56,-3.56,-3.56,-3.56,-3.56,-3.56,-5.8416,-5.9586,-6.0313,-6.1078,-6.0585,-5.9451,-5.7675,-5.6003,-5.4276,-5.2242,0.0,0.0,-4.7978,-4.8125,-4.9356,-5.2664,0.0,-5.9473,-6.2827,-6.4051,-6.4647,-6.4762,-6.4012,-6.3147,-6.2339,-6.2159,-6.1712,-6.0779,-6.0702,-6.0702,-6.0702,-6.0264,-5.9851,-5.9497,-5.794,-5.6158,-5.4252,-5.3555,-5.3185,-5.3185,-5.3185,-5.3185,-5.3185,-5.3096,-5.2601,-5.1793,-5.0986,-5.0178,-4.9372,-4.8618,-4.8306,-4.8306,-4.8306,-4.8306,-4.8306,-4.8306,-4.8306,-4.8288,-4.8196,-4.7692,-4.6798,-4.4836,-4.3787,-4.2891,-4.0763,-4.0096,-4.0096,-4.0096,-4.0096,-4.0096,-4.0096,-4.0096,-4.0096,-4.0096,-4.0096,-4.0096,-4.0096,-4.0096,-4.0096,-4.0096,-4.0096,-4.0096,-4.0096,-4.0096,-3.9859,-3.9106,-3.8464,-3.7787,-3.7049,-3.6163,-3.56,-3.56,-3.56,-3.56,-3.56,-3.56,-3.56,-3.56,-3.56,-3.56,-3.56,-3.56,-3.56,-3.56,-3.56,-3.56,-3.56,-3.56,-3.56,-3.56,-3.56,-3.56,-5.9488,-6.0306,-6.0863,-6.1018,-6.0316,-5.8951,-5.6551,-5.5258,0.0,0.0,0.0,-4.791,-4.7249,-4.824,0.0,-5.276,0.0,0.0,0.0,0.0,-6.4878,0.0,0.0,0.0,0.0,0.0,0.0,0.0,-6.0222,-6.0222,-6.0222,-5.9773,-5.8574,-5.6434,-5.5428,-5.4451,-5.3427,-5.328,-5.3185,-5.3185,-5.3185,-5.3185,-5.3167,-5.2509,-5.1775,-5.0967,-5.016,0.0,-4.8508,-4.8361,-4.8306,-4.8306,-4.8306,-4.8306,-4.8306,-4.8306,-4.8306,-4.8214,-4.7535,-4.6576,-4.5498,-4.4525,-4.3787,-4.2891,-4.0763,-4.0096,-4.0096,-4.0096,-4.0096,-4.0096,-4.0096,-4.0096,-4.0096,-4.0096,-4.0096,-4.0096,-4.0096,-4.0096,-4.0096,-4.0096,-4.0096,-4.0096,-4.0096,-4.0096,-3.9859,-3.9106,-3.8886,-3.8531,-3.7804,-3.6462,-3.56,-3.56,-3.56,-3.56,-3.56,-3.56,-3.56,-3.56,-3.56,-3.56,-3.56,-3.56,-3.56,-3.56,-3.56,-3.56,-3.56,-3.56,-3.56,-3.56,-3.56,-3.56,-5.9622,-6.036,-6.0843,-6.0593,-5.9496,-5.7723,-5.4712,0.0,0.0,0.0,0.0,-4.6682,-4.6297,0.0,0.0,0.0,0.0,0.0,0.0,0.0,0.0,0.0,0.0,0.0,0.0,0.0,-6.1186,-5.9849,-5.9741,-5.9741,-5.9741,-5.8888,-5.7355,-5.5067,-5.4601,-5.4014,-5.3203,-5.3185,-5.3185,-5.3185,-5.3185,-5.2986,-5.2564,-5.2179,-5.1316,-5.0141,-4.9776,-4.9095,-4.8306,-4.8306,-4.8306,-4.8306,-4.8306,-4.8306,-4.8306,-4.8306,-4.8306,-4.8196,-4.7369,-4.6298,-4.5095,-4.3948,-4.2958,-4.1937,-4.0535,-4.0096,-4.0096,-4.0096,-4.0096,-4.0096,-4.0096,-4.0096,-4.0096,-4.0096,-4.0096,-4.0096,-4.0096,-4.0096,-4.0096,-4.0096,-4.0096,-4.0096,-4.0096,-4.0096,-3.9977,-3.9639,-3.9266,-3.887,-3.8514,-3.7161,-3.6214,-3.6214,-3.5859,-3.56,-3.56,-3.56,-3.56,-3.56,-3.56,-3.56,-3.56,-3.56,-3.56,-3.56,-3.56,-3.56,-3.56,-3.56,-3.56,-3.56,-3.56,-3.56,-5.9193,-6.0007,-6.054,-6.0069,-5.869,-5.6564,-5.3175,-5.1102,0.0,0.0,0.0,-4.5513,0.0,0.0,0.0,0.0,0.0,0.0,0.0,0.0,0.0,0.0,0.0,0.0,0.0,0.0,0.0,-5.948,-5.9151,-5.8985,-5.8985,-5.7788,-5.6286,-5.4458,-5.4234,-5.3849,-5.3203,-5.3185,-5.3185,-5.3185,-5.3185,-5.2784,-5.1977,-5.1811,-5.0949,-4.9592,-4.9408,-4.893,-4.8306,-4.8306,-4.8306,-4.8306,-4.8306,-4.8306,-4.8306,-4.8306,-4.8306,-4.8159,-4.7168,-4.6065,-4.4794,-4.3253,-4.2043,-4.1068,-4.0333,-4.0096,-4.0096,-4.0096,-4.0096,-4.0096,-4.0096,-4.0096,-4.0096,-4.0096,-4.0096,-4.0096,-4.0096,-4.0096,-4.0096,-4.0096,-4.0096,-4.0096,-4.0096,-4.0096,-4.0096,-4.0096,-3.9622,-3.9225,-3.9225,-3.8099,-3.7218,-3.7066,-3.618,-3.56,-3.56,-3.56,-3.56,-3.56,-3.56,-3.56,-3.56,-3.56,-3.56,-3.56,-3.56,-3.56,-3.56,-3.56,-3.56,-3.56,-3.56,-3.56,-5.8227,-5.9239,-6.0055,-5.9595,-5.8195,-5.6099,-5.281,0.0,0.0,0.0,-4.5159,-4.5232,-4.5531,0.0,0.0,0.0,0.0,0.0,0.0,0.0,0.0,0.0,0.0,0.0,0.0,0.0,-5.9977,-5.9443,-5.8334,-5.7674,-5.7674,-5.6462,-5.5346,-5.4418,-5.3702,-5.328,-5.3185,-5.3185,-5.3185,-5.3185,-5.3185,-5.2784,-5.1977,-5.1242,-5.0417,-4.9555,-4.8765,-4.8379,0.0,-4.8306,-4.8306,-4.8306,-4.8306,-4.8306,-4.8306,-4.8306,-4.8306,-4.8086,-4.6544,-4.5271,-4.4037,-4.2434,-4.158,-4.1068,-4.0333,-4.0096,-4.0096,-4.0096,-4.0096,-4.0096,-4.0096,-4.0096,-4.0096,-4.0096,-4.0096,-4.0096,-4.0096,-4.0096,-4.0096,-4.0096,-4.0096,-4.0096,-4.0096,-4.0096,-4.0096,-4.0096,-4.0045,-3.9994,-3.9994,-3.9317,-3.8531,-3.7872,-3.6462,-3.56,-3.56,-3.56,-3.56,-3.56,-3.56,-3.56,-3.56,-3.56,-3.56,-3.56,-3.56,-3.56,-3.56,-3.56,-3.56,-3.56,-3.56,-3.56,-5.7739,-5.8918,-5.9578,-5.9103,-5.7754,-5.5656,-5.2345,0.0,0.0,-4.5669,-4.5096,-4.5201,-4.555,-4.5874,0.0,0.0,0.0,0.0,0.0,0.0,0.0,0.0,0.0,0.0,0.0,0.0,-5.8859,-5.7903,-5.7376,-5.6657,-5.5699,-5.5153,-5.4509,-5.3702,-5.3369,-5.3185,-5.3185,-5.3185,-5.2968,-5.2472,-5.2472,-5.1793,-5.0547,-5.0215,-4.9609,-4.8802,-4.8453,-4.8306,0.0,-4.8306,-4.8306,-4.8306,-4.8306,-4.8306,-4.8306,-4.8306,-4.8306,-4.8029,-4.6094,-4.488,-4.3886,-4.1893,-4.0927,-4.0485,-4.0197,-4.0096,-4.0096,-4.0096,-4.0096,-4.0096,-4.0096,-4.0096,-4.0096,-4.0096,-4.0096,-4.0096,-4.0096,-4.0096,-4.0096,-4.0096,-4.0096,-4.0096,-4.0096,-4.0096,-4.0096,-4.0096,-4.0096,-4.0096,-4.0096,-3.9469,-3.8717,-3.799,-3.6958,-3.6129,-3.5633,-3.56,-3.56,-3.56,-3.56,-3.56,-3.56,-3.56,-3.56,-3.56,-3.56,-3.56,-3.56,-3.56,-3.56,-3.56,-3.56,-3.56,-5.6797,-5.8108,-5.8728,-5.8258,-5.6928,-5.4868,0.0,0.0,-4.7671,-4.5281,-4.4865,-4.5044,-4.54,-4.5522,-4.5568,0.0,0.0,0.0,0.0,0.0,0.0,0.0,0.0,-5.7548,0.0,-5.862,-5.8215,-5.7091,-5.6793,-5.6037,-5.4693,-5.4267,-5.3794,-5.3203,-5.3185,-5.3185,-5.3185,-5.2968,-5.2564,-5.1995,-5.1756,-5.0912,-4.961,-4.961,-4.9114,-4.8306,-4.8306,-4.8306,0.0,-4.8306,-4.8306,-4.8306,-4.8306,-4.8306,-4.8306,-4.8306,-4.8191,-4.7758,-4.5782,-4.4607,-4.3592,-4.1551,-4.0546,-4.0096,-4.0096,-4.0096,-4.0096,-4.0096,-4.0096,-4.0096,-4.0096,-4.0096,-4.0096,-4.0096,-4.0096,-4.0096,-4.0096,-4.0096,-4.0096,-4.0096,-4.0096,-4.0096,-4.0096,-4.0096,-4.0096,-4.0096,-4.0096,-4.0096,-4.0096,-3.9656,-3.9039,-3.8311,-3.7567,-3.6705,-3.5684,-3.56,-3.56,-3.56,-3.56,-3.56,-3.56,-3.56,-3.56,-3.56,-3.56,-3.56,-3.56,-3.56,-3.56,-3.56,-3.56,-3.56,-5.5107,-5.6559,-5.7401,-5.6941,-5.5611,-5.3576,0.0,-4.8269,-4.6543,-4.4445,-4.4318,-4.4714,-4.5052,-4.539,-4.5495,0.0,0.0,0.0,0.0,0.0,0.0,0.0,0.0,-5.3841,-5.4856,-5.7219,-5.8359,-5.7558,-5.6758,0.0,-5.5137,-5.3904,-5.3203,-5.3185,-5.3185,-5.3185,-5.3185,-5.2417,-5.1995,-5.1977,-5.1187,-5.038,-4.961,-4.961,-4.9114,-4.8306,-4.8306,-4.8306,0.0,-4.8306,-4.8306,-4.8306,-4.8306,-4.8306,-4.8306,-4.8306,-4.7917,-4.719,-4.5642,-4.4307,-4.3031,-4.1423,-4.0546,-4.0096,-4.0096,-4.0096,-4.0096,-4.0096,-4.0096,-4.0096,-4.0096,-4.0096,-4.0096,-4.0096,-4.0096,-4.0096,-4.0096,-4.0096,-4.0096,-4.0096,-4.0096,-4.0096,-4.0096,-4.0096,-4.0096,-4.0096,-4.0096,-4.0096,-4.0096,-4.0096,-3.9808,-3.9056,-3.8328,-3.728,-3.5718,-3.56,-3.56,-3.56,-3.56,-3.56,-3.56,-3.56,-3.56,-3.56,-3.56,-3.56,-3.56,-3.56,-3.56,-3.56,-3.56,-3.56,-5.1156,-5.2598,-5.3584,-5.2863,-5.1903,-5.0545,-4.8361,-4.704,-4.5844,-4.4333,-4.4102,-4.4373,-4.4988,-4.4703,-4.4795,-4.6129,0.0,0.0,0.0,0.0,0.0,0.0,-5.5062,-5.6673,0.0,0.0,-5.7073,-5.6261,-5.5449,-5.4638,-5.3826,-5.3419,-5.3185,-5.3185,-5.3185,-5.3185,-5.3185,-5.2399,-5.172,-5.1169,-5.0362,-4.9517,-4.871,-4.871,-4.8563,-4.8306,-4.8306,-4.8306,-4.8306,-4.8306,-4.8306,-4.8306,-4.8306,-4.8306,-4.8306,-4.8306,-4.7591,-4.6446,-4.4986,-4.3636,-4.2323,-4.084,-4.0254,-4.0096,-4.0096,-4.0096,-4.0096,-4.0096,-4.0096,-4.0096,-4.0096,-4.0096,-4.0096,-4.0096,-4.0096,-4.0096,-4.0096,-4.0096,-4.0096,-4.0096,-4.0096,-4.0096,-4.0096,-4.0096,-4.0096,-4.0096,-4.0096,-4.0096,-4.0096,-3.9673,-3.9242,-3.9005,-3.8345,-3.7499,-3.6502,-3.5926,-3.56,-3.56,-3.56,-3.56,-3.56,-3.56,-3.56,-3.56,-3.56,-3.56,-3.56,-3.56,-3.56,-3.56,-3.56,-3.56,0.0,-5.0326,-5.0987,-5.0472,-4.9719,-4.8673,-4.7021,-4.603,-4.5129,-4.4034,-4.3909,-4.4053,-4.421,-4.3876,-4.3981,-4.5155,0.0,0.0,0.0,0.0,0.0,-5.1621,0.0,0.0,0.0,-5.6914,-5.6473,-5.5647,-5.484,-5.4051,-5.3243,-5.3185,-5.3185,-5.3185,-5.3185,-5.3059,-5.2747,-5.194,-5.1132,-5.0343,-4.9499,-4.882,-4.8306,-4.8306,-4.8306,-4.8306,-4.8306,-4.8306,0.0,-4.8306,-4.8306,-4.8306,-4.8306,-4.8306,-4.8269,-4.7957,-4.7034,-4.5695,-4.4258,-4.2911,-4.1641,-4.0484,-4.0096,-4.0096,-4.0096,-4.0096,-4.0096,-4.0096,-4.0096,-4.0096,-4.0096,-4.0096,-4.0096,-4.0096,-4.0096,-4.0096,-4.0096,-4.0096,-4.0096,-4.0096,-4.0096,-4.0096,-4.0096,-4.0096,-4.0096,-4.0096,-4.0096,-4.0096,-4.0096,-3.9706,-3.9436,-3.9436,-3.8751,-3.8125,-3.7675,-3.6654,-3.5926,-3.5616,-3.56,-3.56,-3.56,-3.56,-3.56,-3.56,-3.56,-3.56,-3.56,-3.56,-3.56,-3.56,-3.56,-3.56,0.0,-4.9206,-4.9243,-4.9188,-4.8563,-4.7572,-4.6067,-4.5149,0.0,-4.3662,-4.3703,-4.3688,-4.3006,-4.3042,-4.3124,-4.3015,0.0,0.0,0.0,0.0,0.0,0.0,-5.3502,0.0,-5.5636,-5.6308,-5.6381,-5.5574,-5.4766,-5.3995,-5.3243,-5.3185,-5.3167,-5.3112,-5.3115,-5.2766,-5.1995,-5.1151,-5.0343,-4.9592,-4.8728,-4.8306,-4.8306,-4.8306,-4.8306,0.0,-4.8306,-4.8306,-4.8306,-4.8306,-4.8306,-4.8306,-4.8306,-4.8269,-4.8122,-4.7369,-4.6284,-4.4918,-4.3505,-4.2171,-4.1018,-4.0333,-4.0096,-4.0096,-4.0096,-4.0096,-4.0096,-4.0096,-4.0096,-4.0096,-4.0096,-4.0096,-4.0096,-4.0096,-4.0096,-4.0096,-4.0096,-4.0096,-4.0096,-4.0096,-4.0096,-4.0096,-4.0096,-4.0096,-4.0096,-4.0096,-4.0096,-4.0096,-4.0096,-4.0062,-4.0045,-4.0096,-3.9453,-3.8988,-3.8988,-3.7709,-3.6552,-3.5802,-3.5752,-3.5735,-3.5684,-3.5735,-3.5701,-3.56,-3.56,-3.56,-3.56,-3.56,-3.56,-3.56,-3.56,-3.56,-4.4726,0.0,-4.57,-4.5094,-4.4782,-4.4525,0.0,0.0,0.0,0.0,0.0,0.0,0.0,0.0,0.0,0.0,0.0,0.0,-4.7231,0.0,0.0,-5.4252,-5.6143,-5.7063,-5.6565,-5.6124,-5.5537,-5.473,-5.394,-5.3387,-5.3203,-5.3185,-5.2931,-5.2307,-5.227,-5.2179,-5.1995,-5.0602,-4.9794,-4.9592,-4.8728,-4.8306,-4.8306,-4.8306,-4.8306,-4.8306,-4.8306,-4.8306,-4.8306,-4.8306,-4.8306,-4.8306,-4.8306,-4.7921,-4.7351,-4.7168,-4.5578,-4.3505,-4.3133,-4.1847,-4.0333,-4.0163,-4.0096,-4.0096,-4.0096,-4.0096,-4.0096,-4.0096,-4.0096,-4.0096,-4.0096,-4.0096,-4.0096,-4.0096,-4.0096,-4.0096,-4.0096,-4.0096,-4.0096,-4.0096,-4.0096,-4.0096,-4.0096,-4.0096,-4.0096,-4.0096,-4.0096,-4.0096,-4.0096,-3.9622,-3.9462,-4.0045,-3.9453,-3.8988,-3.8988,-3.8159,-3.7567,-3.7381,-3.7364,-3.711,-3.6535,-3.706,-3.6783,-3.5616,-3.56,-3.56,-3.56,-3.56,-3.56,-3.56,-3.56,-3.56,-4.3515,-4.4085,-4.4617,-4.4158,-4.4048,-4.4048,0.0,0.0,0.0,0.0,0.0,0.0,0.0,0.0,0.0,0.0,0.0,0.0,0.0,0.0,-5.4344,-5.5959,-5.6914,-5.7281,0.0,-5.5739,-5.4858,-5.4436,-5.3665,-5.3185,-5.3185,-5.2858,-5.2454,-5.1995,-5.1281,-5.0914,-5.0914,-5.0051,-4.9408,-4.8985,-4.8526,-4.8306,-4.8306,-4.8306,-4.8306,-4.8306,-4.8306,-4.8306,-4.8306,-4.8306,-4.8306,-4.8269,-4.7902,-4.7327,-4.6641,-4.5893,-4.4366,-4.257,-4.2184,-4.119,-4.0096,-4.0096,-4.0096,-4.0096,-4.0096,-4.0096,-4.0096,-4.0096,-4.0096,-4.0096,-4.0096,-4.0096,-4.0096,-4.0096,-4.0096,-4.0096,-4.0096,-4.0096,-4.0096,-4.0096,-4.0096,-4.0096,-4.0096,-4.0096,-4.0096,-4.0096,-4.0096,-4.0096,-4.0096,-3.9757,-3.9673,-4.0062,-3.9757,-3.9495,-3.9495,-3.914,-3.8616,-3.7939,-3.7905,-3.7719,-3.7313,-3.7347,-3.684,-3.5616,-3.596,-3.5977,-3.56,-3.56,-3.56,-3.56,-3.56,-3.56,-4.3662,-4.4268,-4.4837,-4.458,-4.4525,-4.4525,0.0,0.0,0.0,0.0,0.0,0.0,0.0,0.0,0.0,0.0,0.0,0.0,-5.0527,-5.3041,-5.5005,-5.662,-5.6804,0.0,-5.6638,-5.5262,-5.4344,-5.4234,-5.3592,-5.3185,-5.3185,-5.2435,-5.194,-5.1811,-5.0381,-4.9537,-4.9408,-4.9408,-4.9022,-4.8306,-4.8306,-4.8306,-4.8306,-4.8306,-4.8306,-4.8306,0.0,0.0,-4.8306,-4.8306,-4.8233,-4.8048,-4.7369,-4.6663,-4.5888,-4.4431,-4.3163,-4.2003,-4.1092,-4.0473,-4.0096,-4.0096,-4.0096,-4.0096,-4.0096,-4.0096,-4.0096,-4.0096,-4.0096,-4.0096,-4.0096,-4.0096,-4.0096,-4.0096,-4.0096,-4.0096,-4.0096,-4.0096,-4.0096,-4.0096,-4.0096,-4.0096,-4.0096,-4.0096,-4.0096,-4.0096,-4.0096,-4.0096,-4.0096,-4.0096,-4.0096,-4.0096,-4.0096,-4.0096,-4.0096,-4.0096,-3.9571,-3.8311,-3.8244,-3.8244,-3.8244,-3.7415,-3.6654,-3.5955,-3.6502,-3.64,-3.56,-3.56,-3.56,-3.56,-3.56,-3.56,-4.4342,-4.5112,-4.5388,-4.4011,-4.3681,-4.3681,0.0,0.0,0.0,0.0,0.0,0.0,0.0,0.0,0.0,0.0,0.0,-4.9627,0.0,0.0,-5.5005,-5.662,0.0,-5.6528,-5.5849,-5.4932,-5.4124,-5.3445,-5.328,-5.3185,-5.3185,-5.2435,-5.1683,-5.1004,-5.0068,-4.9262,-4.8508,-4.8508,-4.8434,-4.8306,-4.8306,-4.8306,-4.8306,-4.8306,-4.8306,-4.8306,0.0,-4.8306,-4.8306,-4.8306,-4.7901,-4.7278,-4.7149,-4.6213,-4.4858,-4.4151,-4.3036,-4.171,-4.0604,-4.0154,-4.0096,-4.0096,-4.0096,-4.0096,-4.0096,-4.0096,-4.0096,-4.0096,-4.0096,-4.0096,-4.0096,-4.0096,-4.0096,-4.0096,-4.0096,-4.0096,-4.0096,-4.0096,-4.0096,-4.0096,-4.0096,-4.0096,-4.0096,-4.0096,-4.0096,-4.0096,-4.0096,-4.0096,-4.0096,-4.0096,-4.0096,-4.0096,-4.0096,-4.0096,-4.0096,-4.0096,-4.0011,-3.9791,-3.9774,-3.9774,-3.9774,-3.8447,-3.7669,-3.7567,-3.7043,-3.64,-3.56,-3.56,-3.56,-3.56,-3.56,-3.56,-4.3828,-4.3993,-4.4085,-4.4654,-4.5112,0.0,0.0,0.0,0.0,0.0,0.0,0.0,0.0,0.0,0.0,0.0,0.0,-5.2234,-5.4216,-5.5188,-5.6124,0.0,0.0,-5.5996,-5.5651,-5.4473,-5.361,-5.3222,-5.3185,-5.3023,-5.2564,-5.1793,-5.0967,-5.0178,-4.9334,-4.871,-4.8306,-4.7995,-4.7818,-4.7797,-4.7449,-4.7263,-4.7302,-4.7656,-4.7818,-4.7818,0.0,-4.8048,-4.7645,-4.7645,-4.7186,-4.6416,-4.5957,-4.4983,-4.3618,-4.2309,-4.1441,-4.0814,-4.0279,-4.0096,-4.0096,-4.0096,-4.0096,-4.0096,-4.0096,-4.0096,-4.0096,-4.0096,-4.0096,-4.0096,-4.0096,-4.0096,-4.0096,-4.0096,-4.0096,-4.0096,-4.0096,-4.0096,-4.0096,-4.0096,-4.0096,-4.0096,-4.0096,-4.0096,-4.0096,-4.0096,-4.0096,-4.0096,-4.0096,-4.0096,-4.0096,-4.0096,-4.0096,-4.0096,-4.0096,-4.0096,-4.0096,-4.0096,-4.0096,-3.9926,-3.9537,-3.9225,-3.8514,-3.733,-3.7347,-3.6806,-3.56,-3.56,-3.56,-3.56,-3.56,-3.56,-4.3277,-4.297,-4.2774,0.0,0.0,0.0,0.0,0.0,0.0,0.0,0.0,0.0,0.0,0.0,0.0,0.0,-5.2333,-5.4051,-5.5647,-5.6418,-5.6978,-5.7426,-5.6214,-5.5218,-5.4861,-5.3522,-5.2702,-5.2702,-5.2539,-5.224,-5.1767,-5.0819,-5.0076,-4.961,-4.8746,-4.823,-4.8075,-4.747,-4.7237,-4.7385,-4.671,-4.6407,-4.643,-4.6932,-4.7172,-4.7176,-4.7618,-4.7453,-4.6887,-4.6837,-4.6342,-4.5535,-4.4803,-4.3684,-4.2343,-4.0848,-4.0204,-4.0096,-4.0096,-4.0096,-4.0096,-4.0096,-4.0096,-4.0096,-4.0096,-4.0096,-4.0096,-4.0096,-4.0096,-4.0096,-4.0096,-4.0096,-4.0096,-4.0096,-4.0096,-4.0096,-4.0096,-4.0096,-4.0096,-4.0096,-4.0096,-4.0096,-4.0096,-4.0096,-4.0096,-4.0096,-4.0096,-4.0096,-4.0096,-4.0096,-4.0096,-4.0096,-4.0096,-4.0096,-4.0096,-4.0096,-4.0096,-4.0096,-4.0096,-3.9774,-3.9022,-3.9529,-3.8877,-3.6846,-3.7347,-3.6975,-3.56,-3.56,-3.56,-3.56,-3.56,-3.56,-4.3277,-4.3087,0.0,0.0,0.0,0.0,0.0,0.0,0.0,0.0,0.0,0.0,0.0,0.0,0.0,-5.0692,-5.2868,-5.4876,-5.6492,0.0,-5.658,-5.6029,-5.5195,-5.4118,-5.2695,-5.1764,-5.1241,-5.1241,-5.0627,-5.0448,-5.094,-4.9581,-4.9026,-4.9572,-4.8746,-4.8035,-4.747,-4.6801,-4.6778,-4.7385,-4.671,-4.6407,-4.6407,-4.6454,-4.6478,-4.6466,-4.6378,-4.6326,-4.6259,-4.6063,-4.5516,-4.4729,-4.4156,-4.2774,-4.1019,-4.0897,-4.0546,-4.0096,-4.0096,-4.0096,-4.0096,-4.0096,-4.0096,-4.0096,-4.0096,-4.0096,-4.0096,-4.0096,-4.0096,-4.0096,-4.0096,-4.0096,-4.0096,-4.0096,-4.0096,-4.0096,-4.0096,-4.0096,-4.0096,-4.0096,-4.0096,-4.0096,-4.0096,-4.0096,-4.0096,-4.0096,-4.0096,-4.0096,-4.0096,-4.0096,-4.0096,-4.0096,-4.0096,-4.0096,-4.0096,-4.0096,-4.0096,-4.0096,-4.0096,-3.9774,-3.9022,-3.9039,-3.8345,-3.6829,-3.6846,-3.6451,-3.56,-3.56,-3.56,-3.56,-3.56,-3.56,-4.2543,-4.2625,0.0,0.0,0.0,0.0,0.0,0.0,0.0,0.0,0.0,0.0,0.0,0.0,0.0,-5.1344,-5.29,-5.4341,-5.5892,-5.571,-5.5343,-5.5089,-5.3929,-5.2951,-5.236,-5.1572,-5.1086,-5.1086,-5.0421,-4.9891,-4.9614,-4.8603,-4.7916,-4.7617,-4.7294,-4.7021,-4.6778,-4.6143,-4.5982,-4.6209,-4.5571,-4.5267,-4.5294,-4.5673,-4.5578,-4.5156,-4.5496,-4.5301,-4.4752,-4.4699,-4.4177,-4.3374,-4.2406,-4.1558,-4.0856,-4.0546,-4.0262,-4.0096,-4.0096,-4.0096,-4.0096,-4.0096,-4.0096,-4.0096,-4.0096,-4.0096,-4.0096,-4.0096,-4.0096,-4.0096,-4.0096,-4.0096,-4.0096,-4.0096,-4.0096,-4.0096,-4.0096,-4.0096,-4.0096,-4.0096,-4.0096,-4.0096,-4.0096,-4.0096,-4.0096,-4.0096,-4.0096,-4.0096,-4.0096,-4.0096,-4.0096,-4.0096,-4.0096,-4.0096,-4.0096,-4.0096,-4.0096,-4.0096,-4.0096,-3.9774,-3.9022,-3.8988,-3.8319,-3.6829,-3.6795,-3.64,-3.56,-3.56,-3.56,-3.56,-3.56,-3.56,-4.1777,-4.1844,0.0,0.0,0.0,0.0,0.0,0.0,0.0,0.0,0.0,0.0,0.0,0.0,0.0,0.0,-5.2394,-5.3505,-5.4825,-5.4581,-5.4095,-5.3598,-5.2637,-5.1806,-5.1312,-5.0749,-5.0347,-5.0103,-4.9414,-4.8732,-4.8149,-4.7417,-4.6822,-4.6425,-4.6407,-4.6312,-4.6136,-4.5707,-4.5286,-4.4827,-4.4429,-4.4333,-4.4598,-4.4768,-4.4578,-4.4096,-4.4229,-4.393,-4.3343,-4.3476,-4.3084,-4.2322,-4.1291,-4.0803,-4.0601,-4.0229,-4.0096,-4.0096,-4.0096,-4.0096,-4.0096,-4.0096,-4.0096,-4.0096,-4.0096,-4.0096,-4.0096,-4.0096,-4.0096,-4.0096,-4.0096,-4.0096,-4.0096,-4.0096,-4.0096,-4.0096,-4.0096,-4.0096,-4.0096,-4.0096,-4.0096,-4.0096,-4.0096,-4.0096,-4.0096,-4.0096,-4.0096,-4.0096,-4.0096,-4.0096,-4.0096,-4.0096,-4.0096,-4.0096,-4.0096,-3.9893,-3.9757,-3.9757,-3.9537,-3.9174,-3.8667,-3.843,-3.7702,-3.6434,-3.6417,-3.6146,-3.56,-3.56,-3.56,-3.56,-3.56,-3.56,-4.1127,-4.0834,0.0,0.0,0.0,0.0,0.0,0.0,0.0,0.0,0.0,0.0,0.0,0.0,0.0,-4.9829,-5.1312,-5.2564,-5.3362,-5.3468,-5.2931,-5.1471,-5.1269,-5.0671,-4.9161,-4.9001,-4.8697,-4.7939,-4.7208,-4.6715,-4.6619,-4.5884,-4.5757,-4.6359,-4.6383,-4.6112,-4.5511,-4.5485,-4.4783,-4.3392,-4.3392,-4.3809,-4.4564,-4.3758,-4.3375,-4.3345,-4.2463,-4.2085,-4.2135,-4.2519,-4.2342,-4.1729,-4.1133,-4.0577,-4.0096,-4.0096,-4.0096,-4.0096,-4.0096,-4.0096,-4.0096,-4.0096,-4.0096,-4.0096,-4.0096,-4.0096,-4.0096,-4.0096,-4.0096,-4.0096,-4.0096,-4.0096,-4.0096,-4.0096,-4.0096,-4.0096,-4.0096,-4.0096,-4.0096,-4.0096,-4.0096,-4.0096,-4.0096,-4.0096,-4.0096,-4.0096,-4.0096,-4.0096,-4.0096,-4.0096,-4.0096,-4.0096,-4.0096,-4.0096,-4.0096,-3.9436,-3.8988,-3.9005,-3.8311,-3.7889,-3.7889,-3.7178,-3.6417,-3.5616,-3.56,-3.56,-3.56,-3.56,-3.56,-3.56,-3.56,-3.56,-3.9979,0.0,0.0,0.0,0.0,0.0,0.0,0.0,0.0,0.0,0.0,0.0,0.0,0.0,0.0,-4.9197,-5.0114,-5.1016,-5.1777,-5.1435,-5.0935,-5.052,-5.0011,-4.9498,-4.9049,-4.8545,-4.8125,-4.7906,-4.6752,-4.5992,-4.5965,-4.5261,-4.4944,-4.5142,-4.5125,-4.5052,-4.4852,-4.4869,-4.4368,-4.3392,-4.3392,-4.325,-4.2963,-4.2726,-4.2337,-4.183,-4.158,-4.1386,-4.1273,-4.1378,-4.1578,-4.1686,-4.072,-4.0254,-4.0096,-4.0096,-4.0096,-4.0096,-4.0096,-4.0096,-4.0096,-4.0096,-4.0096,-4.0096,-4.0096,-4.0096,-4.0096,-4.0096,-4.0096,-4.0096,-4.0096,-4.0096,-4.0096,-4.0096,-4.0096,-4.0096,-4.0096,-4.0096,-4.0096,-4.0096,-4.0096,-4.0096,-4.0096,-4.0096,-4.0096,-4.0096,-4.0096,-4.0096,-4.0096,-4.0096,-4.0096,-4.0096,-4.0096,-4.0096,-4.0096,-3.9436,-3.9208,-3.974,-3.8115,-3.7134,-3.7134,-3.6931,-3.6417,-3.5616,-3.56,-3.56,-3.56,-3.56,-3.56,-3.56,-3.56,-3.56,0.0,0.0,0.0,0.0,0.0,0.0,0.0,0.0,0.0,0.0,0.0,0.0,0.0,-4.9171,0.0,-4.8912,-4.9371,-4.9831,-5.0266,-4.9937,-4.9661,-4.9661,-4.9018,-4.8578,-4.8578,-4.7902,-4.7344,-4.7043,-4.621,-4.5568,-4.528,-4.4852,-4.4615,-4.4615,-4.4615,-4.4615,-4.4615,-4.4265,-4.3724,-4.2963,-4.2675,-4.2151,-4.145,-4.1728,-4.1627,-4.1187,-4.1129,-4.1157,-4.1246,-4.0995,-4.1268,-4.1703,-4.0563,-4.0096,-4.0096,-4.0096,-4.0096,-4.0096,-4.0096,-4.0096,-4.0096,-4.0096,-4.0096,-4.0096,-4.0096,-4.0096,-4.0096,-4.0096,-4.0096,-4.0096,-4.0096,-4.0096,-4.0096,-4.0096,-4.0096,-4.0096,-4.0096,-4.0096,-4.0096,-4.0096,-4.0096,-4.0096,-4.0096,-4.0096,-4.0096,-4.0096,-4.0096,-4.0096,-4.0096,-4.0096,-4.0096,-4.0096,-4.0096,-4.0096,-4.0096,-3.9436,-3.9056,-3.9208,-3.7709,-3.666,-3.6332,-3.6315,-3.6096,-3.56,-3.56,-3.56,-3.56,-3.56,-3.56,-3.56,-3.56,-3.56,0.0,0.0,0.0,0.0,0.0,0.0,0.0,0.0,0.0,0.0,0.0,0.0,-5.0997,-4.9475,-4.8308,-4.89,-4.9001,-4.9001,-4.9001,-4.8951,-4.89,-4.89,-4.8257,-4.7787,-4.7787,-4.7141,-4.6413,-4.5754,-4.5652,-4.5314,-4.4649,-4.4615,-4.4615,-4.4615,-4.453,-4.4496,-4.4496,-4.3707,-4.2929,-4.2185,-4.1525,-4.0798,-4.013,-4.0781,-4.1102,-4.1077,-4.0893,-4.1201,-4.175,-4.1155,-4.1268,-4.1686,-4.0594,-4.0146,-4.0096,-4.0096,-4.0096,-4.0096,-4.0096,-4.0096,-4.0096,-4.0096,-4.0096,-4.0096,-4.0096,-4.0096,-4.0096,-4.0096,-4.0096,-4.0096,-4.0096,-4.0096,-4.0096,-4.0096,-4.0096,-4.0096,-4.0096,-4.0096,-4.0096,-4.0096,-4.0096,-4.0096,-4.0096,-4.0096,-4.0096,-4.0096,-4.0096,-4.0096,-4.0096,-4.0096,-4.0096,-4.0096,-4.0096,-4.0096,-4.0096,-3.9343,-3.8633,-3.8041,-3.7178,-3.64,-3.5735,-3.5633,-3.56,-3.56,-3.56,-3.56,-3.56,-3.56,-3.56,-3.56,-3.56,-3.56,0.0,0.0,0.0,0.0,0.0,0.0,0.0,0.0,0.0,0.0,0.0,-5.0845,-5.0405,-4.9949,-4.9492,-4.9069,-4.9001,-4.9001,-4.9001,-4.8511,-4.8125,-4.8125,-4.7496,-4.7039,-4.7039,-4.6363,-4.5872,-4.572,-4.5162,-4.4784,-4.4615,-4.4615,-4.4615,-4.4615,-4.3995,-4.3673,-4.3673,-4.2912,-4.2168,-4.1441,-4.1288,-4.0798,-4.0113,-4.0265,-4.035,-4.0333,-4.0297,-4.0844,-4.175,-4.1155,-4.1268,-4.1746,-4.1013,-4.0473,-4.0096,-4.0096,-4.0096,-4.0096,-4.0096,-4.0096,-4.0096,-4.0096,-4.0096,-4.0096,-4.0096,-4.0096,-4.0096,-4.0096,-4.0096,-4.0096,-4.0096,-4.0096,-4.0096,-4.0096,-4.0096,-4.0096,-4.0096,-4.0096,-4.0096,-4.0096,-4.0096,-4.0096,-4.0096,-4.0096,-4.0096,-4.0096,-4.0096,-4.0096,-4.0096,-4.0096,-4.0096,-4.0096,-4.0096,-4.0096,-4.0096,-3.8886,-3.8328,-3.8734,-3.6941,-3.6062,-3.6502,-3.5943,-3.56,-3.56,-3.56,-3.56,-3.56,-3.56,-3.56,-3.56,-3.56,-3.56,0.0,0.0,0.0,0.0,0.0,0.0,0.0,0.0,0.0,0.0,0.0,-5.0557,-5.0168,-4.9796,-4.9441,-4.9069,-4.9001,-4.8883,-4.8528,-4.8125,-4.7753,-4.7428,-4.6718,-4.6261,-4.6261,-4.5602,-4.5162,-4.5162,-4.4835,-4.4615,-4.4615,-4.4615,-4.4429,-4.4045,-4.3639,-4.325,-4.2878,-4.2134,-4.1576,-4.1204,-4.0832,-4.046,-4.0096,-4.0096,-4.0096,-4.0121,-4.0368,-4.0821,-4.138,-4.1335,-4.1358,-4.1335,-4.1018,-4.0577,-4.0096,-4.0096,-4.0096,-4.0096,-4.0096,-4.0096,-4.0096,-4.0096,-4.0096,-4.0096,-4.0096,-4.0096,-4.0096,-4.0096,-4.0096,-4.0096,-4.0096,-4.0096,-4.0096,-4.0096,-4.0096,-4.0096,-4.0096,-4.0096,-4.0096,-4.0096,-4.0096,-4.0096,-4.0096,-4.0096,-4.0096,-4.0096,-4.0096,-4.0096,-4.0096,-4.0096,-4.0096,-4.0096,-4.0096,-4.0096,-4.0096,-3.9056,-3.8447,-3.8464,-3.7026,-3.618,-3.6214,-3.5802,-3.56,-3.56,-3.56,-3.56,-3.56,-3.56,-3.56,-3.56,-3.56,-3.56,0.0,0.0,0.0,0.0,0.0,0.0,0.0,0.0,0.0,0.0,-4.9492,-4.9898,-4.9898,-4.9407,-4.8968,-4.8832,-4.8815,-4.8562,-4.7804,-4.7584,-4.731,-4.6667,-4.5957,-4.5517,-4.5517,-4.4942,-4.4615,-4.4615,-4.4615,-4.4547,-4.4412,-4.4384,-4.4028,-4.325,-4.3071,-4.2743,-4.2117,-4.1373,-4.1018,-4.1001,-4.0375,-4.0096,-4.0096,-4.0096,-4.0096,-4.0121,-4.0577,-4.081,-4.0949,-4.1446,-4.1358,-4.0903,-4.0903,-4.0577,-4.0096,-4.0096,-4.0096,-4.0096,-4.0096,-4.0096,-4.0096,-4.0096,-4.0096,-4.0096,-4.0096,-4.0096,-4.0096,-4.0096,-4.0096,-4.0096,-4.0096,-4.0096,-4.0096,-4.0096,-4.0096,-4.0096,-4.0096,-4.0096,-4.0096,-4.0096,-4.0096,-4.0096,-4.0096,-4.0096,-4.0096,-4.0096,-4.0096,-4.0096,-4.0096,-4.0096,-4.0096,-4.0096,-4.0096,-4.0045,-3.9926,-3.9225,-3.8497,-3.777,-3.7009,-3.6282,-3.5616,-3.56,-3.56,-3.56,-3.56,-3.56,-3.56,-3.56,-3.56,-3.56,-3.56,-3.56,0.0,0.0,0.0,0.0,0.0,0.0,0.0,0.0,0.0,0.0,-4.9086,-4.9154,-4.9154,-4.9069,-4.8798,-4.8142,-4.8041,-4.78,-4.7056,-4.6397,-4.5974,-4.5872,-4.5196,-4.475,-4.475,-4.4666,-4.4615,-4.4615,-4.4615,-4.4282,-4.3606,-4.3572,-4.3234,-4.2472,-4.183,-4.1457,-4.1356,-4.0637,-4.0248,-4.0248,-4.0146,-4.0096,-4.0096,-4.0096,-4.0096,-4.0096,-4.0196,-4.0473,-4.0903,-4.0995,-4.0972,-4.0903,-4.0903,-4.0577,-4.0096,-4.0096,-4.0096,-4.0096,-4.0096,-4.0096,-4.0096,-4.0096,-4.0096,-4.0096,-4.0096,-4.0096,-4.0096,-4.0096,-4.0096,-4.0096,-4.0096,-4.0096,-4.0096,-4.0096,-4.0096,-4.0096,-4.0096,-4.0096,-4.0096,-4.0096,-4.0096,-4.0096,-4.0096,-4.0096,-4.0096,-4.0096,-4.0096,-4.0096,-4.0096,-4.0096,-4.0096,-4.0096,-4.0096,-3.9842,-3.9191,-3.8464,-3.7736,-3.6998,-3.6197,-3.5701,-3.56,-3.56,-3.56,-3.56,-3.56,-3.56,-3.56,-3.56,-3.56,-3.56,-3.56,-3.56,0.0,0.0,0.0,0.0,0.0,0.0,0.0,0.0,0.0,-4.7699,-4.7767,-4.7885,-4.8325,-4.8392,-4.8156,-4.7411,-4.7293,-4.7039,-4.6295,-4.5906,-4.5551,-4.5128,-4.4818,-4.4615,-4.4615,-4.4181,-4.3771,-4.3325,-4.2929,-4.2534,-4.22,-4.2167,-4.2015,-4.1711,-4.1373,-4.1001,-4.0578,-4.0265,-4.0096,-4.0096,-4.0096,-4.0096,-4.007,-3.9636,-3.9662,-4.0096,-4.0096,-4.0229,-4.0473,-4.078,-4.0709,-4.0473,-4.078,-4.0577,-4.0096,-4.0096,-4.0096,-4.0096,-4.0096,-4.0096,-4.0096,-4.0096,-4.0096,-4.0096,-4.0096,-4.0096,-4.0096,-4.0096,-4.0096,-4.0096,-4.0096,-4.0096,-4.0096,-4.0096,-4.0096,-4.0096,-4.0096,-4.0096,-4.0096,-4.0096,-4.0096,-4.0096,-4.0096,-4.0096,-4.0096,-4.0096,-4.0096,-4.0096,-4.0096,-4.0096,-4.0096,-4.0096,-3.974,-3.9368,-3.9022,-3.7939,-3.7168,-3.6829,-3.6045,-3.56,-3.56,-3.56,-3.56,-3.56,-3.56,-3.56,-3.56,-3.56,-3.56,-3.56,-3.56,-3.56,0.0,0.0,0.0,0.0,0.0,0.0,0.0,0.0,0.0,0.0,-4.6786,-4.6904,-4.7276,-4.7496,-4.7394,-4.6633,-4.6515,-4.6261,-4.5517,-4.5415,-4.5213,-4.4682,-4.4429,-4.4282,-4.4282,-4.3406,-4.2613,-4.2067,-4.1325,-4.089,-4.0925,-4.0908,-4.0928,-4.0907,-4.0916,-4.0646,-4.0113,-4.0096,-4.0096,-4.0096,-3.9901,-3.9808,-3.9782,-3.8978,-3.8951,-3.9532,-3.9705,-3.9901,-4.0121,-4.0528,-4.0449,-4.0146,-4.0528,-4.0449,-4.0096,-4.0096,-4.0096,-4.0096,-4.0096,-4.0096,-4.0096,-4.0096,-4.0096,-4.0096,-4.0096,-4.0096,-4.0096,-4.0096,-4.0096,-4.0096,-4.0096,-4.0096,-4.0096,-4.0096,-4.0096,-4.0096,-4.0096,-4.0096,-4.0096,-4.0096,-4.0096,-4.0096,-4.0096,-4.0096,-4.0096,-4.0096,-4.0096,-4.0096,-4.0096,-4.0096,-4.0096,-4.0096,-3.9453,-3.892,-3.8734,-3.7557,-3.6711,-3.6524,-3.5943,-3.56,-3.56,-3.56,-3.56,-3.56,-3.56,-3.56,-3.56,-3.56,-3.56,-3.56,-3.56,-3.56,0.0,0.0,0.0,0.0,0.0,0.0,0.0,0.0,0.0,-4.665,-4.6786,-4.6599,-4.594,-4.6397,-4.6616,-4.5889,-4.5771,-4.55,-4.4767,-4.4666,-4.4649,-4.4615,-4.3927,-4.3443,-4.3443,-4.2155,-4.1312,-4.1255,-4.0502,-4.0089,-4.0155,-4.015,-4.0163,-4.0155,-4.0163,-4.0146,-4.0096,-4.0096,-4.0096,-4.0096,-3.9315,-3.8962,-3.8935,-3.8206,-3.7863,-3.795,-3.8663,-3.9411,-4.0096,-4.0121,-4.0121,-4.0096,-4.0121,-4.0121,-4.0096,-4.0096,-4.0096,-4.0096,-4.0096,-4.0096,-4.0096,-4.0096,-4.0096,-4.0096,-4.0096,-4.0096,-4.0096,-4.0096,-4.0096,-4.0096,-4.0096,-4.0096,-4.0096,-4.0096,-4.0096,-4.0096,-4.0096,-4.0096,-4.0096,-4.0096,-4.0096,-4.0096,-4.0096,-4.0096,-4.0096,-4.0096,-4.0096,-4.0096,-4.0096,-4.0096,-4.0096,-4.0096,-3.9453,-3.8717,-3.8024,-3.7246,-3.6468,-3.5701,-3.5616,-3.56,-3.56,-3.56,-3.56,-3.56,-3.56,-3.56,-3.56,-3.56,-3.56,-3.56,-3.56,-3.56,0.0,0.0,0.0,0.0,0.0,0.0,0.0,0.0,-4.4451,-4.5241,-4.541,-4.5326,-4.5026,-4.5585,-4.5855,-4.5094,-4.4976,-4.4919,-4.4649,-4.4615,-4.4429,-4.3893,-4.3589,-4.3189,-4.2743,-4.1344,-4.0266,-3.9761,-3.8543,-3.8058,-3.8594,-3.8622,-3.9068,-4.0087,-4.0096,-4.0096,-4.0096,-3.9584,-3.9342,-3.9315,-3.8569,-3.8189,-3.8177,-3.7381,-3.7571,-3.8497,-3.8274,-3.8624,-3.9368,-3.9901,-4.0096,-4.0096,-4.0096,-4.0096,-4.0096,-4.0096,-4.0096,-4.0096,-4.0096,-4.0096,-4.0096,-4.0096,-4.0096,-4.0096,-4.0096,-4.0096,-4.0096,-4.0096,-4.0096,-4.0096,-4.0096,-4.0096,-4.0096,-4.0096,-4.0096,-4.0096,-4.0096,-4.0096,-4.0096,-4.0096,-4.0096,-4.0096,-4.0096,-4.0096,-4.0096,-4.0096,-4.0096,-4.0096,-4.0096,-4.0096,-3.9926,-3.9453,-3.8717,-3.799,-3.7246,-3.6485,-3.591,-3.5616,-3.56,-3.56,-3.56,-3.56,-3.56,-3.56,-3.56,-3.56,-3.56,-3.56,-3.56,-3.56,-3.56,-3.56,0.0,0.0,0.0,0.0,0.0,0.0,0.0,0.0,-4.2895,-4.3684,-4.4012,-4.4113,-4.3887,-4.4215,-4.457,-4.4615,-4.4615,-4.4513,-4.4231,-4.4198,-4.391,-4.3132,-4.2801,-4.2365,-4.1638,-4.0205,-3.8987,-3.8181,-3.7184,0.0,-3.7764,-3.8035,-3.8761,-4.0045,-3.9833,-3.9705,-3.9705,-3.8924,-3.8525,-3.8525,-3.7761,-3.7397,-3.7368,-3.66,-3.6934,-3.8101,-3.7892,-3.8374,-3.9342,-3.9876,-4.0096,-4.0096,-4.0096,-4.0096,-4.0096,-4.0096,-4.0096,-4.0096,-4.0096,-4.0096,-4.0096,-4.0096,-4.0096,-4.0096,-4.0096,-4.0096,-4.0096,-4.0096,-4.0096,-4.0096,-4.0096,-4.0096,-4.0096,-4.0096,-4.0096,-4.0096,-4.0096,-4.0096,-4.0096,-4.0096,-4.0096,-4.0096,-4.0096,-4.0096,-4.0096,-4.0096,-4.0096,-4.0096,-4.0096,-4.0096,-3.9825,-3.9073,-3.8345,-3.7601,-3.6863,-3.6062,-3.56,-3.56,-3.56,-3.56,-3.56,-3.56,-3.56,-3.56,-3.56,-3.56,-3.56,-3.56,-3.56,-3.56,-3.56,-3.56,0.0,0.0,0.0,0.0,0.0,0.0,0.0,0.0,-4.1238,-4.2049,-4.2794,-4.3054,-4.2422,-4.2286,-4.2777,-4.4293,-4.453,-4.4248,-4.3487,-4.3358,-4.3071,-4.2354,-4.1644,-4.0908,-4.015,-3.8695,-3.7485,-3.6691,-3.66,-3.6964,-3.7777,-3.8525,-3.9289,-4.007,-3.9315,-3.8908,-3.8908,-3.8133,-3.7748,-3.7748,-3.695,-3.6584,-3.6554,-3.5846,-3.5926,-3.6661,-3.7456,-3.8652,-4.0096,-4.0096,-4.0096,-4.0096,-4.0096,-4.0096,-4.0096,-4.0096,-4.0096,-4.0096,-4.0096,-4.0096,-4.0096,-4.0096,-4.0096,-4.0096,-4.0096,-4.0096,-4.0096,-4.0096,-4.0096,-4.0096,-4.0096,-4.0096,-4.0096,-4.0096,-4.0096,-4.0096,-4.0096,-4.0096,-4.0096,-4.0096,-4.0096,-4.0096,-4.0096,-4.0096,-4.0096,-4.0096,-4.0096,-4.0096,-4.0096,-4.0079,-3.9791,-3.9039,-3.8311,-3.7567,-3.6829,-3.6045,-3.56,-3.56,-3.56,-3.56,-3.56,-3.56,-3.56,-3.56,-3.56,-3.56,-3.56,-3.56,-3.56,-3.56,-3.56,-3.56,-2.7959,0.0,0.0,0.0,0.0,0.0,0.0,0.0,-3.7178,-4.0113,-4.0443,-4.0646,-4.2033,-4.2286,-4.2422,-4.2861,-4.2956,-4.2844,-4.2642,-4.2591,-4.2337,-4.1593,-4.1322,-4.069,-3.9352,-3.8375,-3.769,0.0,-3.6934,-3.7188,-3.8525,-3.9358,-3.9876,-4.0096,-3.9315,-3.8908,-3.8908,-3.76,-3.6934,-3.6904,-3.618,-3.5814,-3.5814,-3.5587,-3.6227,-3.7485,-3.769,-3.8652,-4.0096,-4.0096,-4.0096,-4.0096,-4.0096,-4.0096,-4.0096,-4.0096,-4.0096,-4.0096,-4.0096,-4.0096,-4.0096,-4.0096,-4.0096,-4.0096,-4.0096,-4.0096,-4.0096,-4.0096,-4.0096,-4.0096,-4.0096,-4.0096,-4.0096,-4.0096,-4.0096,-4.0096,-4.0096,-4.0096,-4.0096,-4.0096,-4.0096,-4.0096,-4.0096,-4.0096,-4.0096,-4.0096,-4.0096,-4.0096,-4.0096,-3.9639,-3.9005,-3.8278,-3.7533,-3.6789,-3.6011,-3.5718,-3.56,-3.56,-3.56,-3.56,-3.56,-3.56,-3.56,-3.56,-3.56,-3.56,-3.56,-3.56,-3.56,-3.56,-3.56,-3.56,0.0,0.0,0.0,0.0,0.0,0.0,-3.3609,-3.4404,-3.5385,0.0,-3.9089,-3.9377,-4.0679,-4.0916,-4.1018,-4.1348,-4.1399,-4.1474,-4.1796,-4.183,-4.1559,-4.0832,-4.0438,-3.9877,-3.8984,-3.8218,-3.7793,-3.7793,-3.7629,-3.8101,-3.9342,-3.985,-3.9952,-3.961,-3.8843,-3.8286,-3.793,-3.6737,-3.6134,-3.6149,-3.5701,-3.5504,-3.5504,-3.5814,-3.6615,-3.7822,-3.8121,-3.8968,-4.0096,-4.0096,-4.0096,-4.0096,-4.0096,-4.0096,-4.0096,-4.0096,-4.0096,-4.0096,-4.0096,-4.0096,-4.0096,-4.0096,-4.0096,-4.0096,-4.0096,-4.0096,-4.0096,-4.0096,-4.0096,-4.0096,-4.0096,-4.0096,-4.0096,-4.0096,-4.0096,-4.0096,-4.0096,-4.0096,-4.0096,-4.0096,-4.0096,-4.0096,-4.0096,-4.0096,-4.0096,-4.0096,-3.9842,-3.9656,-3.9656,-3.8988,-3.8261,-3.7516,-3.7066,-3.6468,-3.5667,-3.56,-3.56,-3.56,-3.56,-3.56,-3.56,-3.56,-3.56,-3.56,-3.56,-3.56,-3.56,-3.56,-3.56,-3.56,-3.56,-3.56,0.0,0.0,0.0,0.0,-3.0161,0.0,-3.3706,-3.4252,-3.459,0.0,-3.755,-3.8108,-3.843,-3.8497,-3.8734,-3.9486,-3.974,-4.0146,-4.0967,-4.1085,-4.0806,-4.0062,-3.9394,-3.8978,-3.8799,-3.8246,-3.7921,-3.7921,-3.8608,-3.9342,-4.007,-4.0096,-3.9782,-3.9059,-3.8234,-3.7456,-3.6722,-3.5926,-3.5504,-3.5504,-3.5504,-3.5522,-3.5636,-3.6306,-3.7084,-3.795,-3.8608,-3.9342,-4.0096,-4.0096,-4.0096,-4.0096,-4.0096,-4.0096,-4.0096,-4.0096,-4.0096,-4.0096,-4.0096,-4.0096,-4.0096,-4.0096,-4.0096,-4.0096,-4.0096,-4.0096,-4.0096,-4.0096,-4.0096,-4.0096,-4.0096,-4.0096,-4.0096,-4.0096,-4.0096,-4.0096,-4.0096,-4.0096,-4.0096,-4.0096,-4.0096,-4.0096,-4.0096,-4.0096,-4.0079,-3.9994,-3.9436,-3.8954,-3.8886,-3.8227,-3.7533,-3.688,-3.6728,-3.6366,-3.565,-3.56,-3.56,-3.56,-3.56,-3.56,-3.56,-3.56,-3.56,-3.56,-3.56,-3.56,-3.56,-3.56,-3.56,-3.56,-3.56,-3.56,-3.0818,-3.119,-3.1481,-2.9839,-3.055,0.0,-2.818,-2.9311,-3.1089,0.0,-3.1749,-3.256,-3.4928,-3.5368,-3.5622,-3.6366,-3.7533,-3.8785,-4.0146,-4.0316,-4.0027,-3.9226,-3.9584,-3.9385,-3.8149,-3.8414,-3.869,-3.869,-3.9411,-3.9927,-4.0096,-4.0096,-4.002,-3.9859,-3.8513,-3.7719,-3.7573,-3.6196,-3.5504,-3.5504,-3.5504,-3.5814,-3.6384,-3.6523,-3.735,-3.869,-3.8827,-3.9342,-4.0096,-4.0096,-4.0096,-4.0096,-4.0096,-4.0096,-4.0096,-4.0096,-4.0096,-4.0096,-4.0096,-4.0096,-4.0096,-4.0096,-4.0096,-4.0096,-4.0096,-4.0096,-4.0096,-4.0096,-4.0096,-4.0096,-4.0096,-4.0096,-4.0096,-4.0096,-4.0096,-4.0096,-4.0096,-4.0096,-4.0096,-4.0096,-4.0096,-4.0096,-4.0096,-4.0096,-3.991,-3.9292,-3.9089,-3.8785,-3.8193,-3.7466,-3.6965,-3.6829,-3.6214,-3.5769,-3.5616,-3.56,-3.56,-3.56,-3.56,-3.56,-3.56,-3.56,-3.56,-3.56,-3.56,-3.56,-3.56,-3.56,-3.56,-3.56,-3.56,-3.56,-3.114,-3.119,-3.1498,-3.0381,-3.0381,0.0,0.0,-2.8991,-2.9854,-3.097,-3.0615,-3.0784,-3.3004,-3.341,-3.3744,-3.4878,-3.6349,-3.7601,-3.8352,-3.9402,-3.9952,-3.9542,-3.9489,-3.9358,-3.8968,-3.8924,-3.9086,-3.9463,-3.9859,-4.0096,-4.0096,-4.0096,-3.9927,-3.9516,-3.8402,-3.7602,-3.7219,-3.607,-3.5504,-3.5504,-3.5863,-3.6244,-3.663,-3.7395,-3.8157,-3.8908,-3.9315,-3.9731,-4.0096,-4.0096,-4.0096,-4.0096,-4.0096,-4.0096,-4.0096,-4.0096,-4.0096,-4.0096,-4.0096,-4.0096,-4.0096,-4.0096,-4.0096,-4.0096,-4.0096,-4.0096,-4.0096,-4.0096,-4.0096,-4.0096,-4.0096,-4.0096,-4.0096,-4.0096,-4.0096,-4.0096,-4.0096,-4.0096,-4.0096,-4.0096,-4.0096,-4.0096,-4.0096,-3.9791,-3.9436,-3.9056,-3.8362,-3.7753,-3.7398,-3.6671,-3.6197,-3.6197,-3.5836,-3.56,-3.56,-3.56,-3.56,-3.56,-3.56,-3.56,-3.56,-3.56,-3.56,-3.56,-3.56,-3.56,-3.56,-3.56,-3.56,-3.56,-3.56,-3.56,-3.1681,-3.1596,-3.2087,-3.1376,-3.0717,-3.0226,0.0,0.0,0.0,0.0,0.0,0.0,0.0,0.0,0.0,0.0,0.0,0.0,0.0,-3.7642,0.0,-3.9202,-3.8937,-3.8966,-3.9589,-3.8944,-3.8944,-4.0011,-3.9706,-3.9656,-4.0079,-4.0096,-3.9808,-3.9139,-3.8262,-3.7485,-3.6843,-3.5958,-3.5554,-3.5733,-3.6306,-3.6752,-3.7098,-3.8325,-3.8989,-3.9166,-3.9808,-4.0096,-4.0096,-4.0096,-4.0096,-4.0096,-4.0096,-4.0096,-4.0096,-4.0096,-4.0096,-4.0096,-4.0096,-4.0096,-4.0096,-4.0096,-4.0096,-4.0096,-4.0096,-4.0096,-4.0096,-4.0096,-4.0096,-4.0096,-4.0096,-4.0096,-4.0096,-4.0096,-4.0096,-4.0096,-4.0096,-4.0096,-4.0096,-4.0096,-4.0096,-4.0096,-4.0096,-3.9503,-3.8937,-3.8802,-3.7635,-3.6745,-3.6592,-3.6011,-3.56,-3.56,-3.56,-3.56,-3.56,-3.56,-3.56,-3.56,-3.56,-3.56,-3.56,-3.56,-3.56,-3.56,-3.56,-3.56,-3.56,-3.56,-3.56,-3.56,-3.56,-3.56,0.0,0.0,0.0,-3.2019,-3.3051,-3.3334,-2.7536,0.0,-2.9296,-2.686,0.0,0.0,0.0,0.0,0.0,0.0,0.0,0.0,-3.1833,-3.3728,-3.5362,-3.6026,-3.7251,-3.8019,-3.8051,-3.7435,-3.7884,-3.996,-3.8285,-3.8031,-3.9994,-4.0096,-4.0045,-3.9969,-3.8557,-3.7764,-3.7661,-3.6227,-3.5831,-3.6477,-3.6554,-3.7336,-3.8646,-3.8827,-3.9289,-3.9969,-4.0045,-4.0096,-4.0096,-4.0096,-4.0096,-4.0096,-4.0096,-4.0096,-4.0096,-4.0096,-4.0096,-4.0096,-4.0096,-4.0096,-4.0096,-4.0096,-4.0096,-4.0096,-4.0096,-4.0096,-4.0096,-4.0096,-4.0096,-4.0096,-4.0096,-4.0096,-4.0096,-4.0096,-4.0096,-4.0096,-4.0096,-4.0096,-4.0096,-4.0096,-4.0096,-4.0096,-4.0096,-3.9503,-3.8768,-3.8125,-3.7313,-3.6535,-3.5842,-3.565,-3.56,-3.56,-3.56,-3.56,-3.56,-3.56,-3.56,-3.56,-3.56,-3.56,-3.56,-3.56,-3.56,-3.56,-3.56,-3.56,-3.56,-3.56,-3.56,-3.56,-3.56,-3.56,0.0,0.0,0.0,-3.2462,-3.2442,-3.2087,-2.8399,-2.7858,-2.7892,-2.7046,0.0,0.0,0.0,0.0,0.0,0.0,-2.9567,0.0,0.0,0.0,-3.2542,0.0,0.0,0.0,-3.6432,-3.6693,-3.7371,-3.8717,-3.7127,-3.7094,-3.9351,-3.9469,-3.9438,-3.9394,-3.8374,-3.7573,-3.7114,-3.6053,-3.5863,-3.6615,-3.7054,-3.786,-3.8908,-3.9368,-3.9782,-4.0096,-4.0096,-4.0096,-4.0096,-4.0096,-4.0096,-4.0096,-4.0096,-4.0096,-4.0096,-4.0096,-4.0096,-4.0096,-4.0096,-4.0096,-4.0096,-4.0096,-4.0096,-4.0096,-4.0096,-4.0096,-4.0096,-4.0096,-4.0096,-4.0096,-4.0096,-4.0096,-4.0096,-4.0096,-4.0096,-4.0096,-4.0096,-4.0096,-4.0096,-4.0096,-4.0096,-3.996,-3.9554,-3.8853,-3.8108,-3.7364,-3.6603,-3.5994,-3.5633,-3.56,-3.56,-3.56,-3.56,-3.56,-3.56,-3.56,-3.56,-3.56,-3.56,-3.56,-3.56,-3.56,-3.56,-3.56,-3.56,-3.56,-3.56,-3.56,-3.56,-3.56,-3.56,-3.5363,-3.4472,0.0,0.0,-3.2581,-3.1752,-3.0956,-2.8857,-2.7977,-2.7672,-2.7773,-2.7435,0.0,0.0,0.0,0.0,0.0,0.0,-2.9211,0.0,-2.8822,0.0,0.0,0.0,0.0,0.0,-3.5284,-3.5808,-3.7178,-3.5487,-3.5571,-3.8244,-3.8377,-3.8454,-3.8595,-3.7866,-3.7174,-3.6615,-3.6054,-3.618,-3.6934,-3.7732,-3.8513,-3.9262,-3.9833,-4.0096,-4.0096,-4.0096,-4.0096,-4.0096,-4.0096,-4.0096,-4.0096,-4.0096,-4.0096,-4.0096,-4.0096,-4.0096,-4.0096,-4.0096,-4.0096,-4.0096,-4.0096,-4.0096,-4.0096,-4.0096,-4.0096,-4.0096,-4.0096,-4.0096,-4.0096,-4.0096,-4.0096,-4.0096,-4.0096,-4.0096,-4.0096,-4.0096,-4.0096,-4.0096,-4.0096,-3.9943,-3.9571,-3.8819,-3.8261,-3.7652,-3.6914,-3.6129,-3.56,-3.56,-3.56,-3.56,-3.56,-3.56,-3.56,-3.56,-3.56,-3.56,-3.56,-3.56,-3.56,-3.56,-3.56,-3.56,-3.56,-3.56,-3.56,-3.56,-3.56,-3.5498,-3.5295,-3.5295,-3.5013,0.0,0.0,0.0,-3.2324,-3.1752,-3.1295,-2.7622,-2.8433,-2.9565,-2.8094,-2.9533,-3.0581,-2.9196,0.0,0.0,0.0,0.0,0.0,0.0,0.0,0.0,0.0,0.0,0.0,0.0,-3.2611,-3.2577,0.0,-3.2983,-3.2949,-3.6677,-3.6804,-3.7103,-3.7801,-3.7076,-3.6646,-3.6615,-3.6584,-3.6964,-3.7764,-3.8497,-3.9289,-4.007,-4.007,-4.0096,-4.0096,-4.0096,-4.0096,-4.0096,-4.0096,-4.0096,-4.0096,-4.0096,-4.0096,-4.0096,-4.0096,-4.0096,-4.0096,-4.0096,-4.0096,-4.0096,-4.0096,-4.0096,-4.0096,-4.0096,-4.0096,-4.0096,-4.0096,-4.0096,-4.0096,-4.0096,-4.0096,-4.0096,-4.0096,-4.0096,-4.0096,-4.0096,-4.0096,-4.0096,-4.0096,-3.9512,-3.8802,-3.8075,-3.7922,-3.7652,-3.6914,-3.6129,-3.56,-3.56,-3.56,-3.56,-3.56,-3.56,-3.56,-3.56,-3.56,-3.56,-3.56,-3.56,-3.56,-3.56,-3.56,-3.56,-3.56,-3.56,-3.56,-3.56,-3.56,-3.5228,-3.4523,-3.4523,-3.4506,0.0,0.0,-3.7787,-3.4252,-3.3203,-3.2171,-2.8959,-2.9194,-2.9649,-2.8128,-2.9617,-3.0753,-2.9264,0.0,0.0,0.0,0.0,0.0,0.0,0.0,0.0,0.0,0.0,0.0,0.0,0.0,0.0,-3.2662,-3.2205,0.0,-3.5214,-3.6208,-3.6592,-3.6362,-3.6514,-3.6615,-3.6615,-3.6615,-3.7247,-3.8525,-3.8772,-3.9315,-4.0096,-4.0096,-4.0096,-4.0096,-4.0096,-4.0096,-4.0096,-4.0096,-4.0096,-4.0096,-4.0096,-4.0096,-4.0096,-4.0096,-4.0096,-4.0096,-4.0096,-4.0096,-4.0096,-4.0096,-4.0096,-4.0096,-4.0096,-4.0096,-4.0096,-4.0096,-4.0096,-4.0096,-4.0096,-4.0096,-4.0096,-4.0096,-4.0096,-4.0096,-4.0096,-4.0096,-4.0096,-4.0096,-3.9495,-3.8768,-3.8041,-3.7499,-3.6907,-3.6129,-3.5769,-3.56,-3.56,-3.56,-3.56,-3.56,-3.56,-3.56,-3.56,-3.56,-3.56,-3.56,-3.56,-3.56,-3.56,-3.56,-3.56,-3.56,-3.56,-3.5346,-3.4878,-3.4878,-3.4489,-3.3761,-3.3275,-3.3038,-3.8041,-3.8447,0.0,-3.5571,-3.4539,-3.3423,-3.0446,-3.0751,-3.1241,-2.9719,-3.0784,-3.1765,-3.1092,0.0,0.0,0.0,0.0,0.0,0.0,-2.3932,0.0,0.0,0.0,0.0,0.0,0.0,-3.0567,-3.1157,-3.0886,-3.1506,0.0,-3.4538,-3.5043,-3.4862,-3.5763,-3.6367,-3.6615,-3.7158,-3.793,-3.8908,-3.9193,-3.961,-4.0096,-4.0096,-4.0096,-4.0096,-4.0096,-3.996,-3.9723,-3.9723,-3.9723,-3.9723,-3.9723,-3.9876,-4.0096,-4.0096,-4.0096,-4.0096,-4.0096,-4.0096,-4.0096,-4.0096,-4.0096,-4.0096,-4.0096,-4.0096,-4.0096,-4.0096,-4.0096,-4.0096,-4.0096,-4.0096,-4.0096,-4.0096,-4.0096,-4.0096,-4.0096,-4.0096,-4.0028,-3.9757,-3.9106,-3.8362,-3.7635,-3.6874,-3.6197,-3.5667,-3.56,-3.56,-3.56,-3.56,-3.56,-3.56,-3.56,-3.56,-3.56,-3.56,-3.56,-3.56,-3.56,-3.56,-3.56,-3.56,-3.56,-3.56,-3.5329,-3.4979,-3.4489,-3.4235,-3.3728,-3.3,-3.253,-3.2158]},{"header":{"parameterUnit":"m.s-1","parameterCategory":1,"la1":30.6,"la2":29.2853,"lo1":-89.7004,"lo2":-87.6739,"dy":0.0162,"dx":0.0183,"nx":112,"ny":82,"refTime":"2026-02-24T12:00:00:Z","depth":0,"parameterNumber":3,"parameterNumberName":"V-component_of_WINDS"},"data":[0.0,0.0,0.0,0.0,0.0,0.0,0.0,0.0,0.0,0.0,0.0,0.0,0.0,0.0,0.0,0.0,0.0,0.0,0.0,0.0,0.0,0.0,0.0,0.0,0.0,0.0,0.0,0.0,0.0,0.0,0.0,0.0,0.0,0.0,0.0,0.0,0.0,0.0,0.0,0.0,0.0,0.0,0.0,0.0,0.0,0.0,0.0,0.0,0.0,0.0,0.0,0.0,0.0,0.0,0.0,0.0,0.0,0.0,0.0,0.0,0.0,0.0,0.0,0.0,0.0,0.0,0.0,0.0,0.0,0.0,0.0,0.0,0.0,0.0,0.0,0.0,0.0,0.0,0.0,0.0,0.0,0.0,0.0,0.0,0.0,0.0,0.0,0.0,0.0,0.0,-1.6796,-1.8489,-2.035,-2.0652,-1.8677,-1.8136,-1.7068,-1.5135,0.0,0.0,0.0,0.0,0.0,0.0,0.0,0.0,0.0,0.0,0.0,0.0,0.0,0.0,0.0,0.0,0.0,0.0,0.0,0.0,0.0,0.0,0.0,0.0,0.0,0.0,0.0,0.0,0.0,0.0,0.0,0.0,0.0,0.0,0.0,0.0,0.0,0.0,0.0,0.0,0.0,0.0,0.0,0.0,0.0,0.0,0.0,0.0,0.0,0.0,0.0,0.0,0.0,0.0,0.0,0.0,0.0,0.0,0.0,0.0,0.0,0.0,0.0,0.0,0.0,0.0,0.0,0.0,0.0,0.0,0.0,0.0,0.0,0.0,0.0,0.0,0.0,0.0,0.0,0.0,0.0,0.0,0.0,0.0,0.0,0.0,0.0,0.0,0.0,0.0,0.0,0.0,0.0,0.0,0.0,0.0,0.0,0.0,0.0,0.0,0.0,0.0,0.0,0.0,-1.8304,-2.1026,-2.199,-2.1372,-1.8705,-1.7802,-1.667,-1.5109,0.0,0.0,0.0,0.0,0.0,0.0,0.0,0.0,0.0,0.0,0.0,0.0,0.0,0.0,0.0,0.0,0.0,0.0,0.0,0.0,0.0,0.0,0.0,0.0,0.0,0.0,0.0,0.0,0.0,0.0,0.0,0.0,0.0,0.0,0.0,0.0,0.0,0.0,0.0,0.0,0.0,0.0,0.0,0.0,0.0,0.0,0.0,0.0,0.0,0.0,0.0,0.0,0.0,0.0,0.0,0.0,0.0,0.0,0.0,0.0,0.0,0.0,0.0,0.0,0.0,0.0,0.0,0.0,0.0,0.0,0.0,0.0,0.0,0.0,0.0,0.0,0.0,0.0,0.0,0.0,0.0,0.0,0.0,0.0,0.0,0.0,0.0,0.0,0.0,0.0,0.0,0.0,0.0,0.0,0.0,0.0,0.0,0.0,0.0,0.0,0.0,0.0,0.0,-1.7791,-2.021,-2.2533,-2.2724,-2.2089,-2.0589,-1.9057,-1.7583,-1.6181,-1.4871,0.0,0.0,0.0,0.0,0.0,0.0,0.0,0.0,0.0,0.0,0.0,0.0,0.0,0.0,0.0,0.0,0.0,0.0,0.0,0.0,0.0,0.0,0.0,0.0,0.0,0.0,0.0,0.0,0.0,0.0,0.0,0.0,0.0,0.0,0.0,0.0,0.0,0.0,0.0,0.0,0.0,0.0,0.0,0.0,0.0,0.0,0.0,0.0,0.0,0.0,0.0,0.0,0.0,0.0,0.0,0.0,0.0,0.0,0.0,0.0,0.0,0.0,0.0,0.0,0.0,0.0,0.0,0.0,0.0,0.0,0.0,0.0,0.0,0.0,0.0,0.0,0.0,0.0,0.0,0.0,0.0,0.0,0.0,0.0,0.0,0.0,0.0,0.0,0.0,0.0,0.0,0.0,0.0,0.0,0.0,0.0,0.0,0.0,0.0,0.0,0.0,0.0,-2.0156,-2.1889,-2.3354,-2.3143,-2.2691,-2.2001,-1.9892,-1.809,-1.6837,-1.4878,0.0,0.0,0.0,0.0,0.0,0.0,0.0,0.0,0.0,0.0,0.0,0.0,0.0,0.0,0.0,0.0,0.0,0.0,0.0,0.0,0.0,0.0,0.0,0.0,0.0,0.0,0.0,0.0,0.0,0.0,0.0,0.0,0.0,0.0,0.0,0.0,0.0,0.0,0.0,0.0,0.0,0.0,0.0,0.0,0.0,0.0,0.0,0.0,0.0,0.0,0.0,0.0,0.0,0.0,0.0,0.0,0.0,0.0,0.0,0.0,0.0,0.0,0.0,0.0,0.0,0.0,0.0,0.0,0.0,0.0,0.0,0.0,0.0,0.0,0.0,0.0,0.0,0.0,0.0,0.0,0.0,0.0,0.0,0.0,0.0,0.0,0.0,0.0,0.0,0.0,0.0,0.0,0.0,0.0,0.0,0.0,0.0,0.0,0.0,0.0,0.0,0.0,-2.0455,-2.2718,-2.3444,-2.3587,-2.3046,-2.1641,-1.9075,-1.7055,-1.6031,-1.3013,0.0,0.0,0.0,0.0,0.0,0.0,0.0,0.0,0.0,0.0,0.0,0.0,0.0,0.0,0.0,0.0,0.0,0.0,0.0,0.0,0.0,0.0,0.0,0.0,0.0,0.0,0.0,0.0,0.0,0.0,0.0,0.0,0.0,0.0,0.0,0.0,0.0,0.0,0.0,0.0,0.0,0.0,0.0,0.0,0.0,0.0,0.0,0.0,0.0,0.0,0.0,0.0,0.0,0.0,0.0,0.0,0.0,0.0,0.0,0.0,0.0,0.0,0.0,0.0,0.0,0.0,0.0,0.0,0.0,0.0,0.0,0.0,0.0,0.0,0.0,0.0,0.0,0.0,0.0,0.0,0.0,0.0,0.0,0.0,0.0,0.0,0.0,0.0,0.0,0.0,0.0,0.0,0.0,0.0,0.0,0.0,0.0,0.0,0.0,0.0,0.0,0.0,-2.0451,-2.3019,0.0,-2.3761,-2.341,-2.3703,-2.1523,-1.9295,-1.7261,0.0,0.0,0.0,0.0,0.0,0.0,0.0,0.0,0.0,0.0,0.0,0.0,0.0,0.0,0.0,0.0,0.0,0.0,0.0,0.0,0.0,0.0,0.0,0.0,0.0,0.0,0.0,0.0,0.0,0.0,0.0,0.0,0.0,0.0,0.0,0.0,0.0,0.0,0.0,0.0,0.0,0.0,0.0,0.0,0.0,0.0,0.0,0.0,0.0,0.0,0.0,0.0,0.0,0.0,0.0,0.0,0.0,0.0,0.0,0.0,0.0,0.0,0.0,0.0,0.0,0.0,0.0,0.0,0.0,0.0,0.0,0.0,0.0,0.0,0.0,0.0,0.0,0.0,0.0,0.0,0.0,0.0,0.0,0.0,0.0,0.0,0.0,0.0,0.0,0.0,0.0,0.0,0.0,0.0,0.0,0.0,0.0,0.0,0.0,0.0,0.0,0.0,-1.7089,-2.0568,-2.3418,0.0,-2.4145,-2.4078,-2.5021,-2.2823,-2.0338,-1.782,0.0,0.0,0.0,0.0,0.0,0.0,0.0,0.0,0.0,0.0,0.0,0.0,0.0,0.0,0.0,0.0,0.0,0.0,0.0,0.0,0.0,0.0,0.0,0.0,0.0,0.0,0.0,0.0,0.0,0.0,0.0,0.0,0.0,0.0,0.0,0.0,0.0,0.0,0.0,0.0,0.0,0.0,0.0,0.0,0.0,0.0,0.0,0.0,0.0,0.0,0.0,0.0,0.0,0.0,0.0,0.0,0.0,0.0,0.0,0.0,0.0,0.0,0.0,0.0,0.0,0.0,0.0,0.0,0.0,0.0,0.0,0.0,0.0,0.0,0.0,0.0,0.0,0.0,0.0,0.0,0.0,0.0,0.0,0.0,0.0,0.0,0.0,0.0,0.0,0.0,0.0,0.0,0.0,0.0,0.0,0.0,0.0,0.0,0.0,0.0,0.0,0.0,-1.6813,-2.0927,-2.3955,-2.4375,-2.4805,-2.5116,-2.5106,-2.2356,-1.9616,0.0,0.0,0.0,0.0,0.0,0.0,0.0,0.0,0.0,0.0,0.0,0.0,0.0,0.0,0.0,0.0,0.0,0.0,0.0,0.0,0.0,0.0,0.0,0.0,0.0,0.0,0.0,0.0,0.0,0.0,0.0,0.0,0.0,0.0,0.0,0.0,0.0,0.0,0.0,0.0,0.0,0.0,0.0,0.0,0.0,0.0,0.0,0.0,0.0,0.0,0.0,0.0,0.0,0.0,0.0,0.0,0.0,0.0,0.0,0.0,0.0,0.0,0.0,0.0,0.0,0.0,0.0,0.0,0.0,0.0,0.0,0.0,0.0,0.0,0.0,0.0,0.0,0.0,0.0,0.0,0.0,0.0,0.0,0.0,0.0,0.0,0.0,0.0,0.0,0.0,0.0,0.0,0.0,0.0,0.0,0.0,0.0,0.0,0.0,0.0,0.0,0.0,0.0,-1.681,-2.1179,-2.4277,-2.4404,-2.4805,-2.4988,-2.4639,-2.3235,-2.0913,-1.7514,0.0,0.0,0.0,0.0,0.0,0.0,0.0,0.0,0.0,0.0,0.0,0.0,0.0,0.0,0.0,0.0,0.0,0.0,0.0,0.0,0.0,0.0,0.0,0.0,0.0,0.0,0.0,0.0,0.0,0.0,0.0,0.0,0.0,0.0,0.0,0.0,0.0,0.0,0.0,0.0,0.0,0.0,0.0,0.0,0.0,0.0,0.0,0.0,0.0,0.0,0.0,0.0,0.0,0.0,0.0,0.0,0.0,0.0,0.0,0.0,0.0,0.0,0.0,0.0,0.0,0.0,0.0,0.0,0.0,0.0,0.0,0.0,0.0,0.0,0.0,0.0,0.0,0.0,0.0,0.0,0.0,0.0,0.0,0.0,0.0,0.0,0.0,0.0,0.0,0.0,0.0,0.0,0.0,0.0,0.0,0.0,0.0,0.0,0.0,0.0,0.0,0.0,-1.6802,-2.0871,-2.3848,-2.4365,-2.4648,-2.4775,-2.4687,-2.3686,-2.1582,-1.7999,0.0,0.0,0.0,0.0,0.0,0.0,0.0,0.0,0.0,0.0,0.0,0.0,0.0,0.0,0.0,0.0,0.0,0.0,0.0,0.0,0.0,0.0,0.0,0.0,0.0,0.0,0.0,0.0,0.0,0.0,0.0,0.0,0.0,0.0,0.0,0.0,0.0,0.0,0.0,0.0,0.0,0.0,0.0,0.0,0.0,0.0,0.0,0.0,0.0,0.0,0.0,0.0,0.0,0.0,0.0,0.0,0.0,0.0,0.0,0.0,0.0,0.0,0.0,0.0,0.0,0.0,0.0,0.0,0.0,0.0,0.0,0.0,0.0,0.0,0.0,0.0,0.0,0.0,0.0,0.0,0.0,0.0,0.0,0.0,0.0,0.0,0.0,0.0,0.0,0.0,0.0,0.0,0.0,0.0,0.0,0.0,0.0,0.0,0.0,0.0,0.0,0.0,-1.6842,-2.0255,-2.3027,-2.4228,-2.4394,-2.456,-2.4969,-2.3799,-2.1691,-1.8574,0.0,0.0,0.0,0.0,0.0,0.0,0.0,0.0,0.0,0.0,0.0,0.0,0.0,0.0,0.0,0.0,0.0,0.0,0.0,0.0,0.0,0.0,0.0,0.0,0.0,0.0,0.0,0.0,0.0,0.0,0.0,0.0,0.0,0.0,0.0,0.0,0.0,0.0,0.0,0.0,0.0,0.0,0.0,0.0,0.0,0.0,0.0,0.0,0.0,0.0,0.0,0.0,0.0,0.0,0.0,0.0,0.0,0.0,0.0,0.0,-1.3087,-1.2705,0.0,0.0,0.0,0.0,0.0,0.0,0.0,0.0,0.0,0.0,0.0,0.0,0.0,0.0,0.0,0.0,0.0,0.0,0.0,0.0,0.0,0.0,0.0,0.0,0.0,0.0,0.0,0.0,0.0,0.0,0.0,0.0,0.0,0.0,0.0,0.0,0.0,0.0,0.0,0.0,-1.7622,-2.0885,-2.3306,-2.3857,-2.4219,-2.4316,-2.4082,-2.3193,-2.1598,-1.924,-1.7257,0.0,0.0,0.0,0.0,0.0,0.0,0.0,0.0,0.0,0.0,0.0,0.0,0.0,0.0,0.0,0.0,0.0,0.0,0.0,0.0,0.0,0.0,0.0,0.0,0.0,0.0,0.0,0.0,0.0,0.0,0.0,0.0,0.0,0.0,0.0,0.0,0.0,0.0,0.0,0.0,0.0,0.0,0.0,0.0,0.0,0.0,0.0,0.0,0.0,0.0,0.0,0.0,0.0,0.0,0.0,0.0,0.0,0.0,0.0,-1.4289,-1.3828,0.0,0.0,0.0,0.0,0.0,0.0,0.0,0.0,0.0,0.0,0.0,0.0,0.0,0.0,0.0,0.0,0.0,0.0,0.0,0.0,0.0,0.0,0.0,0.0,0.0,0.0,0.0,0.0,0.0,0.0,0.0,0.0,0.0,0.0,0.0,0.0,0.0,0.0,0.0,0.0,-1.7899,-2.074,-2.2871,-2.3701,-2.3984,-2.4033,-2.3809,-2.3193,-2.1992,-2.0067,-1.8344,0.0,0.0,0.0,0.0,0.0,0.0,0.0,0.0,0.0,0.0,0.0,0.0,0.0,0.0,0.0,0.0,0.0,0.0,0.0,0.0,0.0,0.0,0.0,0.0,0.0,0.0,0.0,0.0,0.0,0.0,0.0,0.0,0.0,0.0,0.0,0.0,0.0,0.0,0.0,0.0,0.0,0.0,0.0,0.0,0.0,0.0,0.0,0.0,0.0,0.0,0.0,0.0,0.0,-1.4105,-1.5507,-1.6313,-1.6794,-1.6754,-1.6253,-1.5531,-1.5177,-1.5115,-1.4536,0.0,0.0,0.0,0.0,0.0,0.0,0.0,0.0,0.0,0.0,0.0,0.0,0.0,0.0,0.0,0.0,0.0,0.0,0.0,0.0,0.0,0.0,0.0,0.0,-1.8878,-1.8841,-1.588,0.0,0.0,0.0,0.0,0.0,0.0,0.0,0.0,0.0,0.0,0.0,-1.8193,-2.0445,-2.2344,-2.3555,-2.3682,-2.3682,-2.3682,-2.3223,-2.2337,-2.0811,-1.9463,-1.7639,0.0,0.0,0.0,0.0,0.0,0.0,0.0,0.0,0.0,0.0,0.0,0.0,0.0,0.0,0.0,0.0,0.0,0.0,0.0,0.0,0.0,0.0,0.0,0.0,0.0,0.0,0.0,0.0,0.0,0.0,0.0,0.0,0.0,0.0,0.0,0.0,0.0,0.0,0.0,0.0,0.0,0.0,0.0,0.0,0.0,0.0,0.0,-0.8014,-0.82,-1.0112,-1.1843,-1.3307,-1.5192,-1.682,-1.8143,-1.8223,-1.8217,-1.8136,-1.8016,0.0,-1.5691,-1.5357,0.0,0.0,0.0,0.0,0.0,0.0,0.0,0.0,0.0,0.0,0.0,0.0,0.0,0.0,0.0,0.0,0.0,0.0,0.0,0.0,0.0,0.0,-1.9793,-2.051,-2.0819,-2.0819,0.0,-1.7746,-1.5328,-1.4796,-1.3675,0.0,0.0,0.0,0.0,0.0,0.0,0.0,-1.9329,-2.0946,-2.2227,-2.3091,-2.3179,-2.3179,-2.3179,-2.25,-2.1797,-2.1142,-1.9922,-1.8539,-1.708,-1.6248,0.0,0.0,0.0,0.0,0.0,0.0,0.0,0.0,0.0,0.0,0.0,0.0,0.0,0.0,0.0,0.0,0.0,0.0,0.0,0.0,0.0,0.0,0.0,0.0,0.0,0.0,0.0,0.0,0.0,0.0,0.0,0.0,0.0,-0.0274,0.0,0.0,0.0,0.0,0.0,0.0,0.0,0.0,0.0,-0.8306,-0.8413,-0.8618,-0.8818,-1.0524,-1.219,-1.375,-1.5547,-1.7141,-1.8497,-1.8657,-1.8644,-1.849,-1.849,-1.8043,-1.7275,-1.664,-1.5939,-1.5172,0.0,0.0,0.0,0.0,-1.4291,-1.4124,-1.4716,-1.473,-1.4449,-1.4255,0.0,0.0,0.0,0.0,0.0,0.0,0.0,0.0,0.0,0.0,-2.1233,-2.1809,-2.2087,-2.2194,-2.196,-2.0478,-1.8743,0.0,-1.6534,-1.5491,-1.3687,0.0,0.0,0.0,0.0,-1.7634,-1.9338,-2.0703,-2.1758,-2.2373,-2.2432,-2.2432,-2.2432,-2.21,-2.1699,-2.122,-2.0459,-1.9578,-1.8496,-1.7425,-1.6119,0.0,0.0,0.0,0.0,0.0,0.0,0.0,0.0,0.0,0.0,0.0,0.0,0.0,0.0,0.0,0.0,0.0,0.0,0.0,0.0,0.0,0.0,0.0,0.0,0.0,0.0,0.0,0.0,0.0,0.0,0.0,0.0,-0.0485,0.0,0.0,0.0,0.0,0.0,0.0,-0.7153,-0.794,-0.857,-0.8981,-0.9087,-0.9273,-0.9381,-1.0977,-1.2615,-1.4127,-1.587,-1.741,-1.8724,-1.8938,-1.8918,-1.8711,-1.8711,-1.8671,-1.8531,-1.7682,-1.6827,-1.6132,-1.5765,-1.5444,-1.5217,-1.5511,-1.5484,-1.545,-1.6132,-1.6192,-1.5939,-1.6025,-1.6654,-1.7199,-1.6234,0.0,0.0,0.0,0.0,-1.9461,-2.0024,-2.1135,-2.2148,-2.2578,-2.2867,-2.3013,-2.2744,-2.2344,-2.1504,0.0,-1.8997,-1.8012,-1.5632,0.0,0.0,0.0,0.0,-1.8516,-1.9492,-2.0557,-2.1356,-2.1836,-2.1885,-2.1885,-2.1885,-2.1787,-2.1582,-2.121,-2.081,-2.0224,-1.9326,-1.8271,-1.7246,-1.6281,0.0,0.0,0.0,0.0,0.0,0.0,0.0,0.0,0.0,0.0,0.0,0.0,0.0,0.0,0.0,0.0,0.0,0.0,0.0,0.0,0.0,0.0,0.0,0.0,0.0,0.0,0.0,0.0,0.0,0.0,0.0,0.0,0.0,0.0,0.0,-0.6187,-0.6557,-0.738,-0.896,-0.9235,-0.9452,-0.9754,-0.9852,-0.9933,-0.9943,-1.1756,-1.3358,-1.4746,-1.6402,-1.7909,-1.9383,-1.9397,-1.9397,-1.9325,-1.9325,-1.9165,-1.8831,-1.7929,-1.7427,-1.7079,-1.6502,-1.6046,-1.5825,-1.6119,-1.6268,-1.6301,-1.6573,-1.6493,-1.6577,-1.8388,-1.9563,-2.0442,-2.1237,-2.0653,0.0,0.0,-2.0703,-2.1277,-2.2113,-2.2409,-2.2588,-2.2964,-2.3081,-2.3091,-2.3062,-2.274,-2.2207,0.0,-2.0107,-1.9209,-1.9046,0.0,-1.7578,-1.8261,-1.8465,-1.9062,-2.038,-2.0928,-2.1356,-2.1836,-2.1885,-2.1885,-2.1885,-2.1504,-2.122,-2.119,-2.081,-2.0224,-1.9326,-1.8828,-1.7944,-1.6687,-1.4962,0.0,0.0,0.0,0.0,0.0,0.0,0.0,0.0,0.0,0.0,0.0,0.0,0.0,0.0,0.0,0.0,0.0,0.0,0.0,0.0,0.0,0.0,0.0,0.0,0.0,0.0,0.0,0.0,0.0,0.0,0.0,-0.3271,-0.367,-0.5038,-0.7991,-0.8469,-0.8894,-0.965,-0.9781,-0.9907,-1.011,-1.0168,-1.0198,-1.0198,-1.1933,-1.3604,-1.513,-1.6635,-1.8157,-1.9639,-1.9452,-1.9424,-1.9424,-1.9424,-1.9305,-1.9165,-1.8657,-1.8163,-1.7702,-1.7495,-1.7228,-1.6967,-1.7074,-1.7114,-1.7128,-1.7235,-1.7201,-1.7466,-1.9672,-2.0051,-2.009,-2.2068,-2.2178,-2.1621,-2.1777,-2.2129,-2.2487,-2.2789,-2.2877,-2.2906,-2.3062,-2.3091,-2.3091,-2.3091,-2.2974,-2.2779,-2.2477,-2.165,-2.0605,-1.9482,-1.9402,-1.9196,-1.8359,-1.889,-1.9629,-2.0088,-2.0537,-2.0869,-2.1055,-2.1075,-2.1075,-2.1075,-2.0635,-2.0342,-2.0342,-1.998,-1.9609,-1.9297,-1.8867,-1.813,-1.7168,-1.5986,-1.4756,0.0,0.0,0.0,0.0,0.0,0.0,0.0,0.0,0.0,0.0,0.0,0.0,0.0,0.0,0.0,0.0,0.0,0.0,0.0,0.0,0.0,0.0,0.0,0.0,0.0,0.0,0.0,0.0,-0.0529,-0.1842,-0.4195,-0.522,-0.6712,-0.928,-0.9642,-0.989,-1.0118,-1.0198,-1.027,-1.0426,-1.0429,-1.0429,-1.0429,-1.2139,-1.3807,-1.5362,-1.6803,-1.8292,-1.9786,-1.9499,-1.9424,-1.9424,-1.9424,-1.9424,-1.9352,-1.9152,-1.8784,-1.8268,-1.8069,-1.7856,-1.7582,-1.7582,-1.7582,-1.7582,-1.7582,-1.7891,-1.8606,-2.0424,-2.0681,-2.0721,-2.2713,-2.3023,-2.2682,-2.2682,-2.2877,-2.3091,-2.3091,-2.3091,-2.3091,-2.3091,-2.3091,-2.3091,-2.3091,-2.3091,-2.3091,-2.3091,-2.2578,-2.1689,-2.0391,-2.0508,-2.0352,-1.9062,-1.959,-2.0137,-2.0137,-2.0429,-2.0605,-2.0605,-2.0605,-2.0605,-2.0605,-2.0166,-1.9912,-1.9912,-1.9375,-1.9004,-1.8867,-1.8437,-1.7881,-1.7178,-1.632,-1.5028,-1.3291,0.0,0.0,0.0,0.0,0.0,0.0,0.0,0.0,0.0,0.0,0.0,0.0,0.0,0.0,0.0,0.0,0.0,0.0,0.0,0.0,0.0,0.0,0.0,0.0,0.0,0.0,0.0,-0.152,-0.3237,-0.4771,-0.6528,-0.8234,-0.9866,-1.007,-1.0262,-1.0483,-1.05,-1.0568,-1.0714,-1.0721,-1.0721,-1.0721,-1.2479,-1.4068,-1.5521,-1.6988,-1.841,-1.9786,-1.9499,-1.9424,-1.9424,-1.9424,-1.9424,-1.9424,-1.9424,-1.9192,-1.8865,-1.8235,-1.7869,-1.7595,-1.7589,-1.7582,-1.7582,-1.7582,-1.8447,-1.9766,-2.0674,-2.1645,-2.257,-2.3508,-2.3452,-2.3047,-2.311,-2.3057,-2.3047,-2.3091,-2.3091,-2.3091,-2.3091,-2.3091,-2.3091,-2.3091,-2.3091,-2.3091,-2.3091,-2.2812,-2.2402,-2.1982,-2.1543,-2.1064,-2.0693,-2.0615,0.0,-2.0605,-2.0605,-2.0605,-2.0605,-2.0605,-2.0605,-2.0605,-2.0156,-1.9893,-1.9873,-1.9036,-1.8383,-1.8008,-1.7598,-1.7178,-1.6707,-1.5829,-1.459,-1.2944,0.0,0.0,0.0,0.0,0.0,0.0,0.0,0.0,0.0,0.0,0.0,0.0,0.0,0.0,0.0,0.0,0.0,0.0,0.0,0.0,0.0,0.0,0.0,0.0,0.0,0.0,0.0,-0.0448,-0.1879,-0.4747,-0.5649,-0.7245,-1.0115,-1.0473,-1.0571,-1.0653,-1.0656,-1.0677,-1.0717,-1.0721,-1.0721,-1.0721,-1.3713,-1.5292,-1.5521,-1.8237,-1.9585,-1.9786,-1.9499,-1.9424,-1.9424,-1.9424,-1.9424,-1.9424,-1.9424,-1.9192,-1.8885,-1.851,-1.8183,-1.7896,-1.7662,-1.7582,-1.7582,-1.7582,-1.8306,-1.9363,-2.0594,-2.1417,-2.2261,-2.3758,-2.3107,-2.2043,-2.3293,-2.2729,-2.1987,-2.2862,-2.3091,-2.3091,-2.3091,-2.3091,-2.3091,-2.3091,-2.3091,-2.3091,-2.3091,-2.3003,-2.2789,-2.2412,-2.1992,-2.1553,-2.1113,-2.0771,0.0,-2.0605,-2.0605,-2.0605,-2.0605,-2.0605,-2.0605,-2.0605,-1.9883,-1.9326,-1.8968,-1.8193,-1.7676,-1.7559,-1.7451,-1.7178,-1.6707,-1.5829,-1.4873,0.0,0.0,0.0,0.0,0.0,0.0,0.0,0.0,0.0,0.0,0.0,0.0,0.0,0.0,0.0,0.0,0.0,0.0,0.0,0.0,0.0,0.0,0.0,0.0,0.0,0.0,0.0,0.0,-0.0659,-0.2189,-0.4967,-0.6002,-0.7607,-1.0395,-1.067,-1.0721,-1.0721,-1.0721,-1.0721,-1.0721,-1.0721,-1.0721,-1.0721,-1.3451,-1.5034,-1.5521,-1.7928,-1.9337,-1.9786,-1.9499,-1.9424,-1.9424,-1.9424,-1.9424,-1.9424,-1.9424,-1.9265,0.0,0.0,0.0,0.0,0.0,-1.7582,-1.7582,-1.7582,-1.7901,-1.8528,-2.0195,-2.0878,-2.1362,-2.3295,-2.3016,-2.2264,-2.3216,-2.2824,-2.2217,-2.2906,-2.3091,-2.3091,-2.3091,-2.3091,-2.3091,-2.3091,-2.3091,-2.3091,-2.3091,-2.3091,0.0,-2.2588,-2.2168,-2.1738,-2.1259,-2.0859,-2.0605,-2.0605,-2.0605,-2.0605,-2.0605,-2.0605,-2.0605,-2.0605,-1.9822,0.0,0.0,0.0,-1.7305,-1.7119,-1.7109,0.0,0.0,0.0,0.0,0.0,0.0,0.0,0.0,-1.3535,-1.3691,0.0,0.0,0.0,0.0,0.0,0.0,0.0,0.0,0.0,0.0,0.0,0.0,0.0,0.0,0.0,0.0,0.0,0.0,0.0,0.0,0.0,0.0,-0.16,-0.3422,-0.5228,-0.6965,-0.8767,-1.0585,-1.0721,-1.0721,-1.0721,0.0,0.0,0.0,0.0,-1.0721,-1.0721,-1.2413,-1.3994,-1.5486,-1.6914,-1.8331,-1.974,-1.9486,-1.9424,-1.9424,-1.9424,-1.9424,-1.9424,-1.9424,-1.9383,-1.9276,-1.8698,-1.829,-1.7909,-1.7689,-1.7582,-1.7582,-1.7582,0.0,0.0,-1.9574,-2.0132,-2.0479,-2.2405,-2.2945,-2.2916,-2.3115,-2.3042,-2.2916,-2.3047,-2.3091,-2.3091,-2.3091,-2.3091,-2.3091,-2.3091,-2.3091,-2.3091,-2.3091,-2.3091,-2.2964,-2.2588,-2.2168,-2.1738,-2.1259,-2.0859,-2.0605,-2.0605,-2.0605,-2.0605,-2.0605,0.0,0.0,-2.0605,-1.9862,-1.9336,-1.9287,-1.8135,-1.7275,-1.6863,-1.6843,-1.6824,-1.6775,-1.6775,-1.6746,-1.6697,-1.6697,-1.6553,-1.6212,-1.498,-1.5019,0.0,0.0,0.0,0.0,0.0,0.0,0.0,0.0,0.0,0.0,0.0,0.0,0.0,0.0,0.0,0.0,0.0,0.0,0.0,0.0,0.0,0.0,-0.161,-0.3422,-0.5228,-0.6965,-0.8767,-1.0585,-1.0721,-1.0721,-1.0721,-1.0721,-1.0721,-1.0721,-1.0721,-1.0721,-1.0721,-1.2413,-1.3922,-1.513,0.0,0.0,-1.9511,-1.9392,-1.9424,-1.9424,-1.9424,-1.9424,-1.9424,-1.9424,-1.9092,-1.8651,-1.8537,-1.8156,-1.7662,-1.7602,-1.7582,-1.7582,-1.7582,-1.805,-1.8701,-1.881,-2.0053,-2.1538,-2.2062,-2.1942,0.0,-2.3277,-2.2704,-2.1845,-2.2862,-2.3091,-2.3091,-2.3091,-2.3091,-2.3091,-2.3091,-2.3091,-2.3091,-2.3091,-2.3091,-2.2964,-2.2588,-2.2168,-2.1738,-2.1259,-2.0859,-2.0605,-2.0605,-2.0605,-2.0605,-2.0605,-2.0605,-2.0605,-2.0605,-2.0088,-1.9648,-1.9307,-1.8408,-1.7852,-1.7764,-1.7764,-1.7607,-1.7266,-1.7256,-1.708,-1.6697,-1.6697,-1.6833,-1.7142,-1.6482,-1.6172,0.0,0.0,0.0,0.0,0.0,0.0,0.0,0.0,0.0,0.0,0.0,0.1329,0.0856,0.0,0.0,0.0,0.0,0.0,0.0,0.0,0.0,0.0,-0.1613,-0.3422,-0.5228,-0.6965,-0.8767,-1.0585,-1.0721,-1.0721,-1.0721,-1.0721,-1.0721,-1.0721,-1.0721,-1.0721,-1.0721,-1.1483,-1.2917,-1.5003,-1.5817,-1.7343,-1.9424,-1.9424,-1.9424,-1.9424,-1.9424,-1.9424,-1.9417,-1.9205,-1.8885,-1.8477,-1.833,-1.7989,-1.7582,-1.7582,-1.7582,-1.7582,-1.7582,-1.7798,-1.8151,-1.8421,-1.9574,-2.094,-2.149,-2.1922,-2.2397,-2.3212,-2.284,-2.235,-2.295,-2.3091,-2.3091,-2.3091,-2.3091,-2.3091,-2.3091,-2.3091,-2.3091,-2.3091,-2.3091,-2.2964,-2.2588,-2.2168,-2.1738,-2.1259,-2.0859,-2.0605,-2.0605,-2.0605,-2.0605,-2.0605,-2.0605,-2.0605,-2.0605,-2.0166,-1.9736,-1.9316,-1.8887,-1.8652,-1.8652,-1.8437,-1.8223,-1.8018,-1.7803,-1.7588,-1.734,-1.734,-1.748,-1.7686,-1.7471,-1.7256,0.0,0.0,0.0,0.0,0.0,0.0,0.0,0.0,0.4589,0.364,0.2287,0.1051,0.0174,0.0,0.0,0.0,0.0,0.0,0.0,0.0,0.0,0.0,-0.1881,-0.3824,-0.523,-0.7298,-0.9105,-1.0585,-1.0721,-1.0721,-1.0721,-1.0721,-1.0721,-1.0721,-1.0721,-1.0721,-1.0721,-1.0891,-1.2318,-1.5003,-1.5212,-1.6737,-1.9424,-1.9424,-1.9424,-1.9424,-1.9424,-1.9332,-1.9259,-1.8965,-1.8664,-1.8377,-1.8076,-1.7802,-1.7582,-1.7582,-1.7582,-1.7582,-1.7582,-1.7481,-1.7373,-1.7953,-1.8995,-2.0143,-2.0752,-2.1943,-2.3091,-2.3091,-2.3091,-2.3091,-2.3091,-2.3091,-2.3091,-2.3091,-2.3091,-2.3091,-2.3091,-2.3091,-2.3091,-2.3091,-2.3091,-2.2964,-2.2588,-2.2236,-2.1826,-2.1268,-2.0859,-2.0605,-2.0605,-2.0605,-2.0605,-2.0605,-2.0605,-2.0605,-2.0605,-2.0244,-1.9893,-1.9551,-1.9453,-1.9404,-1.9404,-1.8994,-1.8724,-1.8724,-1.8315,-1.8135,-1.8135,-1.8047,-1.8047,-1.8135,-1.8135,-1.8052,0.5424,0.4813,0.0,0.554,0.6613,0.7314,0.0,0.0,0.3741,0.2473,0.1105,0.012,0.0,0.0,0.0,0.0,0.0,0.0,0.0,0.0,0.0,0.0,-0.3021,-0.5163,-0.5364,-0.8437,-1.0452,-1.0654,-1.0721,-1.0721,-1.0721,-1.0721,-1.0721,-1.0721,-1.0721,-1.0721,-1.0721,-1.1988,-1.3462,-1.5008,-1.6315,-1.7768,-1.9424,-1.9424,-1.9424,-1.9424,-1.9424,-1.9219,-1.8951,-1.8657,-1.8364,-1.8015,-1.7756,-1.7615,-1.7582,-1.7582,-1.7582,-1.7582,-1.7582,-1.7562,-1.7494,-1.7032,-1.8471,-2.0237,-1.9833,-2.1311,-2.3091,-2.3091,-2.3091,-2.3091,-2.3091,-2.3091,-2.3091,-2.3091,-2.3091,-2.3091,-2.3091,-2.3091,-2.3091,-2.3091,-2.3091,-2.2964,-2.2588,-2.2471,-2.2168,-2.1317,-2.0859,-2.0605,-2.0605,-2.0605,-2.0605,-2.0605,-2.0605,-2.0605,-2.0605,-2.0556,-2.0507,-2.0468,-2.0059,-1.9844,-1.9844,-1.9443,-1.9219,-1.9219,-1.8789,-1.8529,-1.8529,-1.8159,-1.8169,-1.8529,-1.8529,-1.8334,0.3684,0.0,0.0,0.0,0.4498,0.5389,0.5041,0.3871,0.2693,0.2231,0.0969,0.0,0.0,0.0,-0.0325,0.0,-0.1667,-0.2021,-0.3022,-0.2299,-0.2027,-0.2855,-0.4403,-0.5431,-0.5431,-0.7633,-0.9573,-1.0654,-1.0721,-1.0721,-1.0721,-1.0721,-1.0721,-1.0721,-1.0721,-1.0721,-1.0721,-1.2077,-1.3532,-1.5003,-1.6413,-1.7917,-1.9424,-1.9424,-1.9424,-1.9424,-1.9424,-1.9199,-1.8905,-1.8611,-1.8317,-1.7962,-1.7702,-1.7582,-1.7582,-1.7582,-1.7582,-1.7582,-1.7582,-1.7582,-1.7639,-1.7738,-1.8935,-2.0438,-2.0529,-2.1721,-2.3091,-2.3091,-2.3091,-2.3091,-2.3091,-2.3091,-2.3091,-2.3091,-2.3091,-2.3091,-2.3091,-2.3091,-2.3091,-2.3091,-2.3091,-2.3042,-2.2867,-2.2676,-2.2314,-2.1709,-2.124,-2.0859,-2.0635,-2.0605,-2.0605,-2.0605,-2.0605,-2.0605,-2.0605,-2.0605,-2.0605,-2.0605,-2.0429,-2.0293,-2.0293,-1.9883,-1.9648,-1.9648,-1.9238,-1.9014,-1.9014,-1.8838,-1.8848,-1.9014,-1.9014,-1.8916,0.2278,0.0,0.0,0.2172,0.3023,0.4048,0.3592,0.2799,0.203,0.1692,0.0741,0.0,0.0,-0.0386,-0.1179,-0.2496,-0.3229,-0.4089,-0.524,-0.4331,-0.3982,-0.5001,-0.5213,-0.544,-0.5996,-0.7683,-0.9305,-1.0585,-1.0721,-1.0721,-1.0721,-1.0721,-1.0721,-1.0721,-1.0721,-1.07,-1.0656,-1.2422,-1.3858,-1.4975,-1.6762,-1.8286,-1.9424,-1.9424,-1.9424,-1.9366,-1.9279,-1.9078,-1.8784,-1.849,-1.819,-1.7896,-1.7669,-1.7582,-1.7582,-1.7582,-1.7582,-1.7582,-1.7582,-1.7582,-1.7691,-1.8275,-1.9375,-2.0533,-2.112,-2.2129,-2.3091,-2.3091,-2.3091,-2.3091,-2.3091,-2.3091,-2.3091,-2.3091,-2.3091,-2.3091,-2.3091,-2.3091,-2.3091,-2.3091,-2.3091,-2.3091,-2.3091,-2.2847,-2.2539,-2.2119,-2.1689,-2.1211,-2.0674,-2.0605,-2.0605,-2.0605,-2.0605,-2.0605,-2.0605,-2.0605,-2.0605,-2.0605,-2.0605,-2.0605,-2.0605,-2.0264,-2.0088,-2.0088,-1.9678,-1.9463,-1.9463,-1.9346,-1.9346,-1.9463,-1.9463,-1.9521,0.0,0.0,0.2079,0.2166,0.3354,0.4075,0.258,0.237,0.203,0.0432,0.0062,0.0,0.0,-0.1404,-0.265,-0.2688,-0.43,-0.5513,-0.5439,-0.5366,-0.527,-0.5127,-0.4991,-0.5687,0.0,-0.9503,-1.0651,-1.0721,-1.0721,-1.0721,-1.0721,-1.0721,-1.0721,-1.0721,-1.0721,-1.0649,-1.05,-1.3424,-1.4898,-1.4862,-1.7882,-1.9366,-1.9424,-1.9424,-1.9424,-1.9352,-1.9065,-1.8771,-1.8477,-1.8129,-1.7876,-1.7595,-1.7589,-1.7582,-1.7582,-1.7582,-1.7582,-1.7582,-1.7582,-1.7582,-1.7691,-1.8275,-1.9375,-2.0533,-2.112,-2.2129,-2.3091,-2.3091,-2.3091,-2.3091,-2.3091,-2.3091,-2.3091,-2.3091,-2.3091,-2.3091,-2.3091,-2.3091,-2.3091,-2.3091,-2.3091,-2.3091,-2.3091,-2.3081,-2.2935,-2.2559,-2.2139,-2.1553,-2.0723,-2.0605,-2.0605,-2.0605,-2.0605,-2.0605,-2.0605,-2.0605,-2.0605,-2.0605,-2.0605,-2.0605,-2.0605,-2.0595,-2.0586,-2.0586,-2.0117,-1.9893,-1.9893,-1.9482,-1.9502,-1.9893,-1.9893,-2.0127,0.0,0.0,0.0694,0.0713,0.1158,0.1369,0.0881,0.0817,0.0689,0.0125,-0.0807,-0.1481,-0.1489,-0.2887,-0.4453,-0.5742,-0.6741,-0.7779,-0.8904,-0.8207,-0.783,-0.8563,-0.7766,0.0,0.0,0.0,0.0,-1.0578,-1.0721,-1.0721,-1.0721,-1.0721,-1.0721,-1.0721,-1.1828,-1.233,-1.2093,-1.518,-1.6625,-1.6441,-1.8418,-1.9424,-1.9424,-1.9424,-1.9424,-1.9352,-1.9052,-1.8758,-1.847,-1.8115,-1.7862,-1.7582,-1.7582,-1.7582,-1.7582,-1.7582,-1.7582,-1.7582,-1.7582,-1.7582,-1.7841,-1.9296,-2.0047,-2.0676,-2.2059,-2.2775,-2.3091,-2.3091,-2.3091,-2.3091,-2.3091,-2.3091,-2.3091,-2.3091,-2.3091,-2.3091,-2.3091,-2.3091,-2.3091,-2.3091,-2.3091,-2.3091,-2.3091,-2.3091,-2.2955,-2.2578,-2.1914,-2.124,-2.0683,-2.0605,-2.0605,-2.0605,-2.0605,-2.0605,-2.0605,-2.0605,-2.0605,-2.0605,-2.0605,-2.0605,-2.0605,-2.0605,-2.0605,-2.0605,-2.042,-2.0342,-2.0342,-2.0243,-2.0243,-2.0342,-2.0342,-2.0458,0.0224,0.0,0.0,0.0,0.0,0.0,0.0,0.0,-0.0189,-0.0757,-0.1543,-0.23,-0.2904,-0.4307,-0.5886,-0.7296,-0.8386,-0.9533,-1.0728,-1.0066,-0.9746,-1.0491,-0.9651,-0.9351,0.0,0.0,0.0,-1.0575,-1.0721,-1.0721,-1.0721,-1.0721,-1.0721,-1.0721,-1.2413,-1.3137,-1.2825,-1.6012,-1.7749,-1.8005,-1.8972,-1.9424,-1.9424,-1.9424,-1.9424,-1.9403,-1.8945,-1.8664,-1.8457,-1.805,-1.7762,-1.7582,-1.7582,-1.7582,-1.7582,-1.7582,-1.7582,-1.7582,-1.7582,-1.7582,-1.7893,-1.9781,-2.0377,-2.0724,-2.257,-2.3091,-2.3091,-2.3091,-2.3091,-2.3091,-2.3091,-2.3091,-2.3091,-2.3091,-2.3091,-2.3091,-2.3091,-2.3091,-2.3091,-2.3091,-2.3091,-2.3091,-2.3091,-2.3091,-2.2896,-2.2373,-2.1816,-2.1309,-2.0859,-2.0703,-2.0605,-2.0605,-2.0605,-2.0605,-2.0605,-2.0605,-2.0605,-2.0605,-2.0605,-2.0605,-2.0605,-2.0605,-2.0605,-2.0605,-2.0605,-2.0605,-2.0605,-2.0605,-2.0605,-2.0605,-2.0605,-2.0605,0.0,-0.0061,-0.0125,-0.0128,-0.0196,-0.0263,-0.0259,-0.0256,-0.0695,-0.2266,-0.2425,-0.2695,0.0,0.0,-0.6965,-0.742,-0.9175,-1.0609,-1.085,-1.0904,-1.0853,0.0,0.0,0.0,0.0,0.0,0.0,-1.0711,0.0,-1.0721,-1.0721,-1.0787,-1.085,-1.085,-1.2602,-1.3324,-1.2955,-1.6097,-1.8257,-1.9424,-1.9424,-1.9424,-1.9424,-1.9424,-1.9417,-1.9312,-1.8738,-1.8484,-1.8424,-1.7822,-1.7582,-1.7582,-1.7582,-1.7582,-1.7582,-1.7582,-1.7582,-1.7582,-1.7582,-1.7582,-1.7893,-1.9781,-2.0377,-2.0724,-2.257,-2.3091,-2.3091,-2.3091,-2.3091,-2.3091,-2.3091,-2.3091,-2.3091,-2.3091,-2.3091,-2.3091,-2.3091,-2.3091,-2.3091,-2.3091,-2.3091,-2.3091,-2.3091,-2.3091,-2.2818,-2.2041,-2.1894,-2.1719,-2.122,-2.083,-2.0605,-2.0605,-2.0605,-2.0605,-2.0605,-2.0605,-2.0605,-2.0605,-2.0605,-2.0605,-2.0605,-2.0605,-2.0605,-2.0605,-2.0605,-2.0605,-2.0605,-2.0605,-2.0605,-2.0605,-2.0605,-2.0605,0.0,-0.1,-0.1987,-0.198,-0.3038,-0.4001,-0.3856,-0.381,-0.3874,-0.41,-0.488,-0.5616,0.0,0.0,0.0,-0.9004,-0.9966,0.0,-1.1067,-1.1304,0.0,-1.108,0.0,-1.0992,-1.069,-1.0765,0.0,0.0,-1.0721,-1.0721,-1.0721,-1.196,-1.2606,-1.2606,-1.5371,-1.6738,-1.6371,-1.8093,-1.9089,-1.9424,-1.9424,-1.9424,-1.9424,-1.9424,-1.9245,-1.9018,-1.8651,-1.8364,-1.8075,-1.7742,-1.7582,-1.7582,-1.7582,-1.7582,-1.7582,-1.7582,-1.7582,-1.7582,-1.7582,-1.7582,-1.7893,-1.9781,-2.0377,-2.0724,-2.257,-2.3091,-2.3091,-2.3091,-2.3091,-2.3091,-2.3091,-2.3091,-2.3091,-2.3091,-2.3091,-2.3091,-2.3091,-2.3091,-2.3091,-2.3091,-2.3091,-2.3091,-2.3091,-2.3091,-2.2916,-2.2432,-2.209,-2.1611,-2.084,-2.0674,-2.0605,-2.0605,-2.0605,-2.0605,-2.0605,-2.0605,-2.0605,-2.0605,-2.0605,-2.0605,-2.0605,-2.0605,-2.0605,-2.0605,-2.0605,-2.0605,-2.0605,-2.0605,-2.0605,-2.0605,-2.0605,-2.0605,-0.1182,-0.2489,-0.3914,-0.3869,-0.4578,-0.5233,-0.4973,-0.4878,-0.4947,-0.5397,-0.5959,0.0,0.0,0.0,0.0,0.0,0.0,0.0,-1.1173,-1.1369,-1.1457,0.0,-1.1277,0.0,-1.085,-1.083,-1.0816,0.0,-1.0721,-1.0721,-1.0721,-1.2347,-1.3325,-1.3325,-1.6408,-1.8265,-1.8561,-1.9109,-1.9424,-1.9424,-1.9424,-1.9424,-1.9424,-1.9424,-1.9205,-1.8911,-1.8617,-1.8323,-1.7969,-1.7709,-1.7582,-1.7582,-1.7582,-1.7582,-1.7582,-1.7582,-1.7582,-1.7582,-1.7582,-1.7996,-1.8704,-1.9978,-2.0818,-2.1492,-2.2704,-2.3091,-2.3091,-2.3091,-2.3091,-2.3091,-2.3091,-2.3091,-2.3091,-2.3091,-2.3091,-2.3091,-2.3091,-2.3091,-2.3091,-2.3091,-2.3091,-2.3091,-2.3091,-2.3091,-2.2955,-2.2578,-2.2158,-2.1641,-2.0947,-2.0723,-2.0605,-2.0605,-2.0605,-2.0605,-2.0605,-2.0605,-2.0605,-2.0605,-2.0605,-2.0605,-2.0605,-2.0605,-2.0605,-2.0605,-2.0605,-2.0605,-2.0605,-2.0605,-2.0605,-2.0605,-2.0605,-2.0605,-0.3061,-0.4363,-0.5741,-0.5747,-0.5767,-0.5725,-0.5426,-0.5269,-0.5465,-0.6588,0.0,0.0,-0.819,-0.8486,-0.8703,-0.9286,0.0,-1.0487,-1.1149,-1.1294,-1.1399,-1.1419,-1.1287,-1.1134,-1.0992,-1.089,-1.0951,-1.1059,-1.1045,-1.1045,-1.1045,-1.2672,-1.3818,-1.4215,-1.6888,-1.879,-1.9746,-1.9492,-1.9424,-1.9424,-1.9424,-1.9424,-1.9424,-1.9325,-1.9145,-1.8851,-1.8557,-1.8263,-1.7909,-1.7695,-1.7582,-1.7582,-1.7582,-1.7582,-1.7582,-1.7582,-1.7582,-1.7575,-1.7542,-1.8547,-1.9865,-2.0256,-2.1297,-2.2506,-2.2945,-2.3091,-2.3091,-2.3091,-2.3091,-2.3091,-2.3091,-2.3091,-2.3091,-2.3091,-2.3091,-2.3091,-2.3091,-2.3091,-2.3091,-2.3091,-2.3091,-2.3091,-2.3091,-2.3091,-2.2955,-2.2578,-2.2207,-2.1816,-2.1337,-2.0879,-2.0605,-2.0605,-2.0605,-2.0605,-2.0605,-2.0605,-2.0605,-2.0605,-2.0605,-2.0605,-2.0605,-2.0605,-2.0605,-2.0605,-2.0605,-2.0605,-2.0605,-2.0605,-2.0605,-2.0605,-2.0605,-2.0605,-0.4878,-0.6205,-0.754,-0.756,-0.8544,-0.9469,-0.902,-0.8814,0.0,0.0,0.0,-0.8125,-0.8278,-0.8506,0.0,-0.9303,0.0,0.0,0.0,0.0,-1.144,0.0,0.0,0.0,0.0,0.0,0.0,0.0,-1.2869,-1.2869,-1.2869,-1.4488,-1.652,-1.8951,-1.9356,-1.9483,-1.9446,-1.9392,-1.9424,-1.9424,-1.9424,-1.9424,-1.9417,-1.9112,-1.8844,-1.8551,-1.8257,0.0,-1.7655,-1.7602,-1.7582,-1.7582,-1.7582,-1.7582,-1.7582,-1.7582,-1.7582,-1.7549,-1.736,-1.8818,-2.0735,-2.0467,-2.1297,-2.2506,-2.2945,-2.3091,-2.3091,-2.3091,-2.3091,-2.3091,-2.3091,-2.3091,-2.3091,-2.3091,-2.3091,-2.3091,-2.3091,-2.3091,-2.3091,-2.3091,-2.3091,-2.3091,-2.3091,-2.3091,-2.2955,-2.2578,-2.2451,-2.2246,-2.1826,-2.1104,-2.0605,-2.0605,-2.0605,-2.0605,-2.0605,-2.0605,-2.0605,-2.0605,-2.0605,-2.0605,-2.0605,-2.0605,-2.0605,-2.0605,-2.0605,-2.0605,-2.0605,-2.0605,-2.0605,-2.0605,-2.0605,-2.0605,-0.6727,-0.8081,-0.9637,-1.0548,-1.1229,-1.1547,-1.1069,0.0,0.0,0.0,0.0,-0.8231,-0.8163,0.0,0.0,0.0,0.0,0.0,0.0,0.0,0.0,0.0,0.0,0.0,0.0,0.0,-1.2936,-1.4507,-1.4619,-1.4619,-1.4619,-1.6193,-1.7947,-1.9907,-1.9873,-1.9659,-1.943,-1.9424,-1.9424,-1.9424,-1.9424,-1.9285,-1.9132,-1.8991,-1.8677,-1.825,-1.8055,-1.7869,-1.7582,-1.7582,-1.7582,-1.7582,-1.7582,-1.7582,-1.7582,-1.7582,-1.7582,-1.7542,-1.73,-1.8882,-2.0909,-2.0319,-2.1477,-2.3126,-2.3109,-2.3091,-2.3091,-2.3091,-2.3091,-2.3091,-2.3091,-2.3091,-2.3091,-2.3091,-2.3091,-2.3091,-2.3091,-2.3091,-2.3091,-2.3091,-2.3091,-2.3091,-2.3091,-2.3091,-2.3023,-2.2828,-2.2613,-2.2441,-2.2236,-2.1455,-2.0908,-2.0908,-2.0703,-2.0605,-2.0605,-2.0605,-2.0605,-2.0605,-2.0605,-2.0605,-2.0605,-2.0605,-2.0605,-2.0605,-2.0605,-2.0605,-2.0605,-2.0605,-2.0605,-2.0605,-2.0605,-2.0605,-0.9441,-1.0379,-1.1699,-1.3386,-1.355,-1.3124,-1.2521,-1.2033,0.0,0.0,0.0,-0.8333,0.0,0.0,0.0,0.0,0.0,0.0,0.0,0.0,0.0,0.0,0.0,0.0,0.0,0.0,0.0,-1.5799,-1.6196,-1.6358,-1.6358,-1.7737,-1.8901,-1.9754,-1.974,-1.9599,-1.943,-1.9424,-1.9424,-1.9424,-1.9424,-1.9212,-1.8918,-1.8858,-1.8544,-1.7989,-1.7922,-1.7809,-1.7582,-1.7582,-1.7582,-1.7582,-1.7582,-1.7582,-1.7582,-1.7582,-1.7582,-1.7528,-1.7226,-1.8728,-2.0769,-2.0054,-2.1596,-2.3711,-2.3227,-2.3091,-2.3091,-2.3091,-2.3091,-2.3091,-2.3091,-2.3091,-2.3091,-2.3091,-2.3091,-2.3091,-2.3091,-2.3091,-2.3091,-2.3091,-2.3091,-2.3091,-2.3091,-2.3091,-2.3091,-2.3091,-2.2818,-2.2646,-2.2646,-2.1941,-2.1434,-2.1346,-2.0889,-2.0605,-2.0605,-2.0605,-2.0605,-2.0605,-2.0605,-2.0605,-2.0605,-2.0605,-2.0605,-2.0605,-2.0605,-2.0605,-2.0605,-2.0605,-2.0605,-2.0605,-2.0605,-2.0605,-1.4315,-1.3949,-1.3451,-1.5204,-1.5389,-1.4835,-1.3904,0.0,0.0,0.0,-0.9805,-0.946,-0.8233,0.0,0.0,0.0,0.0,0.0,0.0,0.0,0.0,0.0,0.0,0.0,0.0,0.0,-1.4054,-1.5789,-1.7141,-1.7908,-1.7908,-1.9235,-1.9939,-1.9806,-1.9546,-1.9392,-1.9424,-1.9424,-1.9424,-1.9424,-1.9424,-1.9212,-1.8918,-1.8651,-1.835,-1.7975,-1.7749,-1.7609,0.0,-1.7582,-1.7582,-1.7582,-1.7582,-1.7582,-1.7582,-1.7582,-1.7582,-1.7502,-1.6941,-1.8348,-2.036,-1.9731,-2.1472,-2.3711,-2.3227,-2.3091,-2.3091,-2.3091,-2.3091,-2.3091,-2.3091,-2.3091,-2.3091,-2.3091,-2.3091,-2.3091,-2.3091,-2.3091,-2.3091,-2.3091,-2.3091,-2.3091,-2.3091,-2.3091,-2.3091,-2.3091,-2.3062,-2.3033,-2.3033,-2.2643,-2.2246,-2.1865,-2.1104,-2.0605,-2.0605,-2.0605,-2.0605,-2.0605,-2.0605,-2.0605,-2.0605,-2.0605,-2.0605,-2.0605,-2.0605,-2.0605,-2.0605,-2.0605,-2.0605,-2.0605,-2.0605,-2.0605,-1.5201,-1.5169,-1.5269,-1.7017,-1.7039,-1.6486,-1.563,0.0,0.0,-1.0649,-0.9998,-0.9608,-0.8237,-0.8089,0.0,0.0,0.0,0.0,0.0,0.0,0.0,0.0,0.0,0.0,0.0,0.0,-1.7086,-1.8674,-1.9337,-1.9509,-1.9111,-1.9666,-1.984,-1.9546,-1.9491,-1.9424,-1.9424,-1.9424,-1.9279,-1.9098,-1.9098,-1.8851,-1.8335,-1.8277,-1.8056,-1.7762,-1.7635,-1.7582,0.0,-1.7582,-1.7582,-1.7582,-1.7582,-1.7582,-1.7582,-1.7582,-1.7582,-1.76,-1.7752,-1.8935,-2.0406,-2.0546,-2.1876,-2.3315,-2.3149,-2.3091,-2.3091,-2.3091,-2.3091,-2.3091,-2.3091,-2.3091,-2.3091,-2.3091,-2.3091,-2.3091,-2.3091,-2.3091,-2.3091,-2.3091,-2.3091,-2.3091,-2.3091,-2.3091,-2.3091,-2.3091,-2.3091,-2.3091,-2.3091,-2.273,-2.2353,-2.1934,-2.1338,-2.0859,-2.0625,-2.0605,-2.0605,-2.0605,-2.0605,-2.0605,-2.0605,-2.0605,-2.0605,-2.0605,-2.0605,-2.0605,-2.0605,-2.0605,-2.0605,-2.0605,-2.0605,-2.0605,-1.6555,-1.6731,-1.6979,-1.8719,-1.8703,-1.8027,0.0,0.0,-1.5145,-1.1816,-1.0823,-1.0141,-0.8825,-0.8283,-0.8137,0.0,0.0,0.0,0.0,0.0,0.0,0.0,0.0,-1.4615,0.0,-1.8483,-1.8915,-1.9867,-1.9833,-1.9569,-1.9033,-1.9417,-1.9579,-1.943,-1.9424,-1.9424,-1.9424,-1.9279,-1.9132,-1.8925,-1.8838,-1.8531,-1.7995,-1.7995,-1.7876,-1.7582,-1.7582,-1.7582,0.0,-1.7582,-1.7582,-1.7582,-1.7582,-1.7582,-1.7582,-1.7582,-1.7838,-1.8213,-1.8439,-1.9569,-2.1026,-2.1229,-2.2129,-2.3091,-2.3091,-2.3091,-2.3091,-2.3091,-2.3091,-2.3091,-2.3091,-2.3091,-2.3091,-2.3091,-2.3091,-2.3091,-2.3091,-2.3091,-2.3091,-2.3091,-2.3091,-2.3091,-2.3091,-2.3091,-2.3091,-2.3091,-2.3091,-2.3091,-2.3091,-2.2838,-2.2539,-2.2119,-2.1689,-2.1191,-2.0654,-2.0605,-2.0605,-2.0605,-2.0605,-2.0605,-2.0605,-2.0605,-2.0605,-2.0605,-2.0605,-2.0605,-2.0605,-2.0605,-2.0605,-2.0605,-2.0605,-2.0605,-1.9447,-1.913,-1.8512,-2.0234,-2.0241,-1.9434,0.0,-1.7569,-1.6539,-1.4334,-1.2813,-1.1512,-1.0194,-0.8874,-0.8432,0.0,0.0,0.0,0.0,0.0,0.0,0.0,0.0,-1.4805,-1.7559,-1.8247,-1.8401,-1.8148,-1.7828,0.0,-1.7253,-1.8626,-1.943,-1.9424,-1.9424,-1.9424,-1.9424,-1.9078,-1.8925,-1.8918,-1.8631,-1.8337,-1.7995,-1.7995,-1.7876,-1.7582,-1.7582,-1.7582,0.0,-1.7582,-1.7582,-1.7582,-1.7582,-1.7582,-1.7582,-1.7582,-1.8454,-1.9486,-1.8731,-2.0192,-2.2281,-2.1563,-2.2129,-2.3091,-2.3091,-2.3091,-2.3091,-2.3091,-2.3091,-2.3091,-2.3091,-2.3091,-2.3091,-2.3091,-2.3091,-2.3091,-2.3091,-2.3091,-2.3091,-2.3091,-2.3091,-2.3091,-2.3091,-2.3091,-2.3091,-2.3091,-2.3091,-2.3091,-2.3091,-2.3091,-2.2925,-2.2549,-2.2129,-2.1523,-2.0674,-2.0605,-2.0605,-2.0605,-2.0605,-2.0605,-2.0605,-2.0605,-2.0605,-2.0605,-2.0605,-2.0605,-2.0605,-2.0605,-2.0605,-2.0605,-2.0605,-2.0605,-1.843,-1.8691,-1.8712,-1.911,-1.8891,-1.8397,-1.7602,-1.7121,-1.629,-1.4298,-1.3536,-1.2619,-1.0386,-0.9604,-0.9164,-0.8862,0.0,0.0,0.0,0.0,0.0,0.0,-1.7427,-1.91,0.0,0.0,-1.9861,-1.9578,-1.9296,-1.9013,-1.8731,-1.9179,-1.9424,-1.9424,-1.9424,-1.9424,-1.9424,-1.9072,-1.8824,-1.8624,-1.833,-1.8023,-1.7729,-1.7729,-1.7675,-1.7582,-1.7582,-1.7582,-1.7582,-1.7582,-1.7582,-1.7582,-1.7582,-1.7582,-1.7582,-1.7582,-1.8268,-1.9239,-1.9677,-2.0755,-2.2032,-2.2405,-2.2775,-2.3091,-2.3091,-2.3091,-2.3091,-2.3091,-2.3091,-2.3091,-2.3091,-2.3091,-2.3091,-2.3091,-2.3091,-2.3091,-2.3091,-2.3091,-2.3091,-2.3091,-2.3091,-2.3091,-2.3091,-2.3091,-2.3091,-2.3091,-2.3091,-2.3091,-2.3091,-2.2847,-2.2656,-2.2519,-2.2139,-2.165,-2.1074,-2.0742,-2.0605,-2.0605,-2.0605,-2.0605,-2.0605,-2.0605,-2.0605,-2.0605,-2.0605,-2.0605,-2.0605,-2.0605,-2.0605,-2.0605,-2.0605,-2.0605,0.0,-1.8255,-1.8495,-1.837,-1.8096,-1.7716,-1.7114,-1.6754,-1.6203,-1.4894,-1.4214,-1.3363,-1.1588,-1.0838,-1.0407,-1.0269,0.0,0.0,0.0,0.0,0.0,-1.7209,0.0,0.0,0.0,-2.0715,-2.0555,-2.0254,-1.996,-1.9673,-1.9379,-1.9424,-1.9424,-1.9424,-1.9424,-1.9312,-1.9199,-1.8905,-1.8611,-1.8323,-1.8016,-1.7769,-1.7582,-1.7582,-1.7582,-1.7582,-1.7582,-1.7582,0.0,-1.7582,-1.7582,-1.7582,-1.7582,-1.7582,-1.7569,-1.7514,-1.8409,-1.981,-2.0111,-2.122,-2.2609,-2.2963,-2.3091,-2.3091,-2.3091,-2.3091,-2.3091,-2.3091,-2.3091,-2.3091,-2.3091,-2.3091,-2.3091,-2.3091,-2.3091,-2.3091,-2.3091,-2.3091,-2.3091,-2.3091,-2.3091,-2.3091,-2.3091,-2.3091,-2.3091,-2.3091,-2.3091,-2.3091,-2.3091,-2.2867,-2.2711,-2.2711,-2.2373,-2.2012,-2.1697,-2.1162,-2.0742,-2.0615,-2.0605,-2.0605,-2.0605,-2.0605,-2.0605,-2.0605,-2.0605,-2.0605,-2.0605,-2.0605,-2.0605,-2.0605,-2.0605,-2.0605,0.0,-1.7849,-1.7862,-1.7842,-1.7675,-1.7315,-1.6767,-1.6433,0.0,-1.5838,-1.4835,-1.388,-1.3508,-1.2444,-1.201,-1.3151,0.0,0.0,0.0,0.0,0.0,0.0,-1.8292,0.0,-2.0113,-2.0494,-2.0521,-2.0227,-1.9933,-1.9653,-1.9379,-1.9424,-1.9417,-1.9397,-1.9332,-1.9205,-1.8925,-1.8617,-1.8323,-1.7989,-1.7736,-1.7582,-1.7582,-1.7582,-1.7582,0.0,-1.7582,-1.7582,-1.7582,-1.7582,-1.7582,-1.7582,-1.7582,-1.7569,-1.7515,-1.73,-1.8759,-2.0827,-2.0114,-2.1603,-2.3682,-2.3227,-2.3091,-2.3091,-2.3091,-2.3091,-2.3091,-2.3091,-2.3091,-2.3091,-2.3091,-2.3091,-2.3091,-2.3091,-2.3091,-2.3091,-2.3091,-2.3091,-2.3091,-2.3091,-2.3091,-2.3091,-2.3091,-2.3091,-2.3091,-2.3091,-2.3091,-2.3091,-2.3091,-2.3071,-2.3062,-2.3091,-2.2721,-2.251,-2.251,-2.1717,-2.1103,-2.0723,-2.0693,-2.0683,-2.0654,-2.0683,-2.0664,-2.0605,-2.0605,-2.0605,-2.0605,-2.0605,-2.0605,-2.0605,-2.0605,-2.0605,-1.6224,0.0,-1.6633,-1.6357,-1.6244,-1.6206,0.0,0.0,0.0,0.0,0.0,0.0,0.0,0.0,0.0,0.0,0.0,0.0,-1.4722,0.0,0.0,-1.9746,-2.0088,-2.0417,-2.0588,-2.0428,-2.0214,-1.992,-1.9633,-1.9497,-1.943,-1.9424,-1.9265,-1.9038,-1.9025,-1.8991,-1.8925,-1.8355,-1.8062,-1.7989,-1.7736,-1.7582,-1.7582,-1.7582,-1.7582,-1.7582,-1.7582,-1.7582,-1.7582,-1.7582,-1.7582,-1.7582,-1.7582,-1.7442,-1.7293,-1.7226,-1.8473,-2.0114,-1.9942,-2.138,-2.3227,-2.313,-2.3091,-2.3091,-2.3091,-2.3091,-2.3091,-2.3091,-2.3091,-2.3091,-2.3091,-2.3091,-2.3091,-2.3091,-2.3091,-2.3091,-2.3091,-2.3091,-2.3091,-2.3091,-2.3091,-2.3091,-2.3091,-2.3091,-2.3091,-2.3091,-2.3091,-2.3091,-2.3091,-2.2818,-2.2783,-2.3062,-2.2721,-2.251,-2.251,-2.2031,-2.1689,-2.1582,-2.1572,-2.1426,-2.1094,-2.1396,-2.129,-2.0615,-2.0605,-2.0605,-2.0605,-2.0605,-2.0605,-2.0605,-2.0605,-2.0605,-1.5784,-1.6046,-1.6239,-1.6072,-1.6032,-1.6032,0.0,0.0,0.0,0.0,0.0,0.0,0.0,0.0,0.0,0.0,0.0,0.0,0.0,0.0,-1.978,-2.0368,-2.0715,-2.0848,0.0,-2.0287,-1.9967,-1.9813,-1.9533,-1.9424,-1.9424,-1.9239,-1.9092,-1.8925,-1.8601,-1.8468,-1.8468,-1.8155,-1.7922,-1.7829,-1.7662,-1.7582,-1.7582,-1.7582,-1.7582,-1.7582,-1.7582,-1.7582,-1.7582,-1.7582,-1.7582,-1.7569,-1.7435,-1.7695,-1.7962,-1.7732,-1.8947,-2.0763,-2.0574,-2.1671,-2.3091,-2.3091,-2.3091,-2.3091,-2.3091,-2.3091,-2.3091,-2.3091,-2.3091,-2.3091,-2.3091,-2.3091,-2.3091,-2.3091,-2.3091,-2.3091,-2.3091,-2.3091,-2.3091,-2.3091,-2.3091,-2.3091,-2.3091,-2.3091,-2.3091,-2.3091,-2.3091,-2.3091,-2.3091,-2.2896,-2.2847,-2.3071,-2.2896,-2.2803,-2.2803,-2.2598,-2.2295,-2.1904,-2.1885,-2.1777,-2.1543,-2.1562,-2.1269,-2.0615,-2.0762,-2.0771,-2.0605,-2.0605,-2.0605,-2.0605,-2.0605,-2.0605,-1.5838,-1.6112,-1.6319,-1.6226,-1.6206,-1.6206,0.0,0.0,0.0,0.0,0.0,0.0,0.0,0.0,0.0,0.0,0.0,0.0,-1.839,-1.9305,-2.002,-2.0608,-2.0675,0.0,-2.0615,-2.0114,-1.978,-1.974,-1.9506,-1.9424,-1.9424,-1.9085,-1.8905,-1.8858,-1.8275,-1.7969,-1.7922,-1.7922,-1.7842,-1.7582,-1.7582,-1.7582,-1.7582,-1.7582,-1.7582,-1.7582,0.0,0.0,-1.7582,-1.7582,-1.7555,-1.7548,-1.73,-1.7796,-1.854,-1.8234,-1.95,-2.146,-2.1563,-2.2262,-2.3091,-2.3091,-2.3091,-2.3091,-2.3091,-2.3091,-2.3091,-2.3091,-2.3091,-2.3091,-2.3091,-2.3091,-2.3091,-2.3091,-2.3091,-2.3091,-2.3091,-2.3091,-2.3091,-2.3091,-2.3091,-2.3091,-2.3091,-2.3091,-2.3091,-2.3091,-2.3091,-2.3091,-2.3091,-2.3091,-2.3091,-2.3091,-2.3091,-2.3091,-2.3091,-2.3091,-2.2789,-2.2119,-2.208,-2.208,-2.208,-2.1602,-2.1162,-2.0811,-2.1074,-2.1016,-2.0605,-2.0605,-2.0605,-2.0605,-2.0605,-2.0605,-1.6139,-1.642,-1.652,-1.6019,-1.5899,-1.5899,0.0,0.0,0.0,0.0,0.0,0.0,0.0,0.0,0.0,0.0,0.0,-1.8063,0.0,0.0,-2.002,-2.0608,0.0,-2.0575,-2.0327,-1.9993,-1.97,-1.9452,-1.9392,-1.9424,-1.9424,-1.9085,-1.8811,-1.8564,-1.8223,-1.7869,-1.7655,-1.7655,-1.7629,-1.7582,-1.7582,-1.7582,-1.7582,-1.7582,-1.7582,-1.7582,0.0,-1.7582,-1.7582,-1.7582,-1.7494,-1.7266,-1.7219,-1.6992,-1.6827,-1.7782,-1.8824,-2.0119,-2.2104,-2.295,-2.3091,-2.3091,-2.3091,-2.3091,-2.3091,-2.3091,-2.3091,-2.3091,-2.3091,-2.3091,-2.3091,-2.3091,-2.3091,-2.3091,-2.3091,-2.3091,-2.3091,-2.3091,-2.3091,-2.3091,-2.3091,-2.3091,-2.3091,-2.3091,-2.3091,-2.3091,-2.3091,-2.3091,-2.3091,-2.3091,-2.3091,-2.3091,-2.3091,-2.3091,-2.3091,-2.3091,-2.3042,-2.2916,-2.2906,-2.2906,-2.2906,-2.2197,-2.1748,-2.1689,-2.1387,-2.1016,-2.0605,-2.0605,-2.0605,-2.0605,-2.0605,-2.0605,-1.5952,-1.6012,-1.6046,-1.6253,-1.642,0.0,0.0,0.0,0.0,0.0,0.0,0.0,0.0,0.0,0.0,0.0,0.0,-1.9011,-1.9733,-2.0087,-2.0428,0.0,0.0,-2.0381,-2.0187,-1.9826,-1.9512,-1.9437,-1.9424,-1.9299,-1.9132,-1.8851,-1.8551,-1.8263,-1.7956,-1.7729,-1.7582,-1.8304,-1.8655,-1.8708,-1.9472,-1.9819,-1.9775,-1.9013,-1.8655,-1.8655,0.0,-1.7548,-1.74,-1.74,-1.7174,-1.6894,-1.6784,-1.7323,-1.8459,-2.018,-2.1058,-2.1587,-2.2731,-2.3091,-2.3091,-2.3091,-2.3091,-2.3091,-2.3091,-2.3091,-2.3091,-2.3091,-2.3091,-2.3091,-2.3091,-2.3091,-2.3091,-2.3091,-2.3091,-2.3091,-2.3091,-2.3091,-2.3091,-2.3091,-2.3091,-2.3091,-2.3091,-2.3091,-2.3091,-2.3091,-2.3091,-2.3091,-2.3091,-2.3091,-2.3091,-2.3091,-2.3091,-2.3091,-2.3091,-2.3091,-2.3091,-2.3091,-2.3091,-2.2994,-2.2769,-2.2646,-2.2236,-2.1553,-2.1562,-2.125,-2.0605,-2.0605,-2.0605,-2.0605,-2.0605,-2.0605,-1.5752,-1.5852,-1.6099,0.0,0.0,0.0,0.0,0.0,0.0,0.0,0.0,0.0,0.0,0.0,0.0,0.0,-1.9307,-1.9673,-2.0254,-2.0535,-2.0879,-2.1471,-2.1087,-2.0851,-2.1128,-2.0746,-2.0429,-2.0429,-2.0365,-2.0053,-1.9484,-1.9064,-1.8598,-1.7995,-1.7742,-1.7733,-1.8094,-1.942,-1.993,-1.9627,-2.1041,-2.1702,-2.1651,-2.059,-2.0084,-2.0025,-1.8577,-1.786,-1.7647,-1.7221,-1.6867,-1.663,-1.6695,-1.815,-2.0424,-2.2063,-2.2862,-2.3091,-2.3091,-2.3091,-2.3091,-2.3091,-2.3091,-2.3091,-2.3091,-2.3091,-2.3091,-2.3091,-2.3091,-2.3091,-2.3091,-2.3091,-2.3091,-2.3091,-2.3091,-2.3091,-2.3091,-2.3091,-2.3091,-2.3091,-2.3091,-2.3091,-2.3091,-2.3091,-2.3091,-2.3091,-2.3091,-2.3091,-2.3091,-2.3091,-2.3091,-2.3091,-2.3091,-2.3091,-2.3091,-2.3091,-2.3091,-2.3091,-2.3091,-2.2906,-2.2529,-2.2822,-2.2389,-2.122,-2.1562,-2.1348,-2.0605,-2.0605,-2.0605,-2.0605,-2.0605,-2.0605,-1.5752,-1.6648,0.0,0.0,0.0,0.0,0.0,0.0,0.0,0.0,0.0,0.0,0.0,0.0,0.0,-2.0674,-2.0162,-1.9973,-2.0561,0.0,-2.1225,-2.2637,-2.2511,-2.2763,-2.3876,-2.3658,-2.3487,-2.3487,-2.3139,-2.2395,-2.11,-2.0347,-1.9374,-1.8043,-1.7742,-1.8199,-1.942,-2.0837,-2.0888,-1.9627,-2.1041,-2.1702,-2.1702,-2.16,-2.155,-2.1482,-1.9806,-1.907,-1.8925,-1.7394,-1.6567,-1.6446,-1.7561,-1.9268,-2.1239,-2.1346,-2.2129,-2.3091,-2.3091,-2.3091,-2.3091,-2.3091,-2.3091,-2.3091,-2.3091,-2.3091,-2.3091,-2.3091,-2.3091,-2.3091,-2.3091,-2.3091,-2.3091,-2.3091,-2.3091,-2.3091,-2.3091,-2.3091,-2.3091,-2.3091,-2.3091,-2.3091,-2.3091,-2.3091,-2.3091,-2.3091,-2.3091,-2.3091,-2.3091,-2.3091,-2.3091,-2.3091,-2.3091,-2.3091,-2.3091,-2.3091,-2.3091,-2.3091,-2.3091,-2.2906,-2.2529,-2.2539,-2.2139,-2.121,-2.122,-2.1045,-2.0605,-2.0605,-2.0605,-2.0605,-2.0605,-2.0605,-1.5484,-1.5884,0.0,0.0,0.0,0.0,0.0,0.0,0.0,0.0,0.0,0.0,0.0,0.0,0.0,-2.1399,-2.2183,-2.2787,-2.2299,-2.3005,-2.3777,-2.4311,-2.394,-2.3783,-2.4277,-2.398,-2.3822,-2.3822,-2.3445,-2.2868,-2.2154,-2.164,-2.1021,-2.0335,-2.0197,-2.0385,-2.0888,-2.2257,-2.2676,-2.2165,-2.3534,-2.4196,-2.4146,-2.3335,-2.2787,-2.2452,-2.0974,-1.9639,-1.848,-1.7833,-1.7402,-1.7359,-1.9325,-2.0607,-2.1382,-2.2129,-2.2721,-2.3091,-2.3091,-2.3091,-2.3091,-2.3091,-2.3091,-2.3091,-2.3091,-2.3091,-2.3091,-2.3091,-2.3091,-2.3091,-2.3091,-2.3091,-2.3091,-2.3091,-2.3091,-2.3091,-2.3091,-2.3091,-2.3091,-2.3091,-2.3091,-2.3091,-2.3091,-2.3091,-2.3091,-2.3091,-2.3091,-2.3091,-2.3091,-2.3091,-2.3091,-2.3091,-2.3091,-2.3091,-2.3091,-2.3091,-2.3091,-2.3091,-2.3091,-2.2906,-2.2529,-2.251,-2.2068,-2.121,-2.119,-2.1016,-2.0605,-2.0605,-2.0605,-2.0605,-2.0605,-2.0605,-1.5361,-1.5906,0.0,0.0,0.0,0.0,0.0,0.0,0.0,0.0,0.0,0.0,0.0,0.0,0.0,0.0,-2.3877,-2.4454,-2.3696,-2.4444,-2.5225,-2.5637,-2.5248,-2.5128,-2.5513,-2.5372,-2.5171,-2.5049,-2.4637,-2.4032,-2.3224,-2.2808,-2.2333,-2.171,-2.1702,-2.1904,-2.2316,-2.3226,-2.3826,-2.4149,-2.5073,-2.5596,-2.5684,-2.4624,-2.3953,-2.357,-2.1991,-2.0543,-1.9241,-1.8343,-1.8067,-1.8457,-2.0531,-2.1525,-2.1987,-2.2818,-2.3091,-2.3091,-2.3091,-2.3091,-2.3091,-2.3091,-2.3091,-2.3091,-2.3091,-2.3091,-2.3091,-2.3091,-2.3091,-2.3091,-2.3091,-2.3091,-2.3091,-2.3091,-2.3091,-2.3091,-2.3091,-2.3091,-2.3091,-2.3091,-2.3091,-2.3091,-2.3091,-2.3091,-2.3091,-2.3091,-2.3091,-2.3091,-2.3091,-2.3091,-2.3091,-2.3091,-2.3091,-2.3091,-2.3091,-2.2974,-2.2896,-2.2896,-2.2769,-2.2617,-2.2324,-2.2187,-2.1768,-2.1035,-2.1025,-2.0869,-2.0605,-2.0605,-2.0605,-2.0605,-2.0605,-2.0605,-1.5428,-1.7018,0.0,0.0,0.0,0.0,0.0,0.0,0.0,0.0,0.0,0.0,0.0,0.0,0.0,-2.5802,-2.5026,-2.4441,-2.4671,-2.472,-2.5176,-2.6367,-2.6547,-2.7013,-2.8169,-2.8291,-2.8115,-2.7748,-2.7256,-2.6228,-2.4398,-2.3949,-2.3126,-2.1803,-2.1752,-2.2366,-2.3692,-2.3741,-2.4189,-2.5116,-2.5116,-2.5293,-2.5664,-2.5264,-2.5106,-2.4962,-2.2936,-2.2025,-2.1759,-1.8931,-1.8411,-1.9625,-2.0845,-2.2031,-2.3091,-2.3091,-2.3091,-2.3091,-2.3091,-2.3091,-2.3091,-2.3091,-2.3091,-2.3091,-2.3091,-2.3091,-2.3091,-2.3091,-2.3091,-2.3091,-2.3091,-2.3091,-2.3091,-2.3091,-2.3091,-2.3091,-2.3091,-2.3091,-2.3091,-2.3091,-2.3091,-2.3091,-2.3091,-2.3091,-2.3091,-2.3091,-2.3091,-2.3091,-2.3091,-2.3091,-2.3091,-2.3091,-2.3091,-2.3091,-2.3091,-2.2711,-2.251,-2.2519,-2.2119,-2.1875,-2.1875,-2.1465,-2.1025,-2.0615,-2.0605,-2.0605,-2.0605,-2.0605,-2.0605,-2.0605,-2.0605,-2.0605,-1.5748,0.0,0.0,0.0,0.0,0.0,0.0,0.0,0.0,0.0,0.0,0.0,0.0,0.0,0.0,-2.5747,-2.6646,-2.7197,-2.624,-2.699,-2.7799,-2.8148,-2.7936,-2.7933,-2.8247,-2.8027,-2.7855,-2.7728,-2.6992,-2.6353,-2.5808,-2.5347,-2.4913,-2.451,-2.4501,-2.4716,-2.5118,-2.5128,-2.5102,-2.5116,-2.5116,-2.4971,-2.4805,-2.4668,-2.4443,-2.415,-2.3525,-2.2588,-2.1428,-2.0574,-1.9943,-1.9716,-2.1765,-2.2775,-2.3091,-2.3091,-2.3091,-2.3091,-2.3091,-2.3091,-2.3091,-2.3091,-2.3091,-2.3091,-2.3091,-2.3091,-2.3091,-2.3091,-2.3091,-2.3091,-2.3091,-2.3091,-2.3091,-2.3091,-2.3091,-2.3091,-2.3091,-2.3091,-2.3091,-2.3091,-2.3091,-2.3091,-2.3091,-2.3091,-2.3091,-2.3091,-2.3091,-2.3091,-2.3091,-2.3091,-2.3091,-2.3091,-2.3091,-2.3091,-2.3091,-2.2711,-2.2637,-2.2886,-2.1951,-2.1385,-2.1385,-2.1268,-2.1025,-2.0615,-2.0605,-2.0605,-2.0605,-2.0605,-2.0605,-2.0605,-2.0605,-2.0605,0.0,0.0,0.0,0.0,0.0,0.0,0.0,0.0,0.0,0.0,0.0,0.0,0.0,-2.8389,0.0,-2.6695,-2.772,-2.8337,-2.7434,-2.8109,-2.8672,-2.8672,-2.8301,-2.8047,-2.8047,-2.7656,-2.7334,-2.7229,-2.668,-2.6309,-2.6143,-2.583,-2.5693,-2.5693,-2.5693,-2.5693,-2.5693,-2.5557,-2.5244,-2.4805,-2.4639,-2.4336,-2.3871,-2.4092,-2.4033,-2.3779,-2.3092,-2.1941,-2.0621,-2.1114,-2.0576,-1.9724,-2.2138,-2.3091,-2.3091,-2.3091,-2.3091,-2.3091,-2.3091,-2.3091,-2.3091,-2.3091,-2.3091,-2.3091,-2.3091,-2.3091,-2.3091,-2.3091,-2.3091,-2.3091,-2.3091,-2.3091,-2.3091,-2.3091,-2.3091,-2.3091,-2.3091,-2.3091,-2.3091,-2.3091,-2.3091,-2.3091,-2.3091,-2.3091,-2.3091,-2.3091,-2.3091,-2.3091,-2.3091,-2.3091,-2.3091,-2.3091,-2.3091,-2.3091,-2.3091,-2.2711,-2.2549,-2.2637,-2.1717,-2.1112,-2.0977,-2.0967,-2.084,-2.0605,-2.0605,-2.0605,-2.0605,-2.0605,-2.0605,-2.0605,-2.0605,-2.0605,0.0,0.0,0.0,0.0,0.0,0.0,0.0,0.0,0.0,0.0,0.0,0.0,-2.9443,-2.8564,-2.7891,-2.8232,-2.8291,-2.8291,-2.8291,-2.8262,-2.8232,-2.8232,-2.7861,-2.766,-2.766,-2.7217,-2.6797,-2.6416,-2.6357,-2.6162,-2.5713,-2.5693,-2.5693,-2.5693,-2.5645,-2.5625,-2.5625,-2.5234,-2.4785,-2.4355,-2.3975,-2.3555,-2.311,-2.3545,-2.373,-2.3656,-2.2145,-2.0711,-1.9579,-2.08,-2.0576,-1.9716,-2.2041,-2.3003,-2.3091,-2.3091,-2.3091,-2.3091,-2.3091,-2.3091,-2.3091,-2.3091,-2.3091,-2.3091,-2.3091,-2.3091,-2.3091,-2.3091,-2.3091,-2.3091,-2.3091,-2.3091,-2.3091,-2.3091,-2.3091,-2.3091,-2.3091,-2.3091,-2.3091,-2.3091,-2.3091,-2.3091,-2.3091,-2.3091,-2.3091,-2.3091,-2.3091,-2.3091,-2.3091,-2.3091,-2.3091,-2.3091,-2.3091,-2.3091,-2.3091,-2.2715,-2.2305,-2.1963,-2.1465,-2.1016,-2.0683,-2.0625,-2.0605,-2.0605,-2.0605,-2.0605,-2.0605,-2.0605,-2.0605,-2.0605,-2.0605,-2.0605,0.0,0.0,0.0,0.0,0.0,0.0,0.0,0.0,0.0,0.0,0.0,-2.9355,-2.9101,-2.8838,-2.8574,-2.833,-2.8291,-2.8291,-2.8291,-2.8008,-2.7855,-2.7855,-2.7422,-2.7158,-2.7158,-2.6768,-2.6484,-2.6396,-2.6074,-2.5791,-2.5693,-2.5693,-2.5693,-2.5693,-2.54,-2.5215,-2.5215,-2.4775,-2.4346,-2.3926,-2.3838,-2.3555,-2.3101,-2.3188,-2.3237,-2.3227,-2.2857,-2.1489,-1.9579,-2.08,-2.0576,-1.9633,-2.1123,-2.2262,-2.3091,-2.3091,-2.3091,-2.3091,-2.3091,-2.3091,-2.3091,-2.3091,-2.3091,-2.3091,-2.3091,-2.3091,-2.3091,-2.3091,-2.3091,-2.3091,-2.3091,-2.3091,-2.3091,-2.3091,-2.3091,-2.3091,-2.3091,-2.3091,-2.3091,-2.3091,-2.3091,-2.3091,-2.3091,-2.3091,-2.3091,-2.3091,-2.3091,-2.3091,-2.3091,-2.3091,-2.3091,-2.3091,-2.3091,-2.3091,-2.3091,-2.2451,-2.2129,-2.2363,-2.1328,-2.082,-2.1074,-2.0752,-2.0605,-2.0605,-2.0605,-2.0605,-2.0605,-2.0605,-2.0605,-2.0605,-2.0605,-2.0605,0.0,0.0,0.0,0.0,0.0,0.0,0.0,0.0,0.0,0.0,0.0,-2.9189,-2.8965,-2.875,-2.8545,-2.833,-2.8291,-2.8223,-2.8018,-2.7855,-2.764,-2.7383,-2.6973,-2.6709,-2.6709,-2.6328,-2.6074,-2.6074,-2.582,-2.5693,-2.5693,-2.5693,-2.5586,-2.543,-2.5195,-2.4971,-2.4756,-2.4326,-2.4004,-2.3789,-2.3574,-2.3359,-2.3091,-2.3091,-2.3091,-2.3047,-2.2492,-2.1534,-2.035,-2.044,-2.0395,-2.044,-2.1069,-2.2031,-2.3091,-2.3091,-2.3091,-2.3091,-2.3091,-2.3091,-2.3091,-2.3091,-2.3091,-2.3091,-2.3091,-2.3091,-2.3091,-2.3091,-2.3091,-2.3091,-2.3091,-2.3091,-2.3091,-2.3091,-2.3091,-2.3091,-2.3091,-2.3091,-2.3091,-2.3091,-2.3091,-2.3091,-2.3091,-2.3091,-2.3091,-2.3091,-2.3091,-2.3091,-2.3091,-2.3091,-2.3091,-2.3091,-2.3091,-2.3091,-2.3091,-2.2549,-2.2197,-2.2207,-2.1377,-2.0889,-2.0908,-2.0723,-2.0605,-2.0605,-2.0605,-2.0605,-2.0605,-2.0605,-2.0605,-2.0605,-2.0605,-2.0605,0.0,0.0,0.0,0.0,0.0,0.0,0.0,0.0,0.0,0.0,-2.8574,-2.8809,-2.8809,-2.8525,-2.8271,-2.8193,-2.8184,-2.8037,-2.7669,-2.7542,-2.7314,-2.6943,-2.6533,-2.6279,-2.6279,-2.5947,-2.5693,-2.5693,-2.5693,-2.5654,-2.5577,-2.5625,-2.542,-2.4971,-2.493,-2.4678,-2.4316,-2.3887,-2.3682,-2.3672,-2.331,-2.3091,-2.3091,-2.3091,-2.3091,-2.3047,-2.2031,-2.1471,-2.1203,-2.0215,-2.0395,-2.1293,-2.1293,-2.2031,-2.3091,-2.3091,-2.3091,-2.3091,-2.3091,-2.3091,-2.3091,-2.3091,-2.3091,-2.3091,-2.3091,-2.3091,-2.3091,-2.3091,-2.3091,-2.3091,-2.3091,-2.3091,-2.3091,-2.3091,-2.3091,-2.3091,-2.3091,-2.3091,-2.3091,-2.3091,-2.3091,-2.3091,-2.3091,-2.3091,-2.3091,-2.3091,-2.3091,-2.3091,-2.3091,-2.3091,-2.3091,-2.3091,-2.3091,-2.3062,-2.2994,-2.2646,-2.2227,-2.1807,-2.1367,-2.0947,-2.0615,-2.0605,-2.0605,-2.0605,-2.0605,-2.0605,-2.0605,-2.0605,-2.0605,-2.0605,-2.0605,-2.0605,0.0,0.0,0.0,0.0,0.0,0.0,0.0,0.0,0.0,0.0,-2.834,-2.8379,-2.8379,-2.833,-2.8174,-2.7865,-2.7806,-2.7598,-2.7168,-2.6787,-2.6543,-2.6484,-2.6094,-2.5771,-2.5771,-2.5723,-2.5693,-2.5693,-2.5693,-2.5566,-2.5176,-2.5156,-2.4961,-2.4521,-2.415,-2.3935,-2.3877,-2.3403,-2.3179,-2.3179,-2.312,-2.3091,-2.3091,-2.3091,-2.3091,-2.3091,-2.2916,-2.2262,-2.1293,-2.1114,-2.1159,-2.1293,-2.1293,-2.2031,-2.3091,-2.3091,-2.3091,-2.3091,-2.3091,-2.3091,-2.3091,-2.3091,-2.3091,-2.3091,-2.3091,-2.3091,-2.3091,-2.3091,-2.3091,-2.3091,-2.3091,-2.3091,-2.3091,-2.3091,-2.3091,-2.3091,-2.3091,-2.3091,-2.3091,-2.3091,-2.3091,-2.3091,-2.3091,-2.3091,-2.3091,-2.3091,-2.3091,-2.3091,-2.3091,-2.3091,-2.3091,-2.3091,-2.3091,-2.2945,-2.2627,-2.2207,-2.1787,-2.1307,-2.0898,-2.0664,-2.0605,-2.0605,-2.0605,-2.0605,-2.0605,-2.0605,-2.0605,-2.0605,-2.0605,-2.0605,-2.0605,-2.0605,0.0,0.0,0.0,0.0,0.0,0.0,0.0,0.0,0.0,-2.7539,-2.7578,-2.7646,-2.79,-2.7939,-2.7803,-2.7373,-2.7305,-2.7158,-2.6728,-2.6504,-2.6299,-2.6055,-2.581,-2.5693,-2.5693,-2.5508,-2.5591,-2.6226,-2.605,-2.5874,-2.5671,-2.565,-2.5183,-2.4082,-2.3887,-2.3672,-2.3428,-2.3188,-2.3091,-2.3091,-2.3091,-2.3091,-2.3135,-2.3757,-2.3714,-2.3091,-2.3091,-2.2818,-2.2262,-2.1569,-2.1702,-2.2262,-2.1569,-2.2031,-2.3091,-2.3091,-2.3091,-2.3091,-2.3091,-2.3091,-2.3091,-2.3091,-2.3091,-2.3091,-2.3091,-2.3091,-2.3091,-2.3091,-2.3091,-2.3091,-2.3091,-2.3091,-2.3091,-2.3091,-2.3091,-2.3091,-2.3091,-2.3091,-2.3091,-2.3091,-2.3091,-2.3091,-2.3091,-2.3091,-2.3091,-2.3091,-2.3091,-2.3091,-2.3091,-2.3091,-2.3091,-2.3091,-2.2886,-2.2672,-2.2529,-2.1904,-2.1405,-2.121,-2.081,-2.0605,-2.0605,-2.0605,-2.0605,-2.0605,-2.0605,-2.0605,-2.0605,-2.0605,-2.0605,-2.0605,-2.0605,-2.0605,0.0,0.0,0.0,0.0,0.0,0.0,0.0,0.0,0.0,0.0,-2.7012,-2.708,-2.7295,-2.7422,-2.7363,-2.6924,-2.6855,-2.6709,-2.6279,-2.6221,-2.6103,-2.5732,-2.5586,-2.5566,-2.5566,-2.5441,-2.5668,-2.6478,-2.6518,-2.6364,-2.5947,-2.5936,-2.5204,-2.3677,-2.3623,-2.3467,-2.3101,-2.3091,-2.3091,-2.3091,-2.3387,-2.3507,-2.3551,-2.4713,-2.4755,-2.393,-2.3681,-2.3387,-2.3047,-2.212,-2.2306,-2.3003,-2.212,-2.2306,-2.3091,-2.3091,-2.3091,-2.3091,-2.3091,-2.3091,-2.3091,-2.3091,-2.3091,-2.3091,-2.3091,-2.3091,-2.3091,-2.3091,-2.3091,-2.3091,-2.3091,-2.3091,-2.3091,-2.3091,-2.3091,-2.3091,-2.3091,-2.3091,-2.3091,-2.3091,-2.3091,-2.3091,-2.3091,-2.3091,-2.3091,-2.3091,-2.3091,-2.3091,-2.3091,-2.3091,-2.3091,-2.3091,-2.2721,-2.2471,-2.2363,-2.1629,-2.1142,-2.1034,-2.0752,-2.0605,-2.0605,-2.0605,-2.0605,-2.0605,-2.0605,-2.0605,-2.0605,-2.0605,-2.0605,-2.0605,-2.0605,-2.0605,0.0,0.0,0.0,0.0,0.0,0.0,0.0,0.0,0.0,-2.6934,-2.7012,-2.6904,-2.6523,-2.6787,-2.6914,-2.6494,-2.6426,-2.6269,-2.5781,-2.5723,-2.5713,-2.5693,-2.5361,-2.5145,-2.5145,-2.5706,-2.6066,-2.6156,-2.7062,-2.6977,-2.552,-2.5455,-2.4733,-2.3184,-2.313,-2.312,-2.3091,-2.3091,-2.3091,-2.3091,-2.4211,-2.4702,-2.4745,-2.5891,-2.6389,-2.6265,-2.5168,-2.4092,-2.3091,-2.3047,-2.3047,-2.3091,-2.3047,-2.3047,-2.3091,-2.3091,-2.3091,-2.3091,-2.3091,-2.3091,-2.3091,-2.3091,-2.3091,-2.3091,-2.3091,-2.3091,-2.3091,-2.3091,-2.3091,-2.3091,-2.3091,-2.3091,-2.3091,-2.3091,-2.3091,-2.3091,-2.3091,-2.3091,-2.3091,-2.3091,-2.3091,-2.3091,-2.3091,-2.3091,-2.3091,-2.3091,-2.3091,-2.3091,-2.3091,-2.3091,-2.3091,-2.3091,-2.2721,-2.2353,-2.1953,-2.1504,-2.1055,-2.0664,-2.0615,-2.0605,-2.0605,-2.0605,-2.0605,-2.0605,-2.0605,-2.0605,-2.0605,-2.0605,-2.0605,-2.0605,-2.0605,-2.0605,0.0,0.0,0.0,0.0,0.0,0.0,0.0,0.0,-2.5664,-2.6054,-2.6152,-2.6103,-2.5996,-2.6318,-2.6475,-2.6035,-2.5967,-2.5869,-2.5713,-2.5693,-2.5586,-2.5342,-2.5166,-2.4998,-2.4678,-2.5274,-2.5962,-2.6693,-2.7493,-2.7398,-2.6154,-2.6112,-2.5189,-2.3144,-2.3091,-2.3091,-2.3091,-2.3844,-2.4168,-2.4211,-2.5347,-2.588,-2.5933,-2.7035,-2.6737,-2.542,-2.5755,-2.5263,-2.4125,-2.3387,-2.3091,-2.3091,-2.3091,-2.3091,-2.3091,-2.3091,-2.3091,-2.3091,-2.3091,-2.3091,-2.3091,-2.3091,-2.3091,-2.3091,-2.3091,-2.3091,-2.3091,-2.3091,-2.3091,-2.3091,-2.3091,-2.3091,-2.3091,-2.3091,-2.3091,-2.3091,-2.3091,-2.3091,-2.3091,-2.3091,-2.3091,-2.3091,-2.3091,-2.3091,-2.3091,-2.3091,-2.3091,-2.3091,-2.3091,-2.3091,-2.2994,-2.2721,-2.2353,-2.1934,-2.1504,-2.1064,-2.0732,-2.0615,-2.0605,-2.0605,-2.0605,-2.0605,-2.0605,-2.0605,-2.0605,-2.0605,-2.0605,-2.0605,-2.0605,-2.0605,-2.0605,-2.0605,0.0,0.0,0.0,0.0,0.0,0.0,0.0,0.0,-2.4766,-2.5157,-2.541,-2.5469,-2.5274,-2.5527,-2.5732,-2.5693,-2.5693,-2.5635,-2.5537,-2.5518,-2.5352,-2.4902,-2.4773,-2.4707,-2.471,-2.5367,-2.6235,-2.736,-2.783,0.0,-2.6565,-2.6141,-2.5052,-2.3178,-2.3464,-2.3681,-2.3681,-2.4798,-2.5378,-2.5378,-2.6502,-2.7046,-2.7087,-2.8148,-2.7643,-2.5942,-2.6348,-2.5641,-2.4168,-2.343,-2.3091,-2.3091,-2.3091,-2.3091,-2.3091,-2.3091,-2.3091,-2.3091,-2.3091,-2.3091,-2.3091,-2.3091,-2.3091,-2.3091,-2.3091,-2.3091,-2.3091,-2.3091,-2.3091,-2.3091,-2.3091,-2.3091,-2.3091,-2.3091,-2.3091,-2.3091,-2.3091,-2.3091,-2.3091,-2.3091,-2.3091,-2.3091,-2.3091,-2.3091,-2.3091,-2.3091,-2.3091,-2.3091,-2.3091,-2.3091,-2.2935,-2.2559,-2.2139,-2.1709,-2.1229,-2.082,-2.0605,-2.0605,-2.0605,-2.0605,-2.0605,-2.0605,-2.0605,-2.0605,-2.0605,-2.0605,-2.0605,-2.0605,-2.0605,-2.0605,-2.0605,-2.0605,0.0,0.0,0.0,0.0,0.0,0.0,0.0,0.0,-2.3809,-2.4277,-2.4707,-2.492,-2.4492,-2.4414,-2.4697,-2.5508,-2.5645,-2.5547,-2.5107,-2.5096,-2.493,-2.4453,-2.4043,-2.4217,-2.5272,-2.6039,-2.6924,-2.7964,-2.8084,-2.7602,-2.6513,-2.5378,-2.4253,-2.3135,-2.4211,-2.4787,-2.4787,-2.5964,-2.6554,-2.6554,-2.7654,-2.8136,-2.8176,-2.9287,-2.9157,-2.8004,-2.6964,-2.5221,-2.3091,-2.3091,-2.3091,-2.3091,-2.3091,-2.3091,-2.3091,-2.3091,-2.3091,-2.3091,-2.3091,-2.3091,-2.3091,-2.3091,-2.3091,-2.3091,-2.3091,-2.3091,-2.3091,-2.3091,-2.3091,-2.3091,-2.3091,-2.3091,-2.3091,-2.3091,-2.3091,-2.3091,-2.3091,-2.3091,-2.3091,-2.3091,-2.3091,-2.3091,-2.3091,-2.3091,-2.3091,-2.3091,-2.3091,-2.3091,-2.3091,-2.3081,-2.2916,-2.2539,-2.2119,-2.1689,-2.121,-2.081,-2.0605,-2.0605,-2.0605,-2.0605,-2.0605,-2.0605,-2.0605,-2.0605,-2.0605,-2.0605,-2.0605,-2.0605,-2.0605,-2.0605,-2.0605,-2.0605,-1.6183,0.0,0.0,0.0,0.0,0.0,0.0,0.0,-2.1465,-2.3101,-2.335,-2.3467,-2.4268,-2.4414,-2.4492,-2.4746,-2.4738,-2.4736,-2.4619,-2.459,-2.4443,-2.4014,-2.3857,-2.4088,-2.4889,-2.5884,-2.6637,0.0,-2.7643,-2.7267,-2.5378,-2.4178,-2.343,-2.3091,-2.4211,-2.4787,-2.4787,-2.6696,-2.7643,-2.7683,-2.8779,-2.9326,-2.9326,-2.9663,-2.8752,-2.6924,-2.6637,-2.5221,-2.3091,-2.3091,-2.3091,-2.3091,-2.3091,-2.3091,-2.3091,-2.3091,-2.3091,-2.3091,-2.3091,-2.3091,-2.3091,-2.3091,-2.3091,-2.3091,-2.3091,-2.3091,-2.3091,-2.3091,-2.3091,-2.3091,-2.3091,-2.3091,-2.3091,-2.3091,-2.3091,-2.3091,-2.3091,-2.3091,-2.3091,-2.3091,-2.3091,-2.3091,-2.3091,-2.3091,-2.3091,-2.3091,-2.3091,-2.3091,-2.3091,-2.2828,-2.2519,-2.21,-2.167,-2.124,-2.0791,-2.0674,-2.0605,-2.0605,-2.0605,-2.0605,-2.0605,-2.0605,-2.0605,-2.0605,-2.0605,-2.0605,-2.0605,-2.0605,-2.0605,-2.0605,-2.0605,-2.0605,0.0,0.0,0.0,0.0,0.0,0.0,-1.9404,-1.9863,-2.043,0.0,-2.2568,-2.2734,-2.3486,-2.3623,-2.3682,-2.3812,-2.3842,-2.3945,-2.4131,-2.415,-2.3994,-2.3574,-2.3939,-2.4377,-2.4776,-2.5839,-2.6524,-2.6524,-2.6655,-2.5942,-2.4168,-2.3474,-2.3299,-2.38,-2.4925,-2.5703,-2.6191,-2.7936,-2.8806,-2.8819,-2.9495,-2.9792,-2.9792,-2.9326,-2.8159,-2.6483,-2.6016,-2.4766,-2.3091,-2.3091,-2.3091,-2.3091,-2.3091,-2.3091,-2.3091,-2.3091,-2.3091,-2.3091,-2.3091,-2.3091,-2.3091,-2.3091,-2.3091,-2.3091,-2.3091,-2.3091,-2.3091,-2.3091,-2.3091,-2.3091,-2.3091,-2.3091,-2.3091,-2.3091,-2.3091,-2.3091,-2.3091,-2.3091,-2.3091,-2.3091,-2.3091,-2.3091,-2.3091,-2.3091,-2.3091,-2.3091,-2.2945,-2.2838,-2.2838,-2.251,-2.209,-2.166,-2.1346,-2.1055,-2.0644,-2.0605,-2.0605,-2.0605,-2.0605,-2.0605,-2.0605,-2.0605,-2.0605,-2.0605,-2.0605,-2.0605,-2.0605,-2.0605,-2.0605,-2.0605,-2.0605,-2.0605,0.0,0.0,0.0,0.0,-1.7369,0.0,-1.9509,-1.9775,-1.9971,0.0,-2.168,-2.2002,-2.2187,-2.2227,-2.2363,-2.274,-2.2886,-2.312,-2.3652,-2.3721,-2.3619,-2.3305,-2.4082,-2.4713,-2.4957,-2.5797,-2.6307,-2.6307,-2.5252,-2.4168,-2.3135,-2.3091,-2.3551,-2.4585,-2.585,-2.6964,-2.7924,-2.9157,-2.9792,-2.9792,-2.9792,-2.974,-2.9573,-2.8557,-2.7441,-2.6265,-2.5252,-2.4168,-2.3091,-2.3091,-2.3091,-2.3091,-2.3091,-2.3091,-2.3091,-2.3091,-2.3091,-2.3091,-2.3091,-2.3091,-2.3091,-2.3091,-2.3091,-2.3091,-2.3091,-2.3091,-2.3091,-2.3091,-2.3091,-2.3091,-2.3091,-2.3091,-2.3091,-2.3091,-2.3091,-2.3091,-2.3091,-2.3091,-2.3091,-2.3091,-2.3091,-2.3091,-2.3091,-2.3091,-2.3081,-2.3033,-2.2711,-2.249,-2.2451,-2.207,-2.167,-2.1239,-2.1151,-2.0996,-2.0635,-2.0605,-2.0605,-2.0605,-2.0605,-2.0605,-2.0605,-2.0605,-2.0605,-2.0605,-2.0605,-2.0605,-2.0605,-2.0605,-2.0605,-2.0605,-2.0605,-2.0605,-1.7793,-1.8008,-1.813,-1.7184,-1.7594,0.0,-1.6269,-1.6966,-1.7949,0.0,-1.833,-1.8799,-2.0166,-2.042,-2.0566,-2.0996,-2.167,-2.2393,-2.312,-2.3218,-2.3519,-2.4392,-2.3844,-2.4135,-2.5975,-2.5546,-2.5126,-2.5126,-2.4092,-2.3343,-2.3091,-2.3091,-2.3222,-2.342,-2.5431,-2.6595,-2.6801,-2.8791,-2.9792,-2.9792,-2.9792,-2.9326,-2.8426,-2.8215,-2.7012,-2.5126,-2.4914,-2.4168,-2.3091,-2.3091,-2.3091,-2.3091,-2.3091,-2.3091,-2.3091,-2.3091,-2.3091,-2.3091,-2.3091,-2.3091,-2.3091,-2.3091,-2.3091,-2.3091,-2.3091,-2.3091,-2.3091,-2.3091,-2.3091,-2.3091,-2.3091,-2.3091,-2.3091,-2.3091,-2.3091,-2.3091,-2.3091,-2.3091,-2.3091,-2.3091,-2.3091,-2.3091,-2.3091,-2.3091,-2.2984,-2.2685,-2.2568,-2.2393,-2.2051,-2.1631,-2.1288,-2.121,-2.0908,-2.0703,-2.0615,-2.0605,-2.0605,-2.0605,-2.0605,-2.0605,-2.0605,-2.0605,-2.0605,-2.0605,-2.0605,-2.0605,-2.0605,-2.0605,-2.0605,-2.0605,-2.0605,-2.0605,-1.7978,-1.8008,-1.8139,-1.7496,-1.7496,0.0,0.0,-1.6738,-1.7236,-1.7881,-1.7676,-1.7773,-1.9007,-1.9241,-1.9482,-2.0137,-2.0986,-2.1709,-2.2087,-2.2691,-2.3299,-2.3877,-2.3963,-2.4178,-2.4766,-2.4798,-2.4542,-2.4006,-2.342,-2.3091,-2.3091,-2.3091,-2.3343,-2.392,-2.5599,-2.676,-2.729,-2.8949,-2.9792,-2.9792,-2.9236,-2.8636,-2.8044,-2.6982,-2.5859,-2.4787,-2.4211,-2.3637,-2.3091,-2.3091,-2.3091,-2.3091,-2.3091,-2.3091,-2.3091,-2.3091,-2.3091,-2.3091,-2.3091,-2.3091,-2.3091,-2.3091,-2.3091,-2.3091,-2.3091,-2.3091,-2.3091,-2.3091,-2.3091,-2.3091,-2.3091,-2.3091,-2.3091,-2.3091,-2.3091,-2.3091,-2.3091,-2.3091,-2.3091,-2.3091,-2.3091,-2.3091,-2.3091,-2.2916,-2.2711,-2.2549,-2.2148,-2.1797,-2.1592,-2.1172,-2.0898,-2.0898,-2.0742,-2.0605,-2.0605,-2.0605,-2.0605,-2.0605,-2.0605,-2.0605,-2.0605,-2.0605,-2.0605,-2.0605,-2.0605,-2.0605,-2.0605,-2.0605,-2.0605,-2.0605,-2.0605,-2.0605,-1.8291,-1.8242,-1.8525,-1.8115,-1.7734,-1.7451,0.0,0.0,0.0,0.0,0.0,0.0,0.0,0.0,0.0,0.0,0.0,0.0,0.0,-2.1678,0.0,-2.3034,-2.3744,-2.3995,-2.3378,-2.3807,-2.3807,-2.3159,-2.2867,-2.2838,-2.3081,-2.3091,-2.3507,-2.4457,-2.5808,-2.6924,-2.7763,-2.9118,-2.9702,-2.9456,-2.8557,-2.7884,-2.7389,-2.5608,-2.466,-2.4414,-2.3507,-2.3091,-2.3091,-2.3091,-2.3091,-2.3091,-2.3091,-2.3091,-2.3091,-2.3091,-2.3091,-2.3091,-2.3091,-2.3091,-2.3091,-2.3091,-2.3091,-2.3091,-2.3091,-2.3091,-2.3091,-2.3091,-2.3091,-2.3091,-2.3091,-2.3091,-2.3091,-2.3091,-2.3091,-2.3091,-2.3091,-2.3091,-2.3091,-2.3091,-2.3091,-2.3091,-2.3091,-2.275,-2.248,-2.2402,-2.1728,-2.1161,-2.1073,-2.0791,-2.0605,-2.0605,-2.0605,-2.0605,-2.0605,-2.0605,-2.0605,-2.0605,-2.0605,-2.0605,-2.0605,-2.0605,-2.0605,-2.0605,-2.0605,-2.0605,-2.0605,-2.0605,-2.0605,-2.0605,-2.0605,-2.0605,0.0,0.0,0.0,-1.8486,-1.9082,-1.9294,-1.5938,0.0,-1.6914,-1.5508,0.0,0.0,0.0,0.0,0.0,0.0,0.0,0.0,-1.8379,-1.9473,-2.0934,-2.2731,-2.2493,-2.2732,-2.395,-2.2605,-2.2038,-2.3013,-2.2048,-2.1902,-2.3033,-2.3091,-2.3178,-2.3309,-2.54,-2.6565,-2.6678,-2.8752,-2.9275,-2.8307,-2.8176,-2.7064,-2.5157,-2.4914,-2.4253,-2.3309,-2.3178,-2.3091,-2.3091,-2.3091,-2.3091,-2.3091,-2.3091,-2.3091,-2.3091,-2.3091,-2.3091,-2.3091,-2.3091,-2.3091,-2.3091,-2.3091,-2.3091,-2.3091,-2.3091,-2.3091,-2.3091,-2.3091,-2.3091,-2.3091,-2.3091,-2.3091,-2.3091,-2.3091,-2.3091,-2.3091,-2.3091,-2.3091,-2.3091,-2.3091,-2.3091,-2.3091,-2.3091,-2.275,-2.2383,-2.2012,-2.1543,-2.1094,-2.0693,-2.0635,-2.0605,-2.0605,-2.0605,-2.0605,-2.0605,-2.0605,-2.0605,-2.0605,-2.0605,-2.0605,-2.0605,-2.0605,-2.0605,-2.0605,-2.0605,-2.0605,-2.0605,-2.0605,-2.0605,-2.0605,-2.0605,-2.0605,0.0,0.0,0.0,-1.8695,-1.873,-1.8525,-1.6396,-1.6084,-1.6103,-1.5654,0.0,0.0,0.0,0.0,0.0,0.0,-1.707,0.0,0.0,0.0,-1.9025,0.0,0.0,0.0,-2.1999,-2.156,-2.1522,-2.2353,-2.1435,-2.1416,-2.2662,-2.273,-2.3173,-2.4082,-2.5641,-2.6801,-2.74,-2.9,-2.9236,-2.8096,-2.7481,-2.6326,-2.4787,-2.4125,-2.3551,-2.3091,-2.3091,-2.3091,-2.3091,-2.3091,-2.3091,-2.3091,-2.3091,-2.3091,-2.3091,-2.3091,-2.3091,-2.3091,-2.3091,-2.3091,-2.3091,-2.3091,-2.3091,-2.3091,-2.3091,-2.3091,-2.3091,-2.3091,-2.3091,-2.3091,-2.3091,-2.3091,-2.3091,-2.3091,-2.3091,-2.3091,-2.3091,-2.3091,-2.3091,-2.3091,-2.3091,-2.3013,-2.2779,-2.2432,-2.2002,-2.1572,-2.1133,-2.0781,-2.0625,-2.0605,-2.0605,-2.0605,-2.0605,-2.0605,-2.0605,-2.0605,-2.0605,-2.0605,-2.0605,-2.0605,-2.0605,-2.0605,-2.0605,-2.0605,-2.0605,-2.0605,-2.0605,-2.0605,-2.0605,-2.0605,-2.0605,-2.0468,-1.9902,0.0,0.0,-1.8763,-1.8286,-1.7828,-1.6619,-1.6152,-1.5977,-1.6075,-1.588,0.0,0.0,0.0,0.0,0.0,0.0,-1.6865,0.0,-1.6641,0.0,0.0,0.0,0.0,0.0,-2.0371,-2.0674,-2.1465,-2.0488,-2.0537,-2.208,-2.255,-2.3335,-2.4588,-2.6146,-2.7319,-2.8096,-2.8937,-2.8779,-2.7643,-2.6543,-2.5431,-2.4296,-2.3464,-2.3091,-2.3091,-2.3091,-2.3091,-2.3091,-2.3091,-2.3091,-2.3091,-2.3091,-2.3091,-2.3091,-2.3091,-2.3091,-2.3091,-2.3091,-2.3091,-2.3091,-2.3091,-2.3091,-2.3091,-2.3091,-2.3091,-2.3091,-2.3091,-2.3091,-2.3091,-2.3091,-2.3091,-2.3091,-2.3091,-2.3091,-2.3091,-2.3091,-2.3091,-2.3091,-2.3091,-2.3003,-2.2789,-2.2412,-2.209,-2.1738,-2.1259,-2.0859,-2.0605,-2.0605,-2.0605,-2.0605,-2.0605,-2.0605,-2.0605,-2.0605,-2.0605,-2.0605,-2.0605,-2.0605,-2.0605,-2.0605,-2.0605,-2.0605,-2.0605,-2.0605,-2.0605,-2.0605,-2.0605,-2.0546,-2.0429,-2.0429,-2.0215,0.0,0.0,0.0,-1.8662,-1.8286,-1.8022,-1.5907,-1.6416,-1.7112,-1.6261,-1.7051,-1.7656,-1.6814,0.0,0.0,0.0,0.0,0.0,0.0,0.0,0.0,0.0,0.0,0.0,0.0,-1.8828,-1.8809,0.0,-1.9043,-1.9023,-2.1122,-2.2664,-2.3694,-2.4198,-2.6691,-2.8056,-2.8096,-2.8136,-2.7602,-2.6565,-2.542,-2.4253,-2.3135,-2.3135,-2.3091,-2.3091,-2.3091,-2.3091,-2.3091,-2.3091,-2.3091,-2.3091,-2.3091,-2.3091,-2.3091,-2.3091,-2.3091,-2.3091,-2.3091,-2.3091,-2.3091,-2.3091,-2.3091,-2.3091,-2.3091,-2.3091,-2.3091,-2.3091,-2.3091,-2.3091,-2.3091,-2.3091,-2.3091,-2.3091,-2.3091,-2.3091,-2.3091,-2.3091,-2.3091,-2.3091,-2.2812,-2.2402,-2.1982,-2.1894,-2.1738,-2.1259,-2.0859,-2.0605,-2.0605,-2.0605,-2.0605,-2.0605,-2.0605,-2.0605,-2.0605,-2.0605,-2.0605,-2.0605,-2.0605,-2.0605,-2.0605,-2.0605,-2.0605,-2.0605,-2.0605,-2.0605,-2.0605,-2.0605,-2.039,-1.9932,-1.9932,-1.9922,0.0,0.0,-2.1816,-1.9775,-1.917,-1.8574,-1.6677,-1.6855,-1.7161,-1.6281,-1.71,-1.7711,-1.6853,0.0,0.0,0.0,0.0,0.0,0.0,0.0,0.0,0.0,0.0,0.0,0.0,0.0,0.0,-1.8857,-1.8594,0.0,-2.1632,-2.2845,-2.4335,-2.6177,-2.7453,-2.8096,-2.8096,-2.8096,-2.7186,-2.5378,-2.4999,-2.4211,-2.3091,-2.3091,-2.3091,-2.3091,-2.3091,-2.3091,-2.3091,-2.3091,-2.3091,-2.3091,-2.3091,-2.3091,-2.3091,-2.3091,-2.3091,-2.3091,-2.3091,-2.3091,-2.3091,-2.3091,-2.3091,-2.3091,-2.3091,-2.3091,-2.3091,-2.3091,-2.3091,-2.3091,-2.3091,-2.3091,-2.3091,-2.3091,-2.3091,-2.3091,-2.3091,-2.3091,-2.3091,-2.3091,-2.2803,-2.2383,-2.1963,-2.165,-2.1309,-2.0859,-2.0703,-2.0605,-2.0605,-2.0605,-2.0605,-2.0605,-2.0605,-2.0605,-2.0605,-2.0605,-2.0605,-2.0605,-2.0605,-2.0605,-2.0605,-2.0605,-2.0605,-2.0605,-2.0605,-2.0458,-2.0137,-2.0137,-1.9912,-1.9492,-1.9163,-1.9026,-2.1963,-2.2197,0.0,-2.0537,-1.9941,-1.9297,-1.7578,-1.7754,-1.8037,-1.7158,-1.7773,-1.834,-1.7906,0.0,0.0,0.0,0.0,0.0,0.0,-1.3782,0.0,0.0,0.0,0.0,0.0,0.0,-1.7603,-1.7988,-1.7832,-1.8744,0.0,-2.259,-2.4424,-2.669,-2.7442,-2.7905,-2.8096,-2.7308,-2.6191,-2.4787,-2.4372,-2.38,-2.3091,-2.3091,-2.3091,-2.3091,-2.3091,-2.3013,-2.2877,-2.2877,-2.2877,-2.2877,-2.2877,-2.2964,-2.3091,-2.3091,-2.3091,-2.3091,-2.3091,-2.3091,-2.3091,-2.3091,-2.3091,-2.3091,-2.3091,-2.3091,-2.3091,-2.3091,-2.3091,-2.3091,-2.3091,-2.3091,-2.3091,-2.3091,-2.3091,-2.3091,-2.3091,-2.3091,-2.3052,-2.2896,-2.2578,-2.2148,-2.1728,-2.1289,-2.0898,-2.0644,-2.0605,-2.0605,-2.0605,-2.0605,-2.0605,-2.0605,-2.0605,-2.0605,-2.0605,-2.0605,-2.0605,-2.0605,-2.0605,-2.0605,-2.0605,-2.0605,-2.0605,-2.0605,-2.0449,-2.0195,-1.9912,-1.9766,-1.9473,-1.9053,-1.8734,-1.852]}]]